[[{"header":{"parameterUnit":"m.s-1","parameterCategory":1,"la1":31.0,"la2":29.5877,"lo1":-88.7671,"lo2":-86.6584,"dy":0.0162,"dx":0.0185,"nx":115,"ny":88,"refTime":"2026-05-17T00:00:00:Z","depth":0,"parameterNumber":2,"parameterNumberName":"U-component_of_WINDS"},"data":[0.0,0.0,0.0,0.0,0.0,0.0,0.0,0.0,0.0,0.0,0.0,0.0,0.0,0.0,0.0,0.0,0.0,0.0,0.0,0.0,0.0,0.0,0.0,0.0,0.0,0.0,0.0,0.0,0.0,0.0,0.0,0.0,0.0,0.0,0.0,0.0,0.0,0.0,0.0,0.0,0.0,0.0,0.0,0.0,0.0,0.0,0.0,0.0,0.0,0.0,0.0,0.0,0.0,0.0,0.0,0.0,0.0,0.0,0.0,0.0,0.0,0.0,0.0,0.0,0.0,0.0,0.0,0.0,0.0,0.0,0.0,0.0,0.0,0.0,0.0,0.0,0.0,0.0,0.0,0.0,0.0,0.0,0.0,0.0,0.0,0.0,0.0,0.0,0.0,0.0,0.0,0.0,0.0,0.0,0.0,0.0,0.0,0.0,0.0,0.0,0.0,0.0,0.0,0.0,0.0,0.0,0.0,0.0,0.0,0.0,0.0,0.0,0.0,0.0,0.0,0.0,0.0,0.0,0.0,0.0,0.0,0.0,0.0,0.0,0.0,0.0,0.0,0.0,0.0,0.0,0.0,0.0,0.0,0.0,0.0,0.0,0.0,0.0,0.0,0.0,0.0,0.0,0.0,0.0,0.0,0.0,0.0,0.0,0.0,0.0,0.0,0.0,0.0,0.0,0.0,0.0,0.0,0.0,0.0,0.0,0.0,0.0,0.0,0.0,0.0,0.0,0.0,0.0,0.0,0.0,0.0,0.0,0.0,0.0,0.0,0.0,0.0,0.0,0.0,0.0,0.0,0.0,0.0,0.0,0.0,0.0,0.0,0.0,0.0,0.0,0.0,0.0,0.0,0.0,0.0,0.0,0.0,0.0,0.0,0.0,0.0,0.0,0.0,0.0,0.0,0.0,0.0,0.0,0.0,0.0,0.0,0.0,0.0,0.0,0.0,0.0,0.0,0.0,0.0,0.0,0.0,0.0,0.0,0.0,0.0,0.0,0.0,0.0,0.0,0.0,0.0,0.0,0.0,0.0,0.0,0.0,0.0,0.0,0.0,0.0,0.0,0.0,0.0,0.0,0.0,0.0,0.0,0.0,0.0,0.0,0.0,0.0,0.0,0.0,0.0,0.0,0.0,0.0,0.0,0.0,0.0,0.0,0.0,0.0,0.0,0.0,0.0,0.0,0.0,0.0,0.0,0.0,0.0,0.0,0.0,0.0,0.0,0.0,0.0,0.0,0.0,0.0,0.0,0.0,0.0,0.0,0.0,0.0,0.0,0.0,0.0,0.0,0.0,0.0,0.0,0.0,0.0,0.0,0.0,0.0,0.0,0.0,0.0,0.0,0.0,0.0,0.0,0.0,0.0,0.0,0.0,0.0,0.0,0.0,0.0,0.0,0.0,0.0,0.0,0.0,0.0,0.0,0.0,0.0,0.0,0.0,0.0,0.0,0.0,0.0,0.0,0.0,0.0,0.0,0.0,0.0,0.0,0.0,0.0,0.0,0.0,0.0,0.0,0.0,0.0,0.0,0.0,0.0,0.0,0.0,0.0,0.0,0.0,0.0,0.0,0.0,0.0,0.0,0.0,0.0,0.0,0.0,0.0,0.0,0.0,0.0,0.0,0.0,0.0,0.0,0.0,0.0,0.0,0.0,0.0,0.0,0.0,0.0,0.0,0.0,0.0,0.0,0.0,0.0,0.0,0.0,0.0,0.0,0.0,0.0,0.0,0.0,0.0,0.0,0.0,0.0,0.0,0.0,0.0,0.0,0.0,0.0,0.0,0.0,0.0,0.0,0.0,0.0,0.0,0.0,0.0,0.0,0.0,0.0,0.0,0.0,0.0,0.0,0.0,0.0,0.0,0.0,0.0,0.0,0.0,0.0,0.0,0.0,0.0,0.0,0.0,0.0,0.0,0.0,0.0,0.0,0.0,0.0,0.0,0.0,0.0,0.0,0.0,0.0,0.0,0.0,0.0,0.0,0.0,0.0,0.0,0.0,0.0,0.0,0.0,0.0,0.0,0.0,0.0,0.0,0.0,0.0,0.0,0.0,0.0,0.0,0.0,0.0,0.0,0.0,0.0,0.0,0.0,0.0,0.0,0.0,0.0,0.0,0.0,0.0,0.0,0.0,0.0,0.0,0.0,0.0,0.0,0.0,0.0,0.0,0.0,0.0,0.0,0.0,0.0,0.0,0.0,0.0,0.0,0.0,0.0,0.0,0.0,0.0,0.0,0.0,0.0,0.0,0.0,0.0,0.0,0.0,0.0,0.0,0.0,0.0,0.0,0.0,0.0,0.0,0.0,0.0,0.0,0.0,0.0,0.0,0.0,0.0,0.0,0.0,0.0,0.0,0.0,0.0,0.0,0.0,0.0,0.0,0.0,0.0,0.0,0.0,0.0,0.0,0.0,0.0,0.0,0.0,0.0,0.0,0.0,0.0,0.0,0.0,0.0,0.0,0.0,0.0,0.0,0.0,0.0,0.0,0.0,0.0,0.0,0.0,0.0,0.0,0.0,0.0,0.0,0.0,0.0,0.0,0.0,0.0,0.0,0.0,0.0,0.0,0.0,0.0,0.0,0.0,0.0,0.0,0.0,0.0,0.0,0.0,0.0,0.0,0.0,0.0,0.0,0.0,0.0,0.0,0.0,0.0,0.0,0.0,0.0,0.0,0.0,0.0,0.0,0.0,0.0,0.0,0.0,0.0,0.0,0.0,0.0,0.0,0.0,0.0,0.0,0.0,0.0,0.0,0.0,0.0,0.0,0.0,0.0,0.0,0.0,0.0,0.0,0.0,0.0,0.0,0.0,0.0,0.0,0.0,0.0,0.0,0.0,0.0,0.0,0.0,0.0,0.0,0.0,0.0,0.0,0.0,0.0,0.0,0.0,0.0,0.0,0.0,0.0,0.0,0.0,0.0,0.0,0.0,0.0,0.0,0.0,0.0,0.0,0.0,0.0,0.0,0.0,0.0,0.0,0.0,0.0,0.0,0.0,0.0,0.0,0.0,0.0,0.0,0.0,0.0,0.0,0.0,0.0,0.0,0.0,0.0,0.0,0.0,0.0,0.0,0.0,0.0,0.0,0.0,0.0,0.0,0.0,0.0,0.0,0.0,0.0,0.0,0.0,0.0,0.0,0.0,0.0,0.0,0.0,0.0,0.0,0.0,0.0,0.0,0.0,0.0,0.0,0.0,0.0,0.0,0.0,0.0,0.0,0.0,0.0,0.0,0.0,0.0,0.0,0.0,0.0,0.0,0.0,0.0,0.0,0.0,0.0,0.0,0.0,0.0,0.0,0.0,0.0,0.0,0.0,0.0,0.0,0.0,0.0,0.0,0.0,0.0,0.0,0.0,0.0,0.0,0.0,0.0,0.0,0.0,0.0,0.0,0.0,0.0,0.0,0.0,0.0,0.0,0.0,0.0,0.0,0.0,0.0,0.0,0.0,0.0,0.0,0.0,0.0,0.0,0.0,0.0,0.0,0.0,0.0,0.0,0.0,0.0,0.0,0.0,0.0,0.0,0.0,0.0,0.0,0.0,0.0,0.0,0.0,0.0,0.0,0.0,0.0,0.0,0.0,0.0,0.0,0.0,0.0,0.0,0.0,0.0,0.0,0.0,0.0,0.0,0.0,0.0,0.0,0.0,0.0,0.0,0.0,0.0,0.0,0.0,0.0,0.0,0.0,0.0,0.0,0.0,0.0,0.0,0.0,0.0,0.0,0.0,0.0,0.0,0.0,0.0,0.0,0.0,0.0,0.0,0.0,0.0,0.0,0.0,0.0,0.0,0.0,0.0,0.0,0.0,0.0,0.0,0.0,0.0,0.0,0.0,0.0,0.0,0.0,0.0,0.0,0.0,0.0,0.0,0.0,0.0,0.0,0.0,0.0,0.0,0.0,0.0,0.0,0.0,0.0,0.0,0.0,0.0,0.0,0.0,0.0,0.0,0.0,0.0,0.0,0.0,0.0,0.0,0.0,0.0,0.0,0.0,0.0,0.0,0.0,0.0,0.0,0.0,0.0,0.0,0.0,0.0,0.0,0.0,0.0,0.0,0.0,0.0,0.0,0.0,0.0,0.0,0.0,0.0,0.0,0.0,0.0,0.0,0.0,0.0,0.0,0.0,0.0,0.0,0.0,0.0,0.0,0.0,0.0,0.0,0.0,0.0,0.0,0.0,0.0,0.0,0.0,0.0,0.0,0.0,0.0,0.0,0.0,0.0,0.0,0.0,0.0,0.0,0.0,0.0,0.0,0.0,0.0,0.0,0.0,0.0,-1.5844,0.0,0.0,0.0,0.0,0.0,0.0,0.0,0.0,0.0,0.0,0.0,0.0,0.0,0.0,0.0,0.0,0.0,0.0,0.0,0.0,0.0,0.0,0.0,0.0,0.0,0.0,0.0,0.0,0.0,0.0,0.0,0.0,0.0,0.0,0.0,0.0,0.0,0.0,0.0,0.0,0.0,0.0,0.0,0.0,0.0,0.0,0.0,0.0,0.0,0.0,0.0,0.0,0.0,0.0,0.0,0.0,0.0,0.0,0.0,0.0,0.0,0.0,0.0,0.0,0.0,0.0,0.0,0.0,0.0,0.0,0.0,0.0,0.0,0.0,0.0,0.0,0.0,0.0,0.0,0.0,0.0,0.0,0.0,0.0,0.0,0.0,0.0,0.0,0.0,0.0,0.0,0.0,0.0,0.0,0.0,0.0,0.0,0.0,0.0,0.0,0.0,0.0,0.0,0.0,0.0,0.0,0.0,0.0,0.0,0.0,-1.8747,-1.7743,-1.7699,-1.7101,-1.5873,0.0,0.0,0.0,0.0,0.0,0.0,0.0,0.0,0.0,0.0,0.0,0.0,0.0,0.0,0.0,0.0,0.0,0.0,0.0,0.0,0.0,0.0,0.0,0.0,0.0,0.0,0.0,0.0,0.0,0.0,0.0,0.0,0.0,0.0,0.0,0.0,0.0,0.0,0.0,0.0,0.0,0.0,0.0,0.0,0.0,0.0,0.0,0.0,0.0,0.0,0.0,0.0,0.0,0.0,0.0,0.0,0.0,0.0,0.0,0.0,0.0,0.0,0.0,0.0,0.0,0.0,0.0,0.0,0.0,0.0,0.0,0.0,0.0,0.0,0.0,0.0,0.0,0.0,0.0,0.0,0.0,0.0,0.0,0.0,0.0,0.0,0.0,0.0,0.0,0.0,0.0,0.0,0.0,0.0,0.0,0.0,0.0,0.0,0.0,0.0,0.0,0.0,0.0,0.0,0.0,0.0,0.0,0.0,0.0,0.0,0.0,0.0,-1.8311,-1.7773,-1.6533,0.0,0.0,0.0,0.0,0.0,0.0,0.0,0.0,0.0,0.0,0.0,0.0,0.0,0.0,0.0,0.0,0.0,0.0,0.0,0.0,0.0,0.0,0.0,0.0,0.0,0.0,0.0,0.0,0.0,0.0,0.0,0.0,0.0,0.0,0.0,0.0,0.0,0.0,0.0,0.0,0.0,0.0,0.0,0.0,0.0,0.0,0.0,0.0,0.0,0.0,0.0,0.0,0.0,0.0,0.0,0.0,0.0,0.0,0.0,0.0,0.0,0.0,0.0,0.0,0.0,0.0,0.0,0.0,0.0,0.0,0.0,0.0,0.0,0.0,0.0,0.0,0.0,0.0,0.0,0.0,0.0,0.0,0.0,0.0,0.0,0.0,0.0,0.0,0.0,0.0,0.0,0.0,0.0,0.0,0.0,0.0,0.0,0.0,0.0,0.0,0.0,0.0,0.0,0.0,0.0,0.0,0.0,0.0,0.0,0.0,-1.9648,-1.9525,-2.0094,0.0,-1.8568,0.0,0.0,0.0,0.0,0.0,0.0,0.0,0.0,0.0,0.0,0.0,0.0,0.0,0.0,0.0,0.0,0.0,0.0,0.0,0.0,0.0,0.0,0.0,0.0,0.0,0.0,0.0,0.0,0.0,0.0,0.0,0.0,0.0,0.0,0.0,0.0,0.0,0.0,0.0,0.0,0.0,0.0,0.0,0.0,0.0,0.0,0.0,0.0,0.0,0.0,0.0,0.0,0.0,0.0,0.0,0.0,0.0,0.0,0.0,0.0,0.0,0.0,0.0,0.0,0.0,0.0,0.0,0.0,0.0,0.0,0.0,0.0,0.0,0.0,0.0,0.0,0.0,0.0,0.0,0.0,0.0,0.0,0.0,0.0,0.0,0.0,0.0,0.0,0.0,0.0,0.0,0.0,0.0,0.0,0.0,0.0,0.0,0.0,0.0,0.0,0.0,0.0,0.0,0.0,0.0,0.0,0.0,0.0,0.0,0.0,-2.0692,-2.0318,-1.9794,-1.9271,0.0,0.0,0.0,0.0,0.0,0.0,0.0,0.0,0.0,0.0,0.0,0.0,0.0,0.0,0.0,0.0,0.0,0.0,0.0,0.0,0.0,0.0,0.0,0.0,0.0,0.0,0.0,0.0,0.0,0.0,0.0,0.0,0.0,0.0,0.0,0.0,0.0,0.0,0.0,0.0,0.0,0.0,0.0,0.0,0.0,0.0,0.0,0.0,0.0,0.0,0.0,0.0,0.0,0.0,0.0,0.0,0.0,0.0,0.0,0.0,0.0,0.0,0.0,0.0,0.0,0.0,0.0,0.0,0.0,0.0,0.0,0.0,0.0,0.0,0.0,0.0,0.0,0.0,0.0,0.0,0.0,0.0,0.0,0.0,0.0,0.0,0.0,0.0,0.0,0.0,0.0,0.0,0.0,0.0,0.0,0.0,0.0,0.0,0.0,0.0,0.0,0.0,0.0,0.0,0.0,0.0,0.0,0.0,0.0,0.0,-2.1485,0.0,-2.1216,-2.0124,-1.9271,-1.8732,0.0,0.0,0.0,0.0,0.0,0.0,0.0,0.0,0.0,0.0,0.0,0.0,0.0,0.0,0.0,0.0,0.0,0.0,0.0,0.0,0.0,0.0,0.0,0.0,0.0,0.0,0.0,0.0,0.0,0.0,0.0,0.0,0.0,0.0,0.0,0.0,0.0,0.0,0.0,0.0,0.0,0.0,0.0,0.0,0.0,0.0,0.0,0.0,0.0,0.0,0.0,0.0,0.0,0.0,0.0,0.0,0.0,0.0,0.0,0.0,0.0,0.0,0.0,0.0,0.0,0.0,0.0,0.0,0.0,0.0,0.0,0.0,0.0,0.0,0.0,0.0,0.0,0.0,0.0,0.0,0.0,0.0,0.0,0.0,0.0,0.0,0.0,0.0,0.0,0.0,0.0,0.0,0.0,0.0,0.0,0.0,0.0,0.0,0.0,0.0,0.0,0.0,0.0,0.0,0.0,0.0,0.0,0.0,0.0,-2.2592,-2.1999,-2.2583,-2.1919,-2.0677,0.0,0.0,0.0,0.0,0.0,0.0,0.0,0.0,0.0,0.0,0.0,0.0,0.0,0.0,0.0,0.0,0.0,0.0,0.0,0.0,0.0,0.0,0.0,0.0,0.0,0.0,0.0,0.0,0.0,0.0,0.0,0.0,0.0,0.0,0.0,0.0,0.0,0.0,0.0,0.0,0.0,0.0,0.0,0.0,0.0,0.0,0.0,0.0,0.0,0.0,0.0,0.0,0.0,0.0,0.0,0.0,0.0,0.0,0.0,0.0,0.0,0.0,0.0,0.0,0.0,0.0,0.0,0.0,0.0,0.0,0.0,0.0,0.0,0.0,0.0,0.0,0.0,0.0,0.0,0.0,0.0,0.0,0.0,0.0,0.0,0.0,0.0,0.0,0.0,0.0,0.0,0.0,0.0,0.0,0.0,0.0,0.0,0.0,0.0,0.0,0.0,0.0,0.0,0.0,0.0,0.0,0.0,0.0,0.0,-2.138,-2.1166,-2.2203,-2.4328,-2.1485,-2.0049,0.0,0.0,0.0,0.0,0.0,0.0,0.0,0.0,0.0,0.0,0.0,0.0,0.0,0.0,0.0,0.0,0.0,0.0,0.0,0.0,0.0,0.0,0.0,0.0,0.0,0.0,0.0,0.0,0.0,0.0,0.0,0.0,0.0,0.0,0.0,0.0,0.0,0.0,0.0,0.0,0.0,0.0,0.0,0.0,0.0,0.0,0.0,0.0,0.0,0.0,0.0,0.0,0.0,0.0,0.0,0.0,0.0,0.0,0.0,0.0,0.0,0.0,0.0,0.0,0.0,0.0,0.0,0.0,0.0,0.0,0.0,0.0,0.0,0.0,0.0,0.0,0.0,0.0,0.0,0.0,0.0,0.0,0.0,0.0,0.0,0.0,0.0,0.0,0.0,0.0,0.0,0.0,0.0,0.0,0.0,0.0,0.0,0.0,0.0,0.0,0.0,0.0,0.0,0.0,0.0,0.0,0.0,0.0,0.0,-2.0946,0.0,-2.3191,0.0,-2.1335,-1.972,0.0,0.0,0.0,0.0,0.0,0.0,0.0,0.0,0.0,0.0,0.0,0.0,0.0,0.0,0.0,0.0,0.0,0.0,0.0,0.0,0.0,0.0,0.0,0.0,0.0,0.0,0.0,0.0,0.0,0.0,0.0,0.0,0.0,0.0,0.0,0.0,0.0,0.0,0.0,0.0,0.0,0.0,0.0,0.0,0.0,0.0,0.0,0.0,0.0,0.0,0.0,0.0,0.0,0.0,0.0,0.0,0.0,0.0,0.0,0.0,0.0,0.0,0.0,0.0,0.0,0.0,0.0,0.0,0.0,0.0,0.0,0.0,0.0,0.0,0.0,0.0,0.0,0.0,0.0,0.0,0.0,0.0,0.0,0.0,0.0,0.0,0.0,0.0,0.0,0.0,0.0,0.0,0.0,0.0,0.0,0.0,0.0,0.0,0.0,0.0,0.0,0.0,0.0,0.0,0.0,0.0,0.0,0.0,-2.1026,-2.346,-2.5398,-2.4881,-2.1919,-2.1665,-1.9828,0.0,0.0,0.0,0.0,0.0,0.0,0.0,0.0,0.0,0.0,0.0,0.0,0.0,0.0,0.0,0.0,0.0,0.0,0.0,0.0,0.0,0.0,0.0,0.0,0.0,0.0,0.0,0.0,0.0,0.0,0.0,0.0,0.0,0.0,0.0,0.0,0.0,0.0,0.0,0.0,0.0,0.0,0.0,0.0,0.0,0.0,0.0,0.0,0.0,0.0,0.0,0.0,0.0,0.0,0.0,0.0,0.0,0.0,0.0,0.0,0.0,0.0,0.0,0.0,0.0,0.0,0.0,0.0,0.0,0.0,0.0,0.0,0.0,0.0,0.0,0.0,0.0,0.0,0.0,0.0,0.0,0.0,0.0,0.0,0.0,0.0,0.0,0.0,0.0,0.0,0.0,0.0,0.0,0.0,0.0,0.0,0.0,0.0,0.0,0.0,0.0,0.0,0.0,0.0,0.0,0.0,0.0,0.0,0.0,-2.2338,-2.3744,-2.4702,-2.4926,-2.153,-1.9932,0.0,0.0,0.0,0.0,0.0,0.0,0.0,0.0,0.0,0.0,0.0,0.0,0.0,0.0,0.0,0.0,0.0,0.0,0.0,0.0,0.0,0.0,0.0,0.0,0.0,0.0,0.0,0.0,0.0,0.0,0.0,0.0,0.0,0.0,0.0,0.0,0.0,0.0,0.0,0.0,0.0,0.0,0.0,0.0,0.0,0.0,0.0,0.0,0.0,0.0,0.0,0.0,0.0,0.0,0.0,0.0,0.0,0.0,0.0,0.0,0.0,0.0,0.0,0.0,0.0,0.0,0.0,0.0,0.0,0.0,0.0,0.0,0.0,0.0,0.0,0.0,0.0,0.0,0.0,0.0,0.0,0.0,0.0,0.0,0.0,0.0,0.0,0.0,0.0,0.0,0.0,0.0,0.0,0.0,0.0,0.0,0.0,0.0,0.0,0.0,0.0,0.0,0.0,0.0,0.0,0.0,0.0,0.0,0.0,-2.4373,-2.5525,-2.6288,-2.6587,-2.2652,-2.0722,-2.11,0.0,0.0,0.0,0.0,0.0,0.0,0.0,0.0,0.0,0.0,0.0,0.0,0.0,0.0,0.0,0.0,0.0,0.0,0.0,0.0,0.0,0.0,0.0,0.0,0.0,0.0,0.0,0.0,0.0,0.0,0.0,0.0,0.0,0.0,0.0,0.0,0.0,0.0,0.0,0.0,0.0,0.0,0.0,0.0,0.0,0.0,0.0,0.0,0.0,0.0,0.0,0.0,0.0,0.0,0.0,0.0,0.0,0.0,0.0,0.0,0.0,0.0,0.0,0.0,0.0,0.0,0.0,0.0,0.0,0.0,0.0,0.0,0.0,0.0,0.0,0.0,0.0,0.0,0.0,0.0,0.0,0.0,0.0,0.0,0.0,0.0,0.0,0.0,0.0,0.0,0.0,0.0,0.0,0.0,0.0,0.0,0.0,0.0,0.0,0.0,0.0,0.0,0.0,0.0,0.0,0.0,0.0,0.0,-2.8727,-3.0043,-2.9505,-2.7036,-2.4837,-2.2248,0.0,0.0,0.0,0.0,0.0,0.0,0.0,0.0,0.0,0.0,0.0,0.0,0.0,0.0,0.0,0.0,0.0,0.0,0.0,0.0,0.0,0.0,0.0,0.0,0.0,0.0,0.0,0.0,0.0,0.0,0.0,0.0,0.0,0.0,0.0,0.0,0.0,0.0,0.0,0.0,0.0,0.0,0.0,0.0,0.0,0.0,0.0,0.0,0.0,0.0,0.0,0.0,0.0,0.0,0.0,0.0,0.0,0.0,0.0,0.0,0.0,0.0,0.0,0.0,0.0,0.0,0.0,0.0,0.0,0.0,0.0,0.0,0.0,0.0,0.0,0.0,0.0,0.0,0.0,0.0,0.0,0.0,0.0,0.0,0.0,0.0,0.0,0.0,0.0,0.0,0.0,0.0,0.0,0.0,0.0,0.0,0.0,0.0,0.0,0.0,0.0,0.0,0.0,0.0,0.0,0.0,0.0,0.0,0.0,-3.0718,-3.2512,-3.2647,-3.0941,-2.7141,-2.4268,0.0,0.0,0.0,0.0,0.0,0.0,0.0,0.0,0.0,0.0,0.0,0.0,0.0,0.0,0.0,0.0,0.0,0.0,0.0,0.0,0.0,0.0,0.0,0.0,0.0,0.0,0.0,0.0,0.0,0.0,0.0,0.0,0.0,0.0,0.0,0.0,0.0,0.0,0.0,0.0,0.0,0.0,0.0,0.0,0.0,0.0,0.0,0.0,0.0,0.0,0.0,0.0,0.0,0.0,0.0,0.0,0.0,0.0,0.0,0.0,0.0,0.0,0.0,0.0,0.0,0.0,0.0,0.0,0.0,0.0,0.0,0.0,0.0,0.0,0.0,0.0,0.0,0.0,0.0,0.0,0.0,0.0,0.0,0.0,0.0,0.0,0.0,0.0,0.0,0.0,0.0,0.0,0.0,0.0,0.0,0.0,0.0,0.0,0.0,0.0,0.0,0.0,0.0,0.0,0.0,0.0,0.0,0.0,-3.0238,-3.2706,-3.4283,-3.4589,-3.3559,-2.9354,-2.6057,0.0,0.0,0.0,0.0,0.0,0.0,0.0,0.0,0.0,0.0,0.0,0.0,0.0,0.0,0.0,0.0,0.0,0.0,0.0,0.0,0.0,0.0,0.0,0.0,0.0,0.0,0.0,0.0,0.0,0.0,0.0,0.0,0.0,0.0,0.0,0.0,0.0,0.0,0.0,0.0,0.0,0.0,0.0,0.0,0.0,0.0,0.0,0.0,0.0,0.0,0.0,0.0,0.0,0.0,0.0,0.0,0.0,0.0,0.0,0.0,0.0,0.0,0.0,0.0,0.0,0.0,0.0,0.0,0.0,0.0,0.0,0.0,0.0,0.0,0.0,0.0,0.0,0.0,0.0,0.0,0.0,0.0,0.0,0.0,0.0,0.0,0.0,0.0,0.0,0.0,0.0,0.0,0.0,0.0,0.0,0.0,0.0,0.0,0.0,0.0,0.0,0.0,0.0,0.0,0.0,0.0,0.0,0.0,-3.1349,-3.4375,-3.5357,-3.5547,-3.4852,-3.1197,-2.7512,0.0,0.0,0.0,0.0,0.0,0.0,0.0,0.0,0.0,0.0,0.0,0.0,0.0,0.0,0.0,0.0,0.0,0.0,0.0,0.0,0.0,0.0,0.0,0.0,0.0,0.0,0.0,0.0,0.0,0.0,0.0,0.0,0.0,0.0,0.0,0.0,0.0,0.0,0.0,0.0,0.0,0.0,0.0,0.0,0.0,0.0,0.0,0.0,0.0,0.0,0.0,0.0,0.0,0.0,0.0,0.0,0.0,0.0,0.0,0.0,0.0,0.0,0.0,0.0,0.0,0.0,0.0,0.0,0.0,0.0,0.0,0.0,0.0,0.0,0.0,0.0,0.0,0.0,0.0,0.0,0.0,0.0,0.0,0.0,0.0,0.0,0.0,0.0,0.0,0.0,0.0,0.0,0.0,0.0,0.0,0.0,0.0,0.0,0.0,0.0,0.0,0.0,0.0,0.0,0.0,0.0,0.0,0.0,-3.2251,-3.3979,-3.4947,-3.5109,-3.4543,-3.1292,-2.7913,0.0,0.0,0.0,0.0,0.0,0.0,0.0,0.0,0.0,0.0,0.0,0.0,0.0,0.0,0.0,0.0,0.0,0.0,0.0,0.0,0.0,0.0,0.0,0.0,0.0,0.0,0.0,0.0,0.0,0.0,0.0,0.0,0.0,0.0,0.0,0.0,0.0,0.0,0.0,0.0,0.0,0.0,0.0,0.0,0.0,0.0,0.0,0.0,-0.9764,0.0,0.0,0.0,0.0,0.0,0.0,0.0,0.0,0.0,0.0,0.0,0.0,0.0,0.0,0.0,0.0,0.0,0.0,0.0,0.0,0.0,0.0,0.0,0.0,0.0,0.0,0.0,0.0,0.0,0.0,0.0,0.0,0.0,0.0,0.0,0.0,0.0,0.0,0.0,0.0,0.0,0.0,0.0,0.0,0.0,0.0,0.0,0.0,0.0,0.0,0.0,0.0,0.0,0.0,0.0,0.0,0.0,0.0,0.0,-3.2715,-3.4765,-3.4944,-3.4601,-3.3682,-3.116,-2.8079,0.0,0.0,0.0,0.0,0.0,0.0,0.0,0.0,0.0,0.0,0.0,0.0,0.0,0.0,0.0,0.0,0.0,0.0,0.0,0.0,0.0,0.0,0.0,0.0,0.0,0.0,0.0,0.0,0.0,0.0,0.0,0.0,0.0,0.0,0.0,0.0,0.0,0.0,0.0,0.0,0.0,0.0,0.0,0.0,0.0,0.0,0.0,0.0,0.0,0.0,0.0,0.0,0.0,0.0,0.0,0.0,0.0,0.0,0.0,0.0,0.0,0.0,0.0,0.0,0.0,0.0,0.0,0.0,0.0,0.0,0.0,0.0,0.0,0.0,0.0,0.0,0.0,0.0,0.0,0.0,0.0,0.0,0.0,0.0,0.0,0.0,0.0,0.0,0.0,0.0,0.0,0.0,0.0,0.0,0.0,0.0,0.0,0.0,0.0,0.0,0.0,0.0,0.0,0.0,0.0,0.0,0.0,-3.0576,-3.268,-3.5396,-3.482,-3.3919,-3.2778,-3.0841,-2.8127,-2.4638,0.0,0.0,0.0,0.0,0.0,0.0,0.0,0.0,0.0,0.0,0.0,0.0,0.0,0.0,0.0,0.0,0.0,0.0,0.0,0.0,0.0,0.0,0.0,0.0,0.0,0.0,0.0,0.0,0.0,0.0,0.0,0.0,0.0,0.0,0.0,0.0,0.0,0.0,-1.1143,-1.2295,0.0,0.0,0.0,0.0,0.0,0.0,0.0,0.0,-0.8857,0.0,0.0,0.0,0.0,0.0,0.0,0.0,0.0,0.0,0.0,0.0,0.0,0.0,0.0,0.0,0.0,0.0,0.0,0.0,0.0,0.0,0.0,0.0,0.0,0.0,0.0,0.0,0.0,0.0,0.0,0.0,0.0,0.0,0.0,0.0,0.0,0.0,0.0,0.0,0.0,0.0,0.0,0.0,0.0,0.0,0.0,0.0,0.0,0.0,0.0,0.0,0.0,0.0,0.0,0.0,0.0,-3.1274,-3.0793,-3.1667,-3.3979,-3.3617,-3.2811,-3.1696,-3.0462,-2.7994,-2.4278,0.0,0.0,0.0,0.0,0.0,0.0,0.0,0.0,0.0,0.0,0.0,0.0,0.0,0.0,0.0,0.0,0.0,0.0,0.0,0.0,0.0,0.0,0.0,0.0,0.0,0.0,0.0,0.0,0.0,0.0,0.0,0.0,0.0,0.0,0.0,0.0,0.0,0.0,0.0,-1.3766,-1.4646,0.0,0.0,0.0,0.0,0.0,0.0,0.0,0.0,-0.8758,0.0,0.0,0.0,0.0,0.0,0.0,0.0,0.0,0.0,0.0,0.0,0.0,0.0,0.0,0.0,0.0,0.0,0.0,0.0,0.0,0.0,0.0,0.0,0.0,0.0,0.0,0.0,0.0,0.0,0.0,0.0,0.0,0.0,0.0,0.0,0.0,0.0,0.0,0.0,0.0,0.0,0.0,0.0,0.0,0.0,0.0,0.0,0.0,0.0,0.0,0.0,0.0,0.0,0.0,0.0,-3.0107,-3.0704,-3.1966,-3.4094,-3.35,-3.2583,-3.1411,-2.9779,-2.7507,0.0,0.0,0.0,0.0,0.0,0.0,0.0,0.0,0.0,0.0,0.0,0.0,0.0,0.0,0.0,0.0,0.0,0.0,0.0,0.0,0.0,0.0,0.0,0.0,0.0,0.0,0.0,0.0,0.0,0.0,0.0,0.0,0.0,0.0,0.0,0.0,0.0,0.0,0.0,0.0,-1.3983,-1.477,-1.568,0.0,0.0,0.0,0.0,0.0,0.0,-0.9577,-0.9124,0.0,0.0,0.0,0.0,0.0,0.0,0.0,0.0,0.0,0.0,0.0,0.0,0.0,0.0,0.0,0.0,0.0,0.0,0.0,0.0,0.0,0.0,0.0,0.0,0.0,0.0,0.0,0.0,0.0,0.0,0.0,0.0,0.0,0.0,0.0,0.0,0.0,0.0,0.0,0.0,0.0,0.0,0.0,0.0,0.0,0.0,0.0,0.0,0.0,0.0,0.0,0.0,0.0,0.0,0.0,-2.8588,-3.0386,-3.2288,-3.4238,-3.3556,-3.2583,-3.1399,-2.9478,-2.7256,0.0,0.0,0.0,0.0,0.0,0.0,0.0,0.0,0.0,0.0,0.0,0.0,0.0,0.0,0.0,0.0,0.0,0.0,0.0,0.0,0.0,0.0,0.0,0.0,0.0,0.0,0.0,0.0,0.0,0.0,0.0,0.0,0.0,0.0,0.0,0.0,0.0,0.0,0.0,0.0,0.0,-1.4841,-1.5211,-1.4497,0.0,0.0,0.0,0.0,-1.0657,-1.0223,0.0,0.0,0.0,0.0,0.0,0.0,0.0,0.0,0.0,0.0,0.0,0.0,0.0,0.0,0.0,0.0,0.0,0.0,0.0,0.0,0.0,0.0,0.0,0.0,0.0,0.0,0.0,0.0,0.0,0.0,0.0,0.0,0.0,0.0,0.0,0.0,0.0,0.0,0.0,0.0,0.0,0.0,0.0,0.0,0.0,0.0,0.0,0.0,0.0,0.0,0.0,0.0,0.0,0.0,0.0,0.0,-2.7518,-2.9681,-3.1587,-3.3199,-3.3154,-3.2528,-3.1411,-3.0231,-2.7871,0.0,0.0,0.0,0.0,0.0,0.0,0.0,0.0,0.0,0.0,0.0,0.0,0.0,0.0,0.0,0.0,0.0,0.0,0.0,0.0,0.0,0.0,0.0,0.0,0.0,0.0,0.0,0.0,0.0,0.0,0.0,0.0,0.0,0.0,0.0,0.0,0.0,0.0,0.0,0.0,0.0,-1.596,-1.3809,-1.4025,-1.3727,0.0,0.0,0.0,-1.2701,-1.1772,0.0,0.0,0.0,0.0,0.0,0.0,0.0,0.0,0.0,0.0,0.0,0.0,0.0,0.0,0.0,0.0,0.0,0.0,0.0,0.0,0.0,0.0,0.0,0.0,0.0,0.0,0.0,0.0,0.0,0.0,0.0,0.0,0.0,0.0,0.0,0.0,0.0,0.0,0.0,0.0,0.0,0.0,0.0,0.0,0.0,0.0,0.0,0.0,0.0,0.0,0.0,0.0,0.0,0.0,0.0,-2.4489,-2.6884,-2.9986,-3.2038,-3.3061,-3.3124,-3.2541,-3.1424,-2.9729,-2.7318,0.0,0.0,0.0,0.0,0.0,0.0,0.0,0.0,0.0,0.0,0.0,0.0,0.0,0.0,0.0,0.0,0.0,0.0,0.0,0.0,0.0,0.0,0.0,0.0,0.0,0.0,0.0,0.0,0.0,0.0,0.0,0.0,0.0,0.0,0.0,0.0,0.0,0.0,0.0,0.0,0.0,0.0,-1.5131,-1.4318,0.0,0.0,0.0,-1.3396,-1.3223,0.0,0.0,0.0,0.0,0.0,0.0,0.0,0.0,0.0,0.0,0.0,0.0,0.0,0.0,0.0,0.0,0.0,0.0,0.0,0.0,0.0,0.0,0.0,0.0,0.0,0.0,0.0,0.0,0.0,0.0,0.0,0.0,0.0,0.0,0.0,0.0,0.0,0.0,0.0,0.0,0.0,0.0,0.0,0.0,0.0,0.0,0.0,0.0,0.0,0.0,0.0,0.0,0.0,0.0,0.0,0.0,0.0,-2.6524,-3.0394,-3.2641,-3.3099,-3.3124,-3.2528,-3.1399,-2.9528,0.0,0.0,0.0,0.0,0.0,0.0,0.0,0.0,0.0,0.0,0.0,0.0,0.0,0.0,0.0,0.0,0.0,0.0,0.0,0.0,0.0,0.0,0.0,0.0,0.0,0.0,0.0,-0.8437,0.0,0.0,0.0,0.0,0.0,0.0,0.0,0.0,0.0,0.0,0.0,0.0,0.0,0.0,-1.5222,-1.5998,-1.4908,-1.3253,0.0,0.0,-1.4921,-1.381,-1.3165,-1.2203,0.0,0.0,0.0,0.0,0.0,0.0,0.0,0.0,0.0,0.0,0.0,0.0,0.0,0.0,0.0,0.0,0.0,0.0,0.0,0.0,0.0,0.0,0.0,0.0,0.0,0.0,0.0,0.0,0.0,0.0,0.0,0.0,0.0,0.0,0.0,0.0,0.0,0.0,0.0,0.0,0.0,0.0,0.0,0.0,0.0,0.0,0.0,0.0,0.0,0.0,0.0,0.0,0.0,0.0,0.0,-2.66,-3.0823,-3.3086,-3.3124,-3.3124,-3.2541,-3.1411,-3.0269,-2.7632,0.0,0.0,0.0,0.0,0.0,0.0,0.0,0.0,0.0,0.0,0.0,0.0,0.0,0.0,0.0,0.0,0.0,0.0,0.0,0.0,0.0,0.0,0.0,0.0,0.0,0.0,0.0,0.0,0.0,0.0,0.0,0.0,0.0,0.0,0.0,0.0,0.0,0.0,0.0,0.0,0.0,-1.5469,-1.5079,-1.5731,-1.5497,0.0,0.0,-1.6019,-1.4959,-1.4324,-1.3212,-1.1008,0.0,0.0,0.0,0.0,0.0,0.0,0.0,0.0,0.0,0.0,0.0,0.0,0.0,0.0,0.0,0.0,0.0,0.0,0.0,0.0,0.0,0.0,0.0,0.0,0.0,0.0,0.0,0.0,0.0,0.0,0.0,0.0,0.0,0.0,0.0,0.0,0.0,0.0,0.0,0.0,0.0,0.0,0.0,0.0,0.0,0.0,0.0,0.0,0.0,0.0,0.0,0.0,0.0,-2.536,-2.6524,-3.0861,-3.3124,-3.3124,-3.3124,-3.2747,-3.1913,-3.052,-2.8021,0.0,0.0,0.0,0.0,0.0,0.0,0.0,0.0,0.0,0.0,0.0,0.0,0.0,0.0,0.0,0.0,0.0,0.0,0.0,0.0,0.0,0.0,0.0,0.0,0.0,0.0,0.0,0.0,-1.0535,-1.0283,-0.9378,0.0,0.0,0.0,0.0,0.0,0.0,0.0,0.0,0.0,0.0,-1.6132,-1.5919,-1.6245,0.0,0.0,-1.5948,-1.635,-1.5957,-1.4582,-1.3127,-1.1936,-1.0721,0.0,0.0,0.0,0.0,0.0,0.0,0.0,0.0,0.0,0.0,0.0,0.0,0.0,0.0,0.0,0.0,0.0,0.0,0.0,0.0,0.0,0.0,0.0,0.0,0.0,0.0,0.0,0.0,0.0,0.0,0.0,0.0,0.0,0.0,0.0,0.0,0.0,0.0,0.0,0.0,0.0,0.0,0.0,0.0,0.0,0.0,0.0,0.0,0.0,0.0,0.0,0.0,-2.5435,-2.6751,-3.0949,-3.3124,-3.3124,-3.3124,-3.2805,-3.2202,-3.0796,-2.8473,0.0,0.0,0.0,0.0,0.0,0.0,0.0,0.0,0.0,0.0,0.0,0.0,0.0,0.0,0.0,0.0,0.0,0.0,0.0,0.0,0.0,0.0,0.0,0.0,0.0,0.0,0.0,0.0,-1.1603,-1.1163,-1.0031,0.0,0.0,0.0,0.0,0.0,0.0,0.0,0.0,0.0,0.0,-1.6635,-1.6951,-1.6735,-1.6513,-1.6513,-1.6233,-1.6032,-1.6032,-1.4707,-1.3403,-1.2538,0.0,0.0,0.0,0.0,0.0,0.0,0.0,0.0,0.0,0.0,0.0,0.0,0.0,0.0,0.0,0.0,0.0,0.0,0.0,0.0,0.0,0.0,0.0,0.0,0.0,0.0,0.0,0.0,0.0,0.0,0.0,0.0,0.0,0.0,0.0,0.0,0.0,0.0,0.0,0.0,0.0,0.0,0.0,0.0,0.0,0.0,0.0,0.0,0.0,0.0,0.0,0.0,0.0,0.0,-2.7316,-3.1125,-3.3124,-3.3124,-3.3124,-3.2792,-3.2215,-3.112,-2.9013,-2.5624,0.0,0.0,0.0,0.0,0.0,0.0,0.0,0.0,0.0,0.0,0.0,0.0,0.0,0.0,0.0,0.0,0.0,0.0,0.0,0.0,0.0,0.0,0.0,0.0,0.0,0.0,-1.1676,-1.1615,-1.1201,0.0,0.0,0.0,0.0,0.0,0.0,0.0,0.0,0.0,0.0,-1.617,-1.6901,-1.8003,-1.7237,-1.655,-1.6513,-1.563,-1.4959,-1.4972,-1.4871,-1.4305,0.0,0.0,0.0,0.0,0.0,0.0,0.0,0.0,0.0,0.0,0.0,0.0,0.0,0.0,0.0,0.0,0.0,0.0,0.0,0.0,0.0,0.0,0.0,0.0,0.0,0.0,0.0,0.0,0.0,0.0,0.0,0.0,0.0,0.0,0.0,0.0,0.0,0.0,0.0,0.0,-2.7871,-2.9126,0.0,0.0,0.0,0.0,0.0,0.0,0.0,0.0,0.0,0.0,0.0,0.0,-2.5975,-2.7394,-3.115,-3.3124,-3.3124,-3.3124,-3.2805,-3.2227,-3.1145,-2.8487,-2.4061,0.0,0.0,0.0,0.0,0.0,0.0,0.0,0.0,0.0,0.0,0.0,0.0,0.0,0.0,0.0,0.0,0.0,0.0,0.0,0.0,0.0,0.0,0.0,0.0,0.0,-1.2864,0.0,0.0,0.0,0.0,0.0,0.0,0.0,0.0,0.0,0.0,0.0,-1.5354,-1.6669,-1.7601,-1.8243,-1.8505,-1.8016,-1.7353,0.0,0.0,0.0,0.0,0.0,0.0,0.0,0.0,0.0,0.0,0.0,0.0,0.0,0.0,-1.0756,-1.0031,-0.9602,-0.9294,-0.9002,0.0,0.0,0.0,0.0,0.0,0.0,0.0,0.0,0.0,0.0,0.0,0.0,0.0,0.0,0.0,0.0,-2.7982,0.0,0.0,0.0,0.0,0.0,0.0,0.0,0.0,-2.9465,-3.0495,-3.0668,-3.1964,-3.17,0.0,-2.9754,-2.7795,0.0,0.0,0.0,0.0,0.0,0.0,0.0,0.0,-2.654,-2.7934,-3.1298,-3.3124,-3.3124,-3.3124,-3.2805,-3.2202,-3.0796,-2.8235,-2.4418,-2.2334,-2.0413,0.0,0.0,0.0,0.0,0.0,0.0,0.0,0.0,0.0,0.0,0.0,0.0,0.0,0.0,0.0,0.0,0.0,0.0,0.0,0.0,0.0,0.0,0.0,-1.3521,0.0,0.0,0.0,0.0,0.0,0.0,0.0,0.0,0.0,-1.4689,-1.5613,-1.6719,-1.7815,-1.8568,-1.902,-1.9083,0.0,0.0,0.0,0.0,0.0,0.0,0.0,-1.4984,-1.5148,-1.428,-1.3529,-1.3521,-1.2467,-1.1989,-1.2998,0.0,0.0,-1.1309,-1.1046,-1.0941,-1.0677,-1.1014,-1.1181,-1.0614,-1.1398,-1.1923,0.0,0.0,0.0,0.0,0.0,0.0,0.0,0.0,-3.17,-3.1662,0.0,0.0,0.0,0.0,0.0,0.0,0.0,0.0,0.0,0.0,-3.3339,-3.4449,-3.401,-3.4525,-3.4487,-3.3972,-3.3834,-3.2453,-2.9729,-2.5502,0.0,0.0,0.0,0.0,0.0,0.0,-2.7344,-2.8938,-3.1675,-3.3124,-3.3124,-3.3099,-3.2754,-3.2114,-3.0068,-2.8172,-2.6549,-2.4883,-2.3055,-2.083,-1.8655,0.0,0.0,0.0,0.0,0.0,0.0,0.0,0.0,0.0,0.0,0.0,0.0,0.0,0.0,0.0,0.0,0.0,0.0,0.0,0.0,-1.3752,0.0,0.0,0.0,0.0,0.0,0.0,0.0,0.0,0.0,0.0,-1.5994,-1.6823,-1.7852,-1.8907,0.0,0.0,0.0,0.0,-1.9032,-1.6939,-1.7528,-1.8254,-1.8242,-1.7252,-1.6337,-1.5869,0.0,0.0,-1.4362,-1.4588,-1.4544,-1.3504,-1.3386,-1.3273,-1.3156,-1.306,-1.3028,-1.2792,-1.2309,-1.2036,-1.1997,-1.2067,-1.2136,-3.7425,0.0,0.0,0.0,0.0,-3.443,-3.5491,-3.7287,-3.6897,-3.6069,-3.4926,-3.4223,0.0,0.0,0.0,0.0,0.0,0.0,-3.1311,-3.298,-3.4198,-3.5052,-3.5726,-3.6219,-3.5994,-3.5031,-3.4675,-3.3884,-3.2641,-3.0231,-2.6866,-2.2732,0.0,0.0,0.0,0.0,-2.8662,-2.9628,-3.1876,-3.3124,-3.3124,-3.2679,-3.2014,-3.1097,-2.9653,-2.8298,-2.7092,-2.6248,-2.4588,-2.197,-2.0515,0.0,0.0,0.0,0.0,0.0,0.0,0.0,0.0,0.0,0.0,0.0,0.0,0.0,0.0,0.0,0.0,0.0,0.0,0.0,-1.428,-1.4236,-1.4249,0.0,0.0,0.0,0.0,0.0,0.0,0.0,0.0,0.0,-1.9183,-1.9158,-1.9384,0.0,0.0,-2.01,-1.9836,-1.9798,-1.9572,-1.8945,0.0,0.0,0.0,-1.8103,-1.7212,-1.7451,-1.7162,-1.666,-1.5919,-1.5944,-1.5748,-1.492,-1.5209,-1.5083,-1.3536,-1.321,-1.3061,-1.2643,-1.2393,-1.2279,-1.232,-1.2841,-1.3203,-4.1769,-3.8956,-3.7374,-3.7086,-3.7688,-3.7575,-3.8467,-3.9998,-3.9659,-3.9082,-3.8266,-3.7489,-3.5717,-3.3156,-3.1964,0.0,0.0,0.0,-3.3721,-3.5228,-3.5768,-3.6257,-3.6744,-3.7023,-3.6722,-3.5868,-3.5303,-3.4831,-3.4525,-3.3093,-3.0369,-2.6527,0.0,0.0,-2.5502,-2.8161,-2.9867,-3.0482,-3.2177,-3.3124,-3.3111,-3.2303,-3.1474,-3.0593,-2.9754,-2.875,-2.7657,-2.7293,-2.5856,-2.3175,-2.1866,-1.9931,0.0,0.0,0.0,0.0,0.0,0.0,0.0,0.0,0.0,0.0,0.0,-1.1023,-1.3659,0.0,0.0,0.0,-1.3315,-1.4538,-1.5764,-1.5776,0.0,0.0,0.0,0.0,0.0,0.0,0.0,-2.1217,-2.0713,-2.0475,-2.1217,-2.1016,-2.0853,-2.1006,-2.1018,-2.083,-2.0299,0.0,-1.9798,-1.9798,-1.9798,-1.9798,-1.9786,-1.8819,-1.8078,-1.8179,-1.7762,-1.7287,-1.6936,-1.6685,-1.635,-1.6011,-1.6199,-1.6086,-1.4757,-1.4181,-1.3604,-1.2889,-1.2714,-1.271,-1.2726,-1.3216,-1.3532,-4.5246,-4.4493,-4.148,-4.0174,-4.0136,-4.0588,-4.0777,-4.0777,-4.0789,-4.1015,-4.1263,-4.0287,-3.8894,-3.7199,-3.5165,0.0,0.0,-3.6044,-3.6807,-3.7337,-3.7839,-3.7789,-3.7262,-3.7249,-3.6983,-3.638,-3.5855,-3.5558,-3.5508,-3.4487,-3.3181,-3.1637,-3.0055,-2.9176,-2.9026,-3.0116,-3.0972,-3.1449,-3.2528,-3.3074,-3.293,-3.1926,-3.1122,-3.0557,-3.0018,-2.9202,-2.8172,-2.8059,-2.6864,-2.4369,-2.2778,-2.0848,-1.8393,0.0,0.0,0.0,0.0,0.0,0.0,0.0,0.0,0.0,0.0,0.0,0.0,0.0,0.0,0.0,-1.5447,0.0,-1.7536,-1.7953,0.0,0.0,0.0,-1.5798,-1.4037,-1.7528,-2.0464,-2.1493,0.0,0.0,0.0,0.0,-2.2184,-2.1694,-2.1594,-2.1405,-2.0976,-2.0249,-1.9798,-1.9798,-1.9798,-1.9798,-1.9786,-1.9346,-1.8857,-1.8405,-1.784,-1.7574,-1.7373,-1.6886,-1.6559,-1.6463,-1.65,-1.6425,-1.6412,-1.5517,-1.4683,-1.3579,-1.3298,-1.3265,-1.3185,-1.3259,-1.3429,-4.6037,-4.5836,-4.5058,-4.4242,-4.3426,-4.3137,-4.3024,-4.3024,-4.3024,-4.2635,-4.1919,-4.1254,-4.0023,-3.8466,-3.7462,-3.7111,-3.7236,-3.7487,-3.7927,-3.8467,-3.8605,-3.8366,-3.7814,-3.7814,-3.7299,-3.6443,-3.6279,-3.6169,-3.6119,-3.5064,-3.4324,-3.3884,-3.2692,-3.126,-2.9716,-3.1072,-3.1888,-3.2026,-3.2704,-3.2654,-3.1825,-3.1524,-3.0934,-3.0018,-2.9389,-2.8775,-2.8134,-2.7708,-2.6599,-2.4723,-2.3301,-2.1654,-1.9779,-1.7163,0.0,0.0,0.0,0.0,0.0,0.0,0.0,0.0,0.0,-1.0719,-1.4613,0.0,-1.6735,0.0,-1.7501,-1.8204,-1.9133,-1.8606,0.0,0.0,-1.7877,-1.7303,-1.9296,-2.1164,-2.2418,-2.2681,-2.2305,-2.2243,-2.2832,-2.2907,-2.2857,-2.2732,-2.2385,-2.1832,-2.1039,-2.0262,-1.9798,-1.9811,-1.9798,-1.9798,-1.9786,-1.971,-1.9422,-1.8895,-1.8694,-1.8355,-1.7536,-1.6876,-1.6513,-1.6513,-1.6513,-1.6287,-1.5811,-1.5881,-1.5693,-1.4726,-1.4186,-1.3727,-1.3315,-1.3476,-1.3678,-4.6313,-4.6313,-4.6313,-4.5937,-4.5321,-4.4518,-4.4016,-4.3777,-4.3539,-4.3087,-4.2539,-4.1944,-4.0927,-3.9609,-3.927,-3.8994,-3.8768,-3.8743,-3.8931,-3.9233,-3.9245,-3.8793,-3.8015,-3.8002,-3.7437,-3.643,-3.6417,-3.6417,-3.6355,-3.5265,-3.468,-3.4655,-3.3621,-3.2508,-3.1348,-3.2152,-3.2604,-3.2591,-3.2905,-3.2528,-3.1436,-3.1386,-3.0758,-2.9465,-2.9114,-2.8411,-2.7442,-2.6725,-2.5566,-2.3851,-2.2482,-2.1075,-1.9501,-1.7657,-1.5985,0.0,0.0,0.0,0.0,0.0,0.0,0.0,0.0,0.0,0.0,0.0,-1.9447,0.0,0.0,0.0,-2.1164,-2.0978,-2.1154,-2.2074,-2.0539,-2.0012,-2.1383,-2.3339,-2.4619,-2.4619,-2.3797,-2.3308,-2.3471,-2.3484,-2.3384,-2.3145,-2.2844,-2.2468,-2.1992,-2.1503,-2.0926,-1.9961,-1.9798,-1.9798,-1.9798,-1.9798,-1.971,-1.9396,-1.9158,-1.8782,-1.8204,-1.7501,-1.6889,-1.6588,-1.6513,-1.6387,-1.5999,-1.6187,-1.6187,-1.548,-1.5022,-1.462,-1.4092,-1.396,-1.3921,-4.6313,-4.6313,-4.6313,-4.6313,-4.6225,-4.5183,-4.4418,-4.3878,-4.3388,-4.3112,-4.2992,-4.2451,-4.1685,-4.0727,-4.0576,-4.0262,-3.981,-3.9722,-3.9697,-3.9697,-3.9697,-3.9132,-3.8128,-3.804,-3.7462,-3.6531,-3.6443,-3.6417,-3.6367,-3.5253,-3.468,-3.463,-3.3621,-3.3124,-3.3124,-3.3124,-3.3124,-3.3124,-3.3061,-3.2453,-3.1411,-3.1323,-3.0532,-2.8988,-2.8825,-2.8084,-2.654,-2.5756,-2.4498,-2.271,-2.1497,-2.0269,-1.8923,-1.7962,-1.6888,0.0,-1.5938,0.0,0.0,0.0,0.0,0.0,0.0,0.0,0.0,-1.9271,-2.1455,-2.0326,-2.1255,-2.2309,-2.3221,-2.3785,-2.4104,-2.4079,-2.3653,-2.2932,-2.2171,-2.4651,-2.6487,-2.6487,-2.5624,-2.4808,-2.4192,-2.4054,-2.3791,-2.3333,-2.3133,-2.3032,-2.307,-2.2982,-2.2293,-2.0439,-1.9962,-1.9798,-1.9798,-1.9798,-1.9786,-1.9748,-1.9447,-1.9083,-1.8958,-1.8268,-1.7503,-1.6861,-1.6588,-1.6488,-1.6522,-1.6488,-1.6358,-1.5894,-1.5768,-1.5542,-1.4953,-1.448,-1.4297,-4.6313,-4.6313,-4.6313,-4.6313,-4.6263,-4.561,-4.5008,-4.4455,-4.4355,-4.3815,-4.2949,-4.2451,-4.2087,-4.1823,-4.0915,-4.045,-4.0337,-3.9898,-3.9697,-3.9697,-3.9697,-3.9346,-3.8705,-3.8228,-3.7663,-3.7023,-3.6619,-3.6417,-3.6392,-3.5253,-3.468,-3.4688,-3.3608,-3.3124,0.0,0.0,0.0,0.0,-3.2616,-3.2051,-3.1411,-3.0972,-3.0181,-2.8938,-2.8486,0.0,-2.6575,-2.6349,-2.5286,-2.3297,-2.2731,0.0,0.0,0.0,0.0,0.0,0.0,0.0,0.0,0.0,0.0,0.0,-1.776,-1.6215,-1.6343,-2.1104,-2.3684,-2.2631,-2.354,-2.4249,-2.4449,-2.4562,-2.4669,-2.4657,-2.4537,-2.4418,-2.4268,-2.5561,-2.6487,-2.6487,-2.6298,-2.5795,-2.4808,-2.428,-2.3979,-2.3841,-2.3409,-2.312,-2.312,-2.312,-2.292,-2.2431,-2.1004,-1.9874,-1.9798,-1.9823,-1.9849,-1.9773,-1.9748,-1.9497,-1.9083,-1.8757,-1.823,-1.7541,-1.6901,-1.6513,-1.6513,-1.6513,-1.6463,-1.6362,-1.6325,-1.6057,-1.5117,-1.4741,-1.4527,-4.6313,0.0,-4.6313,-4.6313,0.0,0.0,-4.5158,-4.4606,-4.4342,-4.3752,-4.2961,-4.2685,-4.2464,-4.2175,-4.1291,-4.0777,-4.0488,-3.9948,-3.9697,-3.9697,-3.9697,-3.9258,-3.8442,-3.814,-3.7575,-3.682,-3.6543,-3.6417,-3.6367,-3.5529,-3.4944,-3.4713,-3.3897,-3.3345,-3.3136,-3.3124,-3.3124,-3.3124,-3.278,-3.2353,-3.18,-3.1273,-3.0482,-2.9339,0.0,0.0,0.0,0.0,0.0,0.0,0.0,0.0,0.0,0.0,0.0,-1.843,-1.8858,-1.9384,-1.9859,-2.0823,-2.184,-2.2889,-2.0978,-2.0211,-2.1331,-2.4029,-2.5272,-2.4424,-2.4883,-2.5322,-2.5598,-2.5636,-2.5624,-2.5624,-2.5624,-2.5636,-2.572,-2.6147,-2.6487,-2.6487,-2.6487,-2.616,-2.531,-2.4983,-2.4682,-2.4418,-2.3929,-2.3565,-2.3509,-2.3283,-2.3108,-2.3058,-2.1782,-2.0552,-2.0288,-2.0264,-2.0087,-1.9899,-1.9798,-1.9698,-1.9459,-1.9296,-1.9108,-1.8656,-1.7539,-1.6513,-1.6513,-1.6513,-1.6513,-1.6513,-1.6513,-1.6362,-1.5756,-1.5438,-1.5069,-4.6313,-4.6313,-4.6313,-4.6313,-4.6276,-4.5723,-4.5095,-4.443,0.0,0.0,0.0,-4.2986,-4.2791,-4.2313,-4.163,-4.1037,-4.0614,-3.9986,-3.9697,-3.9697,-3.9697,-3.9145,-3.8178,-3.8052,-3.7475,-3.6581,-3.6455,-3.6417,-3.638,-3.5805,-3.5219,-3.4668,-3.4173,-3.3633,-3.3162,-3.3124,-3.3124,-3.3124,-3.298,-3.2692,-3.2215,-3.1574,-3.0796,-2.9817,-2.7971,-2.6797,-2.6315,-2.3913,-2.2941,-2.3622,-2.1868,-2.0973,-2.1401,-2.1549,-2.1078,-1.9949,-2.1367,-2.2587,-2.3129,-2.4003,-2.4859,-2.5658,-2.4014,-2.3962,-2.6355,-2.6487,-2.6298,-2.5787,-2.5749,-2.5937,-2.6449,-2.6487,-2.6487,-2.6487,-2.6487,-2.6474,-2.6474,-2.6487,-2.6487,-2.6487,-2.6487,-2.6336,-2.5824,-2.5636,-2.5448,-2.4996,-2.4494,-2.4029,-2.3841,-2.3384,-2.3095,-2.3007,-2.228,-2.1568,-2.1006,-2.0704,-2.0503,-2.0087,-1.9886,-1.9798,-1.9798,-1.9798,-1.9798,-1.9685,-1.8229,-1.7277,-1.6864,-1.6663,-1.6563,-1.6626,-1.655,-1.6513,-1.6475,-1.617,-1.5676,-4.6313,-4.6313,-4.6313,-4.6313,-4.6263,-4.5723,-4.4882,-4.3878,-4.3325,-4.3049,-4.2986,-4.2986,-4.2936,-4.2811,-4.1794,-4.125,-4.11,-4.0174,-3.9697,0.0,-3.9697,-3.9358,-3.8743,-3.8241,-3.7676,-3.7061,-3.6644,-3.6417,-3.6355,-3.5818,-3.5207,-3.4668,-3.4161,-3.3621,-3.3162,-3.3124,-3.3124,-3.3111,-3.2591,-3.2303,-3.2202,-3.1235,-3.0432,-2.9804,-2.8999,-2.7668,-2.5815,-2.6578,-2.5759,-2.2929,-2.4048,-2.406,-2.245,-2.2895,-2.275,-2.1713,-2.2864,-2.377,-2.4119,-2.5126,-2.6299,-2.748,-2.6596,-2.6083,-2.644,-2.6487,-2.6461,-2.6386,-2.6386,-2.6399,-2.6487,-2.6524,-2.6524,-2.6512,-2.6487,-2.6487,-2.6487,-2.6487,-2.6487,-2.6487,-2.6487,-2.6474,-2.6323,-2.5946,-2.5624,-2.5448,-2.5034,-2.4362,-2.3597,-2.3158,-2.3108,-2.3095,-2.2995,-2.2472,-2.1594,-2.0981,-2.0742,-2.0603,-2.0163,-1.9849,-1.9798,-1.9798,-1.9798,-1.9798,-1.9371,-1.8894,-1.8141,-1.7137,-1.6873,-1.7061,-1.6839,-1.6513,-1.6513,-1.64,-1.6195,-4.6313,-4.6313,-4.6313,-4.6313,-4.625,-4.5384,-4.4568,-4.3765,-4.3225,-4.2986,-4.2986,-4.2986,-4.2986,-4.2886,-4.1831,-4.1275,-4.1238,-4.0199,-3.9697,-3.9697,-3.9697,-3.9233,-3.8429,-3.8115,-3.755,-3.6807,-3.6543,-3.6417,-3.6392,-3.6107,-3.5554,-3.468,-3.3884,-3.3319,-3.3106,-3.3124,-3.3124,-3.3068,-3.2817,-3.2679,-3.2667,-3.1901,-3.121,-3.0658,-2.9349,-2.8254,-2.7421,-2.6247,-2.5574,-2.5556,-2.4073,-2.3725,-2.4646,-2.3568,-2.2836,-2.2825,-2.3853,-2.4686,-2.5105,-2.6959,-2.8349,-2.8938,-2.8598,-2.8297,-2.8297,-2.7708,-2.7344,-2.7356,-2.7356,-2.7356,-2.7366,-2.7115,-2.6952,-2.6939,-2.6688,-2.6487,-2.6487,-2.6487,-2.6487,-2.6487,-2.6487,-2.6487,-2.6487,-2.626,-2.6097,-2.6059,-2.5586,-2.4933,-2.4111,-2.3496,-2.3108,-2.3095,-2.3095,-2.2769,-2.2083,-2.1744,-2.1343,-2.083,-2.049,-2.015,-1.9899,-1.9798,-1.9798,-1.9798,-1.9798,-1.9623,-1.907,-1.7967,-1.74,-1.7212,-1.6923,-1.6563,-1.6513,-1.6513,-1.6421,-4.6313,-4.6313,-4.6313,-4.6163,-4.5861,-4.4995,-4.4242,-4.3589,-4.3162,-4.2986,-4.2986,-4.2986,-4.2986,-4.2873,-4.1831,-4.1275,-4.1125,-4.0187,-3.9697,-3.9697,-3.9697,-3.9094,-3.809,-3.8002,-3.7437,-3.6518,-3.6417,-3.6417,-3.6417,-3.6417,-3.5805,-3.4713,-3.3608,-3.3124,-3.3124,-3.3124,-3.3124,-3.3124,-3.3124,-3.3124,-3.3099,-3.2516,-3.2001,-3.1496,-2.9537,-2.8573,-2.8741,-2.6091,-2.5425,-2.7074,-2.4747,-2.4212,-2.5961,-2.4832,-2.4072,-2.4274,-2.5397,-2.6246,-2.6769,-2.834,-2.9534,-2.9792,-2.9779,-2.9779,-2.9716,-2.9013,-2.836,-2.816,-2.8059,-2.8072,-2.8021,-2.772,-2.7469,-2.7467,-2.6889,-2.6499,-2.6487,-2.6487,-2.6487,-2.6487,-2.6487,-2.6487,-2.6487,-2.6487,-2.6461,-2.6386,-2.6097,-2.5636,-2.5159,-2.4393,-2.381,-2.3208,-2.3095,-2.2957,-2.2531,-2.2318,-2.1933,-2.1144,-2.083,-2.0528,-2.0151,-1.9936,-1.9811,-1.9798,-1.9798,-1.9773,-1.9698,-1.8933,-1.8143,-1.7903,-1.7313,-1.6722,-1.6525,-1.6513,-1.6434,-4.6313,-4.6313,-4.6313,-4.5711,-4.4882,-4.4681,-4.4053,-4.3162,-4.3042,-4.2986,-4.2986,-4.2986,-4.2986,-4.2836,-4.1831,-4.1275,-4.1188,-4.0187,-3.9697,-3.9697,-3.9697,-3.9094,-3.8065,-3.8002,-3.7425,-3.6518,-3.6417,-3.6417,-3.6417,-3.6367,-3.5793,-3.4726,-3.3621,-3.3124,-3.3124,-3.3124,-3.3081,-3.3068,-3.3124,-3.3124,-3.3086,-3.2503,-3.2177,-3.2114,-2.999,-2.8867,-2.8951,-2.8094,-2.6874,-2.553,-2.7524,-2.7679,-2.5633,-2.7537,-2.8211,-2.6356,-2.8096,-2.937,-2.933,-2.8691,-2.8779,-2.9663,-2.9779,-2.9779,-2.9779,-2.9679,-2.9176,-2.8436,-2.8147,-2.8197,-2.8109,-2.8059,-2.8034,-2.7984,-2.7216,-2.6487,-2.6549,-2.6487,-2.6487,-2.6487,-2.6487,-2.6487,-2.6487,-2.6487,-2.6487,-2.6487,-2.6399,-2.6273,-2.6172,-2.6009,-2.5222,-2.3747,-2.3145,-2.3083,-2.2932,-2.2581,-2.2268,-2.2046,-2.1317,-2.0817,-2.0541,-2.0138,-1.9798,-1.9798,-1.9798,-1.9798,-1.9798,-1.961,-1.9334,-1.8619,-1.794,-1.7162,-1.6688,-1.6563,-1.6446,-4.6313,-4.6313,-4.6313,-4.605,-4.5573,-4.492,-4.438,-4.3915,-4.325,-4.2986,-4.2986,-4.2986,-4.2986,-4.2898,-4.1831,-4.1275,-4.12,-4.0187,-3.9697,-3.9697,-3.9697,-3.9094,-3.809,-3.8002,-3.7425,-3.648,-3.6417,-3.6417,-3.6292,-3.5717,-3.5165,-3.4663,-3.3621,-3.3124,-3.3124,-3.3124,-3.2754,-3.2008,-3.2698,-3.2754,-3.2127,-3.2475,-3.2566,-3.2076,-3.0628,-2.9833,-2.9724,-2.841,-2.7591,-2.7609,-2.6595,-2.6171,-2.6767,-2.87,-2.849,-2.5944,-2.725,-2.8747,-2.9727,-2.9663,-2.9621,-2.9817,-2.9779,-2.9779,-2.9779,-2.9779,-2.9578,-2.9214,-2.9101,-2.9101,-2.9051,-2.8762,-2.8549,-2.8524,-2.8084,-2.7718,-2.7457,-2.6889,-2.6487,-2.6487,-2.6487,-2.6499,-2.6487,-2.6487,-2.6487,-2.6487,-2.6487,-2.6487,-2.6487,-2.6487,-2.6135,-2.5229,-2.4023,-2.317,-2.3083,-2.2957,-2.2656,-2.2347,-2.197,-2.1556,-2.0779,-2.0226,-1.9811,-1.9798,-1.9798,-1.9798,-1.9798,-1.9773,-1.9635,-1.9033,-1.8505,-1.7702,-1.7149,-1.7036,-1.6798,-4.6313,-4.6313,-4.6313,-4.6225,-4.5987,-4.5045,-4.4543,-4.4292,-4.3388,-4.2986,-4.2986,-4.2986,-4.2886,-4.2635,-4.1769,-4.1275,-4.1137,-4.0199,-3.9697,-3.9697,-3.9697,-3.9182,-3.8304,-3.8065,-3.7513,-3.6744,-3.648,-3.6203,-3.5866,-3.529,-3.4682,-3.4123,-3.3583,-3.3232,-3.3136,-3.3124,-3.2469,-3.14,-3.214,-3.2096,-3.1444,-3.2096,-3.2555,-3.2297,-3.0824,-3.0136,-3.0462,-2.8456,-2.7878,-2.9121,-2.6451,-2.5833,-2.7836,-2.8251,-2.7624,-2.6455,-2.7273,-2.861,-3.0125,-3.0316,-3.0241,-2.9853,-2.9779,-2.9779,-2.9779,-2.9779,-2.9779,-2.9754,-2.9779,-2.9754,-2.9741,-2.9415,-2.9151,-2.9113,-2.9063,-2.8863,-2.8561,-2.7819,-2.7492,-2.7404,-2.7278,-2.6864,-2.6763,-2.6738,-2.6725,-2.6537,-2.6487,-2.6487,-2.6487,-2.6487,-2.6461,-2.6449,-2.5008,-2.3941,-2.3283,-2.307,-2.2869,-2.2644,-2.241,-2.1958,-2.1157,-2.0501,-1.9811,-1.9798,-1.9798,-1.9798,-1.9798,-1.9761,-1.9648,-1.9121,-1.8681,-1.8242,-1.7727,-1.7639,-1.7363,-4.6313,-4.6313,-4.6313,-4.6024,-4.5497,-4.4882,-4.433,-4.3915,-4.3237,-4.2986,-4.2986,-4.2986,-4.274,-4.225,-4.1605,-4.1275,-4.1112,-4.0187,-3.9697,-3.9697,-3.9697,-3.9383,-3.8869,-3.8266,-3.7701,-3.7073,-3.6619,-3.5763,-3.4703,-3.51,-3.4558,-3.292,-3.3391,-3.3527,-3.3199,-3.3124,-3.2469,-3.1267,-3.1311,-3.1223,-3.1122,-3.1178,-3.1853,-3.2543,-3.0341,-2.9466,-3.0099,-2.8795,-2.7959,-2.8023,-2.8812,-2.8972,-2.7974,-2.5978,-2.618,-2.8847,-2.9467,-3.0091,-3.0934,-3.0506,-2.9975,-2.9874,-2.9917,-2.9829,-2.9942,-2.9942,-2.993,-2.9804,-2.9867,-2.9854,-2.9779,-2.9704,-2.9679,-2.9691,-2.9704,-2.9666,-2.9654,-2.9415,-2.9603,-2.934,-2.8486,-2.7733,-2.7306,-2.7278,-2.704,-2.6713,-2.6524,-2.6512,-2.6487,-2.6487,-2.6487,-2.6487,-2.616,-2.5561,-2.3684,-2.3246,-2.3195,-2.292,-2.2606,-2.2268,-2.1732,-2.1117,-2.0439,-1.9811,-1.9798,-1.9798,-1.9798,-1.971,-1.9572,-1.9284,-1.9133,-1.8769,-1.8279,-1.8204,-1.7928,-4.6313,-4.6313,-4.6313,-4.62,-4.5912,-4.5033,-4.4493,-4.4254,-4.3363,-4.2986,-4.2986,-4.2986,-4.2728,-4.2175,-4.1593,-4.11,-4.0752,-4.0023,-3.9697,-3.9697,-3.9697,-3.9408,-3.8894,-3.8278,-3.7726,-3.7174,-3.6681,-3.5715,-3.4472,-3.4282,-3.374,-3.2827,-3.2601,-3.2734,-3.3039,-3.3124,-3.2108,-3.0373,-3.0765,-3.0496,-2.9189,-2.9636,-3.0631,-3.1721,-3.0143,-2.9577,-3.0363,-2.9074,-2.8528,-2.8943,-3.0147,-3.0311,-2.9056,-2.6875,-2.7173,-3.0163,-2.9773,-2.9808,-3.1145,-3.1369,-3.1174,-3.0841,-3.0809,-3.0821,-3.0821,-3.0796,-3.0683,-3.0407,-3.0319,-3.0193,-2.9867,-2.9779,-2.9792,-2.9779,-2.9779,-2.9779,-2.9779,-2.9779,-2.9779,-2.9616,-2.8812,-2.8034,-2.7908,-2.7808,-2.7595,-2.7153,-2.7014,-2.6851,-2.6562,-2.6487,-2.6487,-2.6487,-2.6474,-2.6235,-2.5573,-2.4268,-2.3627,-2.3208,-2.2869,-2.2594,-2.213,-2.223,-2.1754,-2.0376,-2.01,-1.9798,-1.9811,-1.9886,-1.9698,-1.9597,-1.9459,-1.9196,-1.8832,-1.8732,-1.8455,-4.6313,-4.6313,-4.6313,-4.62,-4.5937,-4.5033,-4.446,-4.4267,-4.3388,-4.2986,-4.2986,-4.2974,-4.2728,-4.2175,-4.158,-4.0987,-4.0501,-3.9948,-3.9697,-3.9697,-3.9697,-3.9496,-3.9069,-3.8354,-3.7826,-3.7277,-3.6241,-3.5066,-3.3824,-3.3301,-3.2617,-3.1689,-3.1575,-3.1734,-3.2059,-3.1974,-3.0833,-2.9361,-2.9636,-2.9177,-2.7861,-2.8412,-2.9396,-3.0316,-2.9806,-2.9625,-3.0041,-2.8903,-2.8679,-2.9607,-3.1094,-3.1634,-3.0755,-2.8631,-2.8299,-3.0298,-3.0062,-3.0065,-3.1192,-3.2055,-3.234,-3.1989,-3.1926,-3.1926,-3.1938,-3.1926,-3.1587,-3.1072,-3.0859,-3.0645,-3.0218,-3.0068,-2.9993,-2.9842,-2.9779,-2.9779,-2.9779,-2.9779,-2.9779,-2.9704,-2.9202,-2.8662,-2.8411,-2.8373,-2.8009,-2.7394,-2.7329,-2.709,-2.6637,-2.6487,-2.6487,-2.6487,-2.6487,-2.6474,-2.6084,-2.5172,-2.4217,-2.3753,-2.317,-2.2882,-2.2744,-2.297,-2.2644,-2.1214,-2.0388,-1.9999,-1.9861,-1.9987,-1.9949,-1.9861,-1.9723,-1.9522,-1.9346,-1.9271,-1.897,-4.6313,-4.6313,-4.6313,-4.6012,-4.5522,-4.4895,-4.4317,-4.3815,-4.3225,-4.2986,-4.2986,-4.2986,-4.2728,-4.2187,-4.158,-4.0974,-4.0488,-3.9948,-3.9697,-3.9697,-3.9697,-3.9685,-3.9559,-3.8504,-3.7889,-3.7652,-3.5539,-3.3784,-3.2532,-3.2275,-3.1366,-3.0088,-3.0471,-3.0622,-3.0101,-2.9919,-2.8993,-2.8038,-2.7908,-2.772,-2.7589,-2.7542,-2.8179,-2.9223,-2.9223,-2.9155,-2.9328,-2.8323,-2.8279,-2.9409,-3.168,-3.3,-3.2302,-3.0368,-2.934,-2.9591,-3.0416,-3.0953,-3.1296,-3.224,-3.2784,-3.2935,-3.298,-3.2935,-3.2898,-3.2923,-3.2516,-3.1725,-3.1411,-3.1185,-3.0746,-3.062,-3.0394,-2.9905,-2.9779,-2.9779,-2.9779,-2.9779,-2.9779,-2.9767,-2.9616,-2.9515,-2.9101,-2.8938,-2.8561,-2.7795,-2.7494,-2.7218,-2.6663,-2.6487,-2.6487,-2.6487,-2.6487,-2.6487,-2.6285,-2.5946,-2.5071,-2.428,-2.364,-2.3158,-2.3007,-2.3095,-2.3095,-2.1992,-2.1277,-2.0891,-2.0476,-2.0526,-2.0289,-2.0163,-2.0013,-1.9811,-1.9673,-1.9547,-1.9421,-4.6313,-4.6313,-4.6313,-4.5987,-4.5434,-4.4869,-4.4305,-4.3765,-4.3212,-4.2986,-4.2986,-4.2986,-4.2728,-4.212,-4.158,-4.0987,-4.0488,-3.9961,-3.9697,-3.9697,-3.9697,-3.9697,-3.9432,-3.8542,-3.7613,-3.673,-3.5199,-3.3662,-3.2342,-3.1378,-3.0384,-2.9676,-2.9462,-2.9656,-2.99,-2.9561,-2.8808,-2.772,-2.7589,-2.721,-2.639,-2.6294,-2.6897,-2.7898,-2.7352,-2.721,-2.8085,-2.8588,-2.8588,-2.8319,-3.1291,-3.2339,-3.0822,-2.9818,-2.9396,-2.9361,-2.8901,-2.959,-3.1045,-3.1577,-3.2239,-3.2896,-3.3124,-3.3124,-3.3124,-3.3124,-3.2973,-3.2503,-3.2202,-3.1738,-3.1286,-3.1148,-3.0783,-2.9892,-2.9779,-2.9829,-2.9779,-2.9779,-2.9779,-2.9779,-2.9779,-2.9691,-2.9566,-2.9503,-2.9176,-2.8511,-2.8335,-2.7959,-2.6876,-2.6537,-2.6487,-2.6487,-2.6487,-2.6487,-2.6348,-2.6122,-2.5523,-2.482,-2.4205,-2.3534,-2.3346,-2.3221,-2.3195,-2.2907,-2.2217,-2.1691,-2.1277,-2.1004,-2.0792,-2.0415,-2.0189,-2.0025,-1.9849,-1.9723,-1.9597,-4.6313,-4.6313,-4.6313,-4.5861,-4.5158,-4.4756,-4.4192,-4.3501,-4.3137,-4.2986,-4.2918,-4.2319,-4.1896,-4.1515,-4.101,-4.0426,-3.9927,-3.991,-3.9601,-3.9102,-3.953,-3.9413,-3.898,-3.8316,-3.712,-3.5635,-3.4264,-3.2905,-3.1531,-3.0266,-2.937,-2.9002,-2.8646,-2.8537,-2.8843,-2.8482,-2.7778,-2.7023,-2.6897,-2.6476,-2.5878,-2.5684,-2.6062,-2.6716,-2.6572,-2.6572,-2.704,-2.8085,-2.8412,-2.8272,-3.0687,-3.1689,-3.0777,-3.0406,-3.009,-2.9863,-2.9131,-2.9189,-3.0899,-3.1223,-3.1765,-3.2797,-3.3124,-3.3124,-3.3124,-3.3124,-3.3124,-3.3048,-3.2754,-3.2303,-3.1825,-3.17,-3.1286,-3.0507,-3.0419,-3.0206,-2.9942,-2.9779,-2.9779,-2.9779,-2.9779,-2.9779,-2.9779,-2.9767,-2.9553,-2.9038,-2.8875,-2.8624,-2.7379,-2.6763,-2.6663,-2.6549,-2.6487,-2.6474,-2.6461,-2.6223,-2.5887,-2.5347,-2.4795,-2.4167,-2.3728,-2.3597,-2.3534,-2.3208,-2.2631,-2.223,-2.1829,-2.1631,-2.1393,-2.0916,-2.0453,-2.0175,-2.0012,-1.9836,-1.9723,-4.6313,-4.6313,-4.6313,-4.5673,-4.4719,-4.4618,-4.4016,-4.3099,-4.2986,-4.2862,-4.25,-4.1374,-4.0638,-4.0404,-3.9791,-3.927,-3.8975,-3.9387,-3.8679,-3.785,-3.8307,-3.8493,-3.769,-3.7612,-3.6604,-3.4759,-3.2989,-3.1582,-3.0525,-2.9207,-2.8291,-2.8353,-2.8003,-2.7565,-2.7419,-2.6722,-2.6448,-2.6064,-2.5869,-2.5781,-2.5684,-2.5684,-2.5732,-2.5868,-2.6658,-2.6754,-2.6207,-2.6945,-2.7494,-2.7731,-2.9636,-3.1412,-3.2426,-3.1865,-3.0855,-3.0709,-2.9943,-2.9954,-3.0765,-3.1122,-3.1765,-3.2896,-3.3124,-3.3124,-3.3124,-3.3124,-3.3124,-3.3124,-3.3074,-3.2817,-3.2365,-3.2265,-3.1989,-3.1599,-3.1298,-3.0821,-2.9955,-2.9779,-2.9779,-2.9779,-2.9779,-2.9779,-2.9779,-2.9779,-2.9541,-2.9227,-2.9063,-2.875,-2.8348,-2.7682,-2.6964,-2.6851,-2.7027,-2.6487,-2.6474,-2.6424,-2.6147,-2.59,-2.5398,-2.487,-2.4079,-2.381,-2.3572,-2.3271,-2.3045,-2.2681,-2.2393,-2.2142,-2.182,-2.1358,-2.0905,-2.0464,-2.0213,-2.0087,-1.9924,-4.6313,-4.6313,-4.6313,-4.566,-4.4694,-4.4618,-4.4003,-4.3049,-4.2986,-4.2375,-4.1362,-4.0822,-3.9873,-3.8807,-3.8305,-3.7735,-3.7406,-3.7261,-3.6081,-3.4725,-3.5781,-3.6684,-3.6794,-3.66,-3.5978,-3.4572,-3.2228,-3.068,-3.0214,-2.8953,-2.8291,-2.8271,-2.79,-2.7679,-2.7412,-2.6777,-2.6367,-2.6182,-2.584,-2.5713,-2.5723,-2.5723,-2.5684,-2.5732,-2.6092,-2.6092,-2.5742,-2.6014,-2.6197,-2.6294,-2.7673,-3.0011,-3.2339,-3.1101,-3.009,-3.0,-2.9727,-2.9544,-2.9988,-3.0676,-3.1733,-3.2896,-3.3124,-3.3124,-3.3124,-3.3124,-3.3124,-3.3124,-3.3124,-3.3018,-3.2867,-3.283,-3.2759,-3.2579,-3.1951,-3.1097,-3.0218,-2.9779,-2.9779,-2.9779,-2.9829,-2.9829,-2.9842,-2.9779,-2.9729,-2.9566,-2.949,-2.9453,-2.9051,-2.8963,-2.8385,-2.8146,-2.7995,-2.7027,-2.6487,-2.6487,-2.6436,-2.6373,-2.6047,-2.5669,-2.4695,-2.3847,-2.3496,-2.3108,-2.3108,-2.2832,-2.2706,-2.2543,-2.2133,-2.1732,-2.1443,-2.1091,-2.0729,-2.0503,-2.0277,-4.6313,-4.6313,-4.6313,-4.5799,-4.4995,-4.4744,-4.4129,-4.3388,-4.3062,-4.2081,-4.0719,-3.9826,-3.8687,-3.721,-3.6839,-3.6339,-3.5776,-3.6101,-3.5104,-3.3515,-3.4069,-3.4899,-3.5439,-3.5416,-3.4693,-3.335,-3.1553,-3.0266,-2.9438,-2.8654,-2.8344,-2.8262,-2.8057,-2.7842,-2.7679,-2.7226,-2.6816,-2.665,-2.6387,-2.622,-2.623,-2.6269,-2.6279,-2.6279,-2.6269,-2.6171,-2.6045,-2.5801,-2.5684,-2.5965,-2.6982,-2.8691,-3.0687,-3.0643,-3.0135,-3.0181,-3.0181,-3.0181,-3.0124,-3.0451,-3.1279,-3.2667,-3.3124,-3.3124,-3.3124,-3.3124,-3.3124,-3.3124,-3.3124,-3.3124,-3.3124,-3.3124,-3.3124,-3.2998,-3.2478,-3.1838,-3.121,-3.1301,-3.0934,-3.0608,-3.0281,-3.0143,-3.0131,-2.9955,-2.9817,-2.9767,-2.9729,-2.9729,-2.9679,-2.9779,-2.9704,-2.9214,-2.8938,-2.8146,-2.7304,-2.7115,-2.6864,-2.6776,-2.6399,-2.6084,-2.5322,-2.4211,-2.3684,-2.3371,-2.3221,-2.307,-2.2932,-2.2794,-2.2543,-2.2234,-2.2008,-2.1681,-2.1282,-2.1031,-2.0752,-4.6168,-4.6047,-4.618,-4.583,-4.5073,-4.4715,-4.4044,-4.3342,-4.2812,-4.1533,-3.9873,-3.8521,-3.7073,-3.5571,-3.5498,-3.5091,-3.432,-3.5242,-3.4515,-3.3272,-3.2897,-3.3306,-3.3813,-3.4084,-3.3267,-3.1795,-3.1072,-2.9909,-2.8886,-2.8403,-2.8291,-2.8281,-2.8262,-2.8096,-2.7885,-2.7646,-2.7441,-2.7129,-2.6934,-2.6855,-2.6855,-2.6855,-2.6846,-2.6846,-2.6855,-2.6728,-2.6435,-2.6103,-2.5898,-2.5849,-2.6903,-2.7852,-2.8585,-3.0228,-3.1021,-3.1305,-3.1319,-3.1295,-3.1066,-3.0434,-3.0331,-3.1805,-3.2524,-3.3124,-3.3162,-3.3257,-3.3357,-3.3136,-3.3119,-3.3224,-3.3124,-3.3124,-3.3124,-3.3099,-3.3048,-3.3099,-3.3124,-3.3124,-3.2679,-3.1712,-3.1097,-3.0746,-3.0557,-3.0269,-2.9892,-3.0068,-2.9967,-2.9779,-2.9779,-2.9779,-2.9779,-2.9666,-2.944,-2.9315,-2.8499,-2.7783,-2.7444,-2.7143,-2.6675,-2.6273,-2.5858,-2.4958,-2.423,-2.3722,-2.3384,-2.3183,-2.307,-2.292,-2.2782,-2.2681,-2.246,-2.2108,-2.1744,-2.1619,-2.1418,-4.5477,-4.4374,-4.5732,-4.4969,-4.3203,-4.4048,-4.3338,-4.1396,-4.1194,-3.9569,-3.7303,-3.6467,-3.5448,-3.3965,-3.405,-3.3605,-3.3243,-3.3366,-3.2445,-3.1588,-3.1383,-3.1459,-3.1926,-3.2483,-3.2545,-3.1628,-3.0102,-2.9204,-2.873,-2.8476,-2.8301,-2.8301,-2.8291,-2.8252,-2.8135,-2.7894,-2.7699,-2.748,-2.7217,-2.709,-2.71,-2.71,-2.71,-2.708,-2.706,-2.6992,-2.6914,-2.6787,-2.6738,-2.671,-2.6814,-2.7586,-2.8887,-2.9332,-3.0259,-3.1612,-3.2192,-3.1937,-3.1248,-3.1215,-3.0663,-2.8887,-3.1028,-3.3124,-3.3199,-3.3935,-3.3872,-3.3445,-3.3432,-3.3545,-3.3325,-3.3162,-3.3174,-3.3199,-3.3149,-3.3124,-3.3124,-3.3124,-3.2935,-3.2554,-3.1825,-3.1223,-3.1198,-3.0758,-3.0495,-3.0407,-3.0156,-2.9854,-2.9779,-2.9779,-2.9779,-2.9779,-2.9716,-2.9541,-2.9189,-2.8386,-2.7795,-2.7406,-2.6939,-2.6512,-2.6097,-2.5808,-2.5071,-2.4255,-2.3446,-2.3283,-2.3108,-2.3095,-2.2957,-2.292,-2.2857,-2.2543,-2.2297,-2.2196,-2.2096,-4.4559,-4.3793,-4.4694,-4.4099,-4.2747,-4.3188,-4.2559,-4.095,-3.9849,-3.8141,-3.6223,-3.5806,-3.4912,-3.3418,-3.3398,-3.3193,-3.2715,-3.2129,-3.1583,-3.1055,-3.0947,-3.0947,-3.0927,-3.1307,-3.1588,-3.1202,-3.0214,-2.9365,-2.8955,-2.8701,-2.8496,-2.8301,-2.8301,-2.8291,-2.8291,-2.811,-2.7988,-2.7949,-2.7754,-2.7617,-2.7607,-2.7607,-2.7617,-2.7549,-2.7441,-2.7324,-2.7314,-2.71,-2.7139,-2.7197,-2.7161,-2.7358,-2.838,-2.8738,-2.9573,-3.0563,-3.2218,-3.1592,-3.0756,-3.0874,-3.0418,-2.7319,-2.9166,-3.1087,-3.2884,-3.45,-3.519,-3.4713,-3.4437,-3.4148,-3.3872,-3.3558,-3.3495,-3.3407,-3.3262,-3.3136,-3.3124,-3.3124,-3.3124,-3.2973,-3.2277,-3.1913,-3.1625,-3.1286,-3.0871,-3.0683,-3.052,-3.0218,-2.9792,-2.9792,-2.9779,-2.9779,-2.9779,-2.9704,-2.9578,-2.8976,-2.8122,-2.7645,-2.7165,-2.6776,-2.6399,-2.621,-2.5996,-2.5008,-2.4017,-2.3271,-2.3095,-2.3095,-2.3183,-2.3058,-2.2982,-2.2882,-2.2794,-2.2656,-2.2594,-4.3298,-4.3227,-4.3476,-4.2947,-4.2063,-4.2041,-4.146,-4.0149,-3.8642,-3.6892,-3.5622,-3.5448,-3.4497,-3.3597,-3.3418,-3.3164,-3.2607,-3.206,-3.1465,-3.0947,-3.0898,-3.0898,-3.0927,-3.0985,-3.0895,-3.0322,-3.0146,-2.9726,-2.9209,-2.8926,-2.8643,-2.8359,-2.8301,-2.8301,-2.8291,-2.8291,-2.8242,-2.8213,-2.8184,-2.8174,-2.8184,-2.8193,-2.8184,-2.8115,-2.793,-2.7764,-2.7695,-2.7519,-2.7412,-2.7725,-2.7816,-2.7568,-2.7572,-2.8026,-2.8953,-2.9124,-3.1162,-3.1098,-3.0048,-3.0143,-2.9881,-2.7737,-2.7508,-2.8848,-3.1751,-3.3444,-3.47,-3.5538,-3.5353,-3.4593,-3.4675,-3.4299,-3.4048,-3.3909,-3.3483,-3.3174,-3.3124,-3.3124,-3.3124,-3.3061,-3.2704,-3.2416,-3.2177,-3.1876,-3.1386,-3.0919,-3.0781,-3.0557,-3.0143,-2.9792,-2.9792,-2.9779,-2.9779,-2.9779,-2.9679,-2.9315,-2.8486,-2.8084,-2.7532,-2.7165,-2.6788,-2.6461,-2.6172,-2.5506,-2.4607,-2.4054,-2.3659,-2.3747,-2.3697,-2.3358,-2.3221,-2.3246,-2.3195,-2.312,-2.302,-4.138,-4.1132,-4.2512,-4.098,-3.8302,-4.0329,-3.9659,-3.6972,-3.6449,-3.5273,-3.4017,-3.3829,-3.3776,-3.3418,-3.3418,-3.2998,-3.2412,-3.1982,-3.1562,-3.0996,-3.0898,-3.0898,-3.0898,-3.0889,-3.082,-3.0703,-3.0439,-2.9961,-2.9492,-2.9101,-2.8779,-2.8408,-2.8301,-2.8301,-2.8301,-2.8301,-2.8301,-2.8301,-2.8301,-2.8301,-2.8301,-2.8301,-2.8301,-2.8291,-2.8164,-2.8135,-2.8154,-2.8115,-2.8125,-2.8184,-2.8184,-2.8135,-2.8061,-2.8285,-2.8884,-2.9673,-3.0451,-3.0499,-2.9929,-3.0116,-2.9642,-2.8539,-2.8027,-2.8027,-2.9188,-2.9942,-3.2387,-3.4967,-3.5353,-3.4698,-3.4726,-3.4663,-3.4613,-3.4374,-3.3822,-3.3212,-3.3162,-3.3124,-3.3124,-3.3099,-3.2986,-3.2898,-3.2616,-3.2378,-3.1989,-3.1599,-3.1399,-3.0997,-3.0495,-3.008,-2.9779,-2.9779,-2.9779,-2.9779,-2.9754,-2.934,-2.8775,-2.8574,-2.816,-2.7708,-2.7268,-2.6763,-2.6248,-2.572,-2.5619,-2.5435,-2.5096,-2.472,-2.4305,-2.4017,-2.3853,-2.3703,-2.3484,-2.3333,-2.317,-3.9378,-3.9203,-3.9774,-3.8703,-3.7041,-3.817,-3.7813,-3.5848,-3.4902,-3.4133,-3.3597,-3.3418,-3.3418,-3.3418,-3.3418,-3.2949,-3.2314,-3.1904,-3.1475,-3.0976,-3.0898,-3.0898,-3.0898,-3.0898,-3.0898,-3.084,-3.0635,-3.0303,-2.9883,-2.9473,-2.9023,-2.8662,-2.8428,-2.8301,-2.8301,-2.8301,-2.8301,-2.8301,-2.8301,-2.8301,-2.8301,-2.8301,-2.8301,-2.8301,-2.8301,-2.8301,-2.8301,-2.8301,-2.8291,-2.8291,-2.8291,-2.8301,-2.8301,-2.8354,-2.8558,-2.927,-2.9869,-2.9911,-2.9608,-2.9765,-2.9692,-2.8538,-2.8301,-2.8301,-2.8301,-2.887,-3.0473,-3.373,-3.511,-3.4844,-3.5512,-3.527,-3.5119,-3.4981,-3.4412,-3.3759,-3.335,-3.3212,-3.3199,-3.3212,-3.3074,-3.3023,-3.3048,-3.2767,-3.2541,-3.2265,-3.1989,-3.1499,-3.0922,-3.0595,-3.0244,-2.9779,-2.9779,-2.9779,-2.9779,-2.9528,-2.9139,-2.895,-2.875,-2.8323,-2.777,-2.7218,-2.67,-2.6147,-2.6223,-2.6273,-2.6172,-2.5624,-2.5134,-2.4644,-2.4469,-2.4243,-2.381,-2.3534,-2.3396,-3.7486,-3.7665,-3.7286,-3.6624,-3.6008,-3.6383,-3.6101,-3.5139,-3.4007,-3.3471,-3.3418,-3.3418,-3.3418,-3.3389,-3.3242,-3.2871,-3.2209,-3.1728,-3.1299,-3.0967,-3.0898,-3.0898,-3.0898,-3.0898,-3.0898,-3.0889,-3.085,-3.0644,-3.0176,-2.9853,-2.9434,-2.8955,-2.8545,-2.835,-2.832,-2.8301,-2.8301,-2.8301,-2.8301,-2.8301,-2.8301,-2.8301,-2.8301,-2.8301,-2.8301,-2.8301,-2.8301,-2.8301,-2.8301,-2.8301,-2.8301,-2.8301,-2.831,-2.8379,-2.8418,-2.8559,-2.9416,-2.9164,-2.8953,-2.9102,-2.925,-2.8398,-2.8291,-2.8301,-2.8301,-2.8601,-2.9765,-3.2805,-3.4289,-3.4679,-3.5445,-3.5756,-3.5696,-3.5596,-3.529,-3.4801,-3.4299,-3.4016,-3.3702,-3.3564,-3.3275,-3.3136,-3.3136,-3.3086,-3.278,-3.2717,-3.2453,-3.2089,-3.1587,-3.1373,-3.0934,-3.0093,-2.9779,-2.9779,-2.9779,-2.9779,-2.9503,-2.9315,-2.9189,-2.8913,-2.8323,-2.7708,-2.718,-2.6713,-2.6386,-2.6411,-2.6474,-2.6424,-2.5808,-2.5285,-2.5084,-2.4725,-2.4311,-2.3954,-2.3715,-3.6127,-3.6813,-3.6656,-3.5486,-3.4157,-3.5252,-3.5046,-3.3786,-3.3534,-3.3418,-3.3418,-3.3418,-3.3418,-3.334,-3.3037,-3.2627,-3.2158,-3.1719,-3.1289,-3.0947,-3.0898,-3.0898,-3.0898,-3.0898,-3.0898,-3.0898,-3.0898,-3.0625,-3.0322,-3.0156,-2.9707,-2.9121,-2.8935,-2.8701,-2.8486,-2.8496,-2.8301,-2.832,-2.833,-2.832,-2.832,-2.832,-2.8301,-2.8301,-2.8301,-2.8301,-2.8301,-2.8301,-2.8301,-2.8301,-2.831,-2.8301,-2.835,-2.8662,-2.8799,-2.873,-2.8697,-2.8451,-2.8393,-2.8611,-2.8751,-2.8344,-2.8291,-2.8301,-2.8301,-2.8398,-2.9102,-3.0473,-3.2705,-3.4129,-3.4666,-3.5485,-3.5996,-3.6147,-3.59,-3.5943,-3.5751,-3.5085,-3.4733,-3.3916,-3.3627,-3.3338,-3.3199,-3.3106,-3.3043,-3.3006,-3.2893,-3.2528,-3.2265,-3.2051,-3.1813,-3.1035,-3.0256,-3.0181,-3.003,-2.9993,-2.9804,-2.9628,-2.9503,-2.9402,-2.8913,-2.8323,-2.7821,-2.7379,-2.6977,-2.6537,-2.6487,-2.6361,-2.6135,-2.5908,-2.5598,-2.5234,-2.4833,-2.4469,-2.4167,-3.4858,-3.5217,-3.4911,-3.4269,-3.3554,-3.4195,-3.407,-3.3471,-3.3418,-3.3418,-3.3418,-3.3418,-3.3418,-3.333,-3.2978,-3.2568,-3.2139,-3.1719,-3.1299,-3.0967,-3.0898,-3.0898,-3.0898,-3.0898,-3.0898,-3.0898,-3.0889,-3.084,-3.0547,-3.0293,-2.9932,-2.9678,-2.9404,-2.9238,-2.8935,-2.9004,-2.9033,-2.8965,-2.8809,-2.8662,-2.8594,-2.8437,-2.831,-2.831,-2.832,-2.833,-2.833,-2.8301,-2.8301,-2.834,-2.8476,-2.8643,-2.875,-2.9023,-2.9287,-2.9268,-2.9196,-2.8971,-2.8682,-2.8457,-2.8379,-2.831,-2.831,-2.8301,-2.8301,-2.8374,-2.8887,-3.0266,-3.1286,-3.2376,-3.3101,-3.3688,-3.4459,-3.5066,-3.5943,-3.631,-3.6405,-3.638,-3.5801,-3.4859,-3.4016,-3.3803,-3.3508,-3.3357,-3.3244,-3.3099,-3.3074,-3.2855,-3.2742,-3.2717,-3.2453,-3.2102,-3.1336,-3.0721,-3.0495,-3.0344,-3.008,-2.9892,-2.9741,-2.9616,-2.9428,-2.8963,-2.8473,-2.7921,-2.7442,-2.704,-2.6713,-2.6424,-2.6298,-2.621,-2.6122,-2.5757,-2.5372,-2.5222,-2.4833,-3.4014,-3.3877,-3.3555,-3.3418,-3.3418,-3.3418,-3.3418,-3.3418,-3.3418,-3.3418,-3.3418,-3.3418,-3.3418,-3.332,-3.2988,-3.2568,-3.2199,-3.1719,-3.1289,-3.1016,-3.0898,-3.0898,-3.0898,-3.0898,-3.0898,-3.0898,-3.0898,-3.0859,-3.0771,-3.0576,-3.0342,-3.0205,-2.9853,-2.9695,-2.9626,-2.9492,-2.9518,-2.9489,-2.9209,-2.9092,-2.9033,-2.8809,-2.8691,-2.8643,-2.8613,-2.8613,-2.8603,-2.8652,-2.8662,-2.873,-2.8926,-2.9082,-2.9141,-2.9473,-2.9697,-2.9717,-2.9668,-2.956,-2.9258,-2.8984,-2.8672,-2.8555,-2.8389,-2.8398,-2.8691,-2.8657,-2.8873,-3.0058,-3.0769,-3.1355,-3.187,-3.2401,-3.3195,-3.4379,-3.5429,-3.5968,-3.6405,-3.6332,-3.632,-3.5789,-3.4997,-3.4431,-3.411,-3.3759,-3.3483,-3.3212,-3.3124,-3.3124,-3.3124,-3.3068,-3.2905,-3.2634,-3.2332,-3.1512,-3.0972,-3.0721,-3.0432,-3.0218,-3.0068,-2.9842,-2.9666,-2.9503,-2.9176,-2.8586,-2.8058,-2.8108,-2.8108,-2.7278,-2.6487,-2.6373,-2.6285,-2.6197,-2.5996,-2.5787,-2.541,-3.3828,-3.3457,-3.3428,-3.3418,-3.3418,-3.3418,-3.3418,-3.3418,-3.3418,-3.3418,-3.3418,-3.3418,-3.3418,-3.333,-3.3037,-3.2627,-3.2168,-3.1719,-3.1348,-3.1064,-3.0898,-3.0898,-3.0898,-3.0898,-3.0898,-3.0898,-3.0898,-3.0898,-3.0889,-3.082,-3.0537,-3.0244,-3.0205,-2.9922,-2.9795,-2.9861,-2.9785,-2.9802,-2.959,-2.9531,-2.9502,-2.9414,-2.9375,-2.9394,-2.9443,-2.9482,-2.9518,-2.9365,-2.9326,-2.9316,-2.9453,-2.9521,-2.959,-2.9941,-3.0137,-3.0166,-3.0166,-3.0098,-2.9922,-2.958,-2.9463,-2.9238,-2.8945,-2.8789,-2.9414,-2.9538,-2.9639,-2.9788,-3.0438,-3.1042,-3.1721,-3.2303,-3.2449,-3.3107,-3.4023,-3.4544,-3.5246,-3.6298,-3.6332,-3.632,-3.5893,-3.5136,-3.421,-3.3761,-3.3652,-3.337,-3.3136,-3.3124,-3.3124,-3.3124,-3.3124,-3.2998,-3.3011,-3.2432,-3.1524,-3.1198,-3.1047,-3.0809,-3.0583,-3.0244,-2.9917,-2.9767,-2.9553,-2.9453,-2.9013,-2.9252,-2.9277,-2.8309,-2.7429,-2.6763,-2.6436,-2.6336,-2.6235,-2.6059,-2.5636,-3.3574,-3.3418,-3.3418,-3.3418,-3.3418,-3.3418,-3.3418,-3.3418,-3.3418,-3.3418,-3.3418,-3.3418,-3.3418,-3.3359,-3.3291,-3.2949,-3.2539,-3.2109,-3.1689,-3.1289,-3.1064,-3.0918,-3.0898,-3.0918,-3.0898,-3.0898,-3.0898,-3.0898,-3.0898,-3.0898,-3.083,-3.0654,-3.0586,-3.0557,-3.041,-3.035,-3.0322,-3.0254,-3.0098,-2.9951,-2.9893,-2.9678,-2.958,-2.958,-2.958,-2.958,-2.9607,-2.957,-2.957,-2.9658,-2.9844,-2.9922,-3.0,-3.0371,-3.0547,-3.0576,-3.0576,-3.0576,-3.0459,-3.0019,-2.959,-2.9541,-2.9316,-2.9424,-3.0195,-3.0351,-3.0019,-3.0076,-3.0101,-3.0651,-3.0555,-3.0751,-3.0977,-3.1657,-3.229,-3.2892,-3.3589,-3.4533,-3.6143,-3.6131,-3.5984,-3.5541,-3.4541,-3.353,-3.3588,-3.3558,-3.3283,-3.3124,-3.3124,-3.3124,-3.3124,-3.3124,-3.3124,-3.2905,-3.2064,-3.1825,-3.17,-3.1399,-3.1097,-3.0758,-3.0382,-2.988,-2.9729,-2.9779,-2.9779,-2.9654,-2.939,-2.8976,-2.8297,-2.7379,-2.6801,-2.6461,-2.6361,-2.626,-2.5937,-3.3418,-3.3418,-3.3418,-3.3418,-3.3418,-3.3418,-3.3418,-3.3418,-3.3418,-3.3418,-3.3418,-3.3418,-3.3418,-3.3418,-3.3398,-3.3174,-3.2793,-3.2461,-3.2109,-3.1768,-3.1465,-3.1211,-3.1123,-3.1064,-3.1055,-3.0947,-3.0898,-3.0898,-3.0898,-3.0898,-3.0869,-3.0859,-3.0889,-3.085,-3.085,-3.0898,-3.0898,-3.0791,-3.0625,-3.04,-3.0351,-3.0166,-3.0019,-3.0029,-3.0049,-3.0059,-3.0078,-3.0088,-3.0125,-3.0137,-3.0244,-3.0381,-3.0508,-3.0664,-3.0859,-3.0898,-3.0898,-3.0898,-3.0713,-3.043,-2.998,-3.0059,-3.0039,-3.0303,-3.0703,-3.0889,-3.0498,-3.0166,-3.0076,-3.0017,-2.9978,-3.0267,-3.0362,-3.1021,-3.0449,-3.082,-3.1129,-3.1977,-3.4338,-3.5893,-3.5794,-3.5744,-3.4617,-3.3577,-3.3168,-3.3358,-3.3539,-3.3283,-3.3124,-3.3124,-3.3124,-3.3124,-3.3124,-3.2842,-3.2554,-3.2428,-3.2265,-3.1876,-3.1587,-3.1323,-3.0934,-3.0382,-2.9892,-2.9792,-2.9779,-2.9779,-2.9616,-2.9315,-2.8624,-2.7795,-2.7316,-2.6839,-2.6461,-2.6373,-2.6411,-3.3418,-3.3418,-3.3418,-3.3418,-3.3418,-3.3418,-3.3418,-3.3418,-3.3418,-3.3418,-3.3418,-3.3418,-3.3418,-3.3418,-3.3418,-3.3213,-3.2949,-3.2773,-3.2519,-3.2187,-3.1963,-3.1816,-3.1631,-3.1475,-3.1338,-3.0986,-3.1025,-3.1103,-3.0898,-3.0986,-3.0967,-3.0898,-3.0898,-3.0898,-3.0898,-3.0898,-3.0898,-3.0889,-3.083,-3.0801,-3.0771,-3.0693,-3.0664,-3.0644,-3.0625,-3.0605,-3.0596,-3.0596,-3.0586,-3.0635,-3.0674,-3.0752,-3.0801,-3.082,-3.0898,-3.0898,-3.0898,-3.0898,-3.0869,-3.084,-3.0742,-3.0664,-3.0557,-3.0742,-3.085,-3.0879,-3.0859,-3.0537,-3.0654,-3.0723,-3.0644,-3.0459,-3.0435,-3.0305,-2.9753,-2.9685,-3.0177,-2.9765,-3.2129,-3.3737,-3.5102,-3.5773,-3.4667,-3.3645,-3.2981,-3.2993,-3.3527,-3.3514,-3.3264,-3.3124,-3.3124,-3.3124,-3.3124,-3.3036,-3.2842,-3.2998,-3.2847,-3.2403,-3.2102,-3.1876,-3.1461,-3.0884,-3.0419,-2.9993,-2.9779,-2.9779,-2.9779,-2.9729,-2.9001,-2.8285,-2.7695,-2.7241,-2.6813,-2.6537,-2.6612,-3.3418,-3.3418,-3.3418,-3.3418,-3.3418,-3.3418,-3.3418,-3.3418,-3.3418,-3.3418,-3.3418,-3.3418,-3.3418,-3.3418,-3.3408,-3.332,-3.3193,-3.2851,-3.2637,-3.2588,-3.2363,-3.2129,-3.1973,-3.1904,-3.1719,-3.1504,-3.1494,-3.1338,-3.0898,-3.1152,-3.1084,-3.0976,-3.1016,-3.0898,-3.0898,-3.0898,-3.0898,-3.0898,-3.0889,-3.0889,-3.0898,-3.0898,-3.0898,-3.0898,-3.0898,-3.0898,-3.0898,-3.0898,-3.0898,-3.0898,-3.0898,-3.0898,-3.0898,-3.0898,-3.0898,-3.0898,-3.0898,-3.0898,-3.0898,-3.0879,-3.0889,-3.0898,-3.0898,-3.0898,-3.0898,-3.0898,-3.0898,-3.0898,-3.0898,-3.0898,-3.0801,-3.0762,-3.076,-3.0712,-3.0449,-3.042,-3.0432,-2.9273,-2.966,-3.0618,-3.1825,-3.2682,-3.2291,-3.2335,-3.1975,-3.24,-3.2901,-3.3543,-3.3564,-3.3232,-3.3124,-3.3124,-3.3124,-3.3124,-3.3081,-3.2797,-3.2754,-3.2455,-3.2421,-3.2516,-3.2014,-3.1354,-3.0894,-3.0455,-3.0079,-2.9779,-2.9456,-2.9213,-2.9263,-2.8825,-2.7916,-2.7478,-2.7253,-2.6989,-2.6901,-3.3418,-3.3418,-3.3418,-3.3418,-3.3418,-3.3418,-3.3418,-3.3418,-3.3418,-3.3418,-3.3418,-3.3418,-3.3418,-3.3418,-3.3418,-3.3418,-3.3379,-3.3164,-3.3018,-3.2978,-3.2764,-3.2568,-3.2451,-3.2353,-3.2119,-3.1943,-3.1924,-3.1826,-3.1445,-3.1621,-3.1611,-3.1465,-3.1318,-3.1426,-3.1328,-3.1172,-3.0898,-3.0898,-3.0898,-3.0898,-3.0898,-3.0898,-3.0898,-3.0898,-3.0898,-3.0898,-3.0898,-3.0898,-3.0898,-3.0908,-3.0898,-3.0898,-3.0898,-3.0908,-3.0898,-3.0898,-3.0898,-3.0967,-3.1084,-3.0918,-3.0918,-3.0898,-3.0898,-3.0898,-3.0898,-3.0898,-3.0898,-3.0898,-3.0898,-3.0898,-3.0898,-3.0898,-3.0889,-3.0879,-3.0859,-3.081,-3.0586,-2.9434,-2.9104,-2.9809,-2.954,-3.0015,-3.0442,-3.0566,-3.0737,-3.1494,-3.2313,-3.2947,-3.3603,-3.3319,-3.3165,-3.3357,-3.2953,-3.2655,-3.2469,-3.2196,-3.2239,-3.2426,-3.224,-3.2,-3.2361,-3.1662,-3.1278,-3.0866,-3.0342,-2.9747,-2.8907,-2.8579,-2.8526,-2.8213,-2.7532,-2.7353,-2.7527,-2.7303,-2.6999,-3.3418,-3.3418,-3.3418,-3.3418,-3.3418,-3.3418,-3.3418,-3.3418,-3.3418,-3.3418,-3.3418,-3.3418,-3.3418,-3.3418,-3.3418,-3.3418,-3.3418,-3.3316,-3.3296,-3.3359,-3.3213,-3.3037,-3.2891,-3.2793,-3.2549,-3.2324,-3.2266,-3.2344,-3.2219,-3.2041,-3.2031,-3.206,-3.1943,-3.1934,-3.1738,-3.1475,-3.1172,-3.1191,-3.1191,-3.1201,-3.1221,-3.1113,-3.1162,-3.1172,-3.1162,-3.1152,-3.1133,-3.1064,-3.1006,-3.0957,-3.0918,-3.0918,-3.0928,-3.0937,-3.0937,-3.0967,-3.1025,-3.126,-3.1426,-3.123,-3.0967,-3.0947,-3.0898,-3.0898,-3.0898,-3.0898,-3.0898,-3.0898,-3.0898,-3.0898,-3.0898,-3.0898,-3.0898,-3.0889,-3.0889,-3.0879,-3.0879,-3.0449,-3.0166,-2.9931,-2.9179,-2.9283,-2.9855,-2.9993,-2.9951,-3.0285,-3.1088,-3.1995,-3.2591,-3.3129,-3.3121,-3.3784,-3.3189,-3.2145,-3.1821,-3.1424,-3.119,-3.119,-3.0687,-3.0504,-3.1117,-3.1828,-3.1656,-3.1182,-3.0526,-2.9648,-2.8255,-2.7747,-2.778,-2.7347,-2.6806,-2.6755,-2.678,-2.7024,-2.6817,-3.3418,-3.3418,-3.3418,-3.3418,-3.3418,-3.3418,-3.3418,-3.3418,-3.3418,-3.3418,-3.3418,-3.3418,-3.3418,-3.3418,-3.3418,-3.3418,-3.3418,-3.3418,-3.3408,-3.3418,-3.3418,-3.333,-3.3262,-3.3164,-3.2949,-3.2842,-3.2783,-3.2715,-3.2295,-3.2268,-3.2217,-3.2148,-3.2295,-3.2256,-3.2148,-3.1924,-3.1846,-3.1768,-3.1748,-3.168,-3.1699,-3.1689,-3.1699,-3.1689,-3.168,-3.168,-3.166,-3.1445,-3.1367,-3.1328,-3.1035,-3.0986,-3.1338,-3.1611,-3.1867,-3.1807,-3.1886,-3.1875,-3.1943,-3.1865,-3.1611,-3.1162,-3.1006,-3.0898,-3.0898,-3.1016,-3.1025,-3.1064,-3.1006,-3.1006,-3.0967,-3.0947,-3.0918,-3.0898,-3.0898,-3.0898,-3.0898,-3.082,-3.0557,-3.0332,-2.9531,-2.9168,-2.9675,-2.944,-2.942,-2.9444,-2.9869,-3.0773,-3.166,-3.2236,-3.2298,-3.2897,-3.2293,-3.0882,-3.0714,-3.0384,-3.0102,-2.9863,-2.9315,-2.9177,-3.001,-3.077,-3.1512,-3.14,-3.0503,-2.8901,-2.7092,-2.6917,-2.7101,-2.6524,-2.6008,-2.6013,-2.6052,-2.6232,-2.6236,-3.3418,-3.3418,-3.3418,-3.3418,-3.3418,-3.3418,-3.3418,-3.3418,-3.3418,-3.3418,-3.3418,-3.3418,-3.3418,-3.3418,-3.3418,-3.3418,-3.3418,-3.3418,-3.3418,-3.3418,-3.3418,-3.3398,-3.3408,-3.3398,-3.3262,-3.3213,-3.3193,-3.3125,-3.2715,-3.2656,-3.2695,-3.2715,-3.2666,-3.2646,-3.2676,-3.2695,-3.2676,-3.2519,-3.2373,-3.2226,-3.2197,-3.2268,-3.2229,-3.2207,-3.2207,-3.2207,-3.2187,-3.1875,-3.1807,-3.166,-3.1269,-3.1201,-3.1611,-3.2031,-3.2209,-3.217,-3.216,-3.2217,-3.2334,-3.2207,-3.2041,-3.1855,-3.1572,-3.167,-3.1699,-3.1816,-3.1641,-3.1504,-3.1299,-3.1143,-3.1074,-3.1006,-3.0947,-3.0898,-3.0898,-3.0898,-3.0898,-3.0898,-3.082,-3.0752,-3.0273,-2.9678,-2.9391,-2.9111,-2.8922,-2.9011,-2.8953,-2.9154,-3.0369,-3.1482,-3.1173,-3.1074,-3.0297,-2.9229,-2.9263,-2.9353,-2.9009,-2.8567,-2.7757,-2.7898,-2.8866,-2.967,-3.0303,-3.0469,-3.035,-2.8549,-2.6572,-2.642,-2.6389,-2.5699,-2.4967,-2.4746,-2.4879,-2.5333,-2.5171,-3.3418,-3.3418,-3.3418,-3.3418,-3.3418,-3.3418,-3.3418,-3.3418,-3.3418,-3.3418,-3.3418,-3.3418,-3.3418,-3.3418,-3.3418,-3.3418,-3.3418,-3.3418,-3.3418,-3.3418,-3.3418,-3.3418,-3.3418,-3.3408,-3.3359,-3.3389,-3.3389,-3.333,-3.3379,-3.3262,-3.3203,-3.3418,-3.333,-3.3242,-3.3203,-3.3213,-3.3174,-3.3096,-3.2754,-3.2471,-3.2412,-3.2395,-3.2326,-3.2334,-3.2344,-3.2344,-3.2324,-3.2266,-3.2217,-3.1934,-3.168,-3.1533,-3.2051,-3.2363,-3.2373,-3.2373,-3.2461,-3.2598,-3.2715,-3.2617,-3.2812,-3.2773,-3.2744,-3.2656,-3.2588,-3.2519,-3.2314,-3.1846,-3.1592,-3.1396,-3.1299,-3.1055,-3.0918,-3.0898,-3.0898,-3.0898,-3.0898,-3.0898,-3.0869,-3.0801,-3.0615,-3.0068,-2.9717,-2.9482,-2.918,-2.8926,-2.8736,-2.8564,-2.9006,-3.0421,-3.0266,-2.966,-2.9136,-2.8584,-2.8419,-2.8421,-2.795,-2.7356,-2.6693,-2.6706,-2.772,-2.8437,-2.9074,-2.897,-2.8711,-2.781,-2.652,-2.6228,-2.5592,-2.4454,-2.3821,-2.3373,-2.3607,-2.4352,-2.4324,-3.3418,-3.3418,-3.3418,-3.3418,-3.3418,-3.3418,-3.3418,-3.3418,-3.3418,-3.3418,-3.3418,-3.3418,-3.3418,-3.3418,-3.3418,-3.3418,-3.3418,-3.3418,-3.3418,-3.3418,-3.3418,-3.3418,-3.3418,-3.3418,-3.3418,-3.3418,-3.3418,-3.3418,-3.3418,-3.3418,-3.3418,-3.3418,-3.3418,-3.3418,-3.3418,-3.3418,-3.3408,-3.3389,-3.3203,-3.2969,-3.2988,-3.3076,-3.3125,-3.3086,-3.3066,-3.3018,-3.2949,-3.2783,-3.2705,-3.2519,-3.2139,-3.2373,-3.3047,-3.3086,-3.3115,-3.3125,-3.3018,-3.3086,-3.3105,-3.3057,-3.3184,-3.3252,-3.3213,-3.3271,-3.3262,-3.3174,-3.2861,-3.2305,-3.1904,-3.1709,-3.1484,-3.1191,-3.0937,-3.0928,-3.0898,-3.0898,-3.0898,-3.0898,-3.0898,-3.083,-3.0752,-3.0488,-3.0127,-2.9814,-2.9512,-2.9228,-2.8965,-2.8711,-2.8452,-2.9154,-2.9313,-2.8857,-2.8698,-2.8284,-2.8095,-2.7784,-2.75,-2.6989,-2.6418,-2.6512,-2.6726,-2.7067,-2.75,-2.7191,-2.6765,-2.6416,-2.6187,-2.5766,-2.4951,-2.3885,-2.3408,-2.332,-2.3169,-2.3701,-2.3564,-3.3418,-3.3418,-3.3418,-3.3418,-3.3418,-3.3418,-3.3418,-3.3418,-3.3418,-3.3418,-3.3418,-3.3418,-3.3418,-3.3418,-3.3418,-3.3418,-3.3418,-3.3418,-3.3418,-3.3418,-3.3418,-3.3418,-3.3418,-3.3418,-3.3418,-3.3418,-3.3418,-3.3418,-3.3418,-3.3418,-3.3418,-3.3418,-3.3418,-3.3418,-3.3418,-3.3418,-3.3418,-3.3418,-3.3418,-3.3418,-3.3418,-3.3418,-3.3418,-3.3418,-3.3418,-3.3418,-3.3369,-3.3184,-3.3125,-3.3057,-3.2822,-3.2871,-3.3271,-3.333,-3.3379,-3.3379,-3.3359,-3.3418,-3.3418,-3.3418,-3.3418,-3.3418,-3.3418,-3.3379,-3.3379,-3.3281,-3.3271,-3.2773,-3.2471,-3.2256,-3.2021,-3.1748,-3.1396,-3.125,-3.1035,-3.0898,-3.0898,-3.0898,-3.0898,-3.0879,-3.082,-3.0762,-3.043,-3.0166,-2.9834,-2.9414,-2.916,-2.876,-2.8486,-2.8301,-2.8301,-2.8301,-2.8301,-2.8291,-2.8203,-2.7823,-2.7317,-2.6761,-2.6299,-2.6202,-2.6307,-2.6005,-2.5829,-2.6096,-2.6179,-2.6119,-2.5795,-2.5508,-2.5048,-2.4258,-2.3789,-2.3477,-2.3379,-2.3227,-2.3218,-3.3418,-3.3418,-3.3418,-3.3418,-3.3418,-3.3418,-3.3418,-3.3418,-3.3418,-3.3418,-3.3418,-3.3418,-3.3418,-3.3418,-3.3418,-3.3418,-3.3418,-3.3418,-3.3418,-3.3418,-3.3418,-3.3418,-3.3418,-3.3418,-3.3418,-3.3418,-3.3418,-3.3418,-3.3418,-3.3418,-3.3418,-3.3418,-3.3418,-3.3418,-3.3418,-3.3418,-3.3418,-3.3418,-3.3418,-3.3418,-3.3418,-3.3418,-3.3418,-3.3418,-3.3418,-3.3418,-3.3418,-3.3408,-3.3408,-3.3379,-3.331,-3.334,-3.3359,-3.3418,-3.3418,-3.3418,-3.3418,-3.3418,-3.3418,-3.3418,-3.3418,-3.3418,-3.3418,-3.3418,-3.3418,-3.3408,-3.3389,-3.3242,-3.2939,-3.2695,-3.2461,-3.2178,-3.1816,-3.1435,-3.1162,-3.0898,-3.0898,-3.0898,-3.0898,-3.0898,-3.0889,-3.0879,-3.0713,-3.0449,-3.0127,-2.9697,-2.9258,-2.8809,-2.8476,-2.8359,-2.8301,-2.8301,-2.8301,-2.8281,-2.8271,-2.7891,-2.7395,-2.7109,-2.6738,-2.6289,-2.5918,-2.5752,-2.5684,-2.5723,-2.5771,-2.5838,-2.57,-2.5411,-2.4938,-2.4551,-2.4189,-2.3838,-2.3603,-2.3486,-2.3237,-3.3418,-3.3418,-3.3418,-3.3418,-3.3418,-3.3418,-3.3418,-3.3418,-3.3418,-3.3418,-3.3418,-3.3418,-3.3418,-3.3418,-3.3418,-3.3418,-3.3418,-3.3418,-3.3418,-3.3418,-3.3418,-3.3418,-3.3418,-3.3418,-3.3418,-3.3418,-3.3418,-3.3418,-3.3418,-3.3418,-3.3418,-3.3418,-3.3418,-3.3418,-3.3418,-3.3418,-3.3418,-3.3418,-3.3418,-3.3418,-3.3418,-3.3418,-3.3418,-3.3418,-3.3418,-3.3418,-3.3418,-3.3418,-3.3418,-3.3418,-3.3418,-3.3418,-3.3418,-3.3418,-3.3418,-3.3418,-3.3418,-3.3418,-3.3418,-3.3418,-3.3418,-3.3418,-3.3418,-3.3418,-3.3418,-3.3418,-3.3389,-3.335,-3.3096,-3.2891,-3.2656,-3.2363,-3.2021,-3.1572,-3.1221,-3.1006,-3.0898,-3.0898,-3.0898,-3.0898,-3.0889,-3.0889,-3.0859,-3.0644,-3.0498,-3.0078,-2.9697,-2.9209,-2.8428,-2.834,-2.8301,-2.8301,-2.8301,-2.8291,-2.8281,-2.8018,-2.7598,-2.7412,-2.7139,-2.6621,-2.6172,-2.5752,-2.5684,-2.5684,-2.5684,-2.5752,-2.5547,-2.543,-2.5234,-2.4922,-2.457,-2.4238,-2.3984,-2.3691,-2.3496]},{"header":{"parameterUnit":"m.s-1","parameterCategory":1,"la1":31.0,"la2":29.5877,"lo1":-88.7671,"lo2":-86.6584,"dy":0.0162,"dx":0.0185,"nx":115,"ny":88,"refTime":"2026-05-17T00:00:00:Z","depth":0,"parameterNumber":3,"parameterNumberName":"V-component_of_WINDS"},"data":[0.0,0.0,0.0,0.0,0.0,0.0,0.0,0.0,0.0,0.0,0.0,0.0,0.0,0.0,0.0,0.0,0.0,0.0,0.0,0.0,0.0,0.0,0.0,0.0,0.0,0.0,0.0,0.0,0.0,0.0,0.0,0.0,0.0,0.0,0.0,0.0,0.0,0.0,0.0,0.0,0.0,0.0,0.0,0.0,0.0,0.0,0.0,0.0,0.0,0.0,0.0,0.0,0.0,0.0,0.0,0.0,0.0,0.0,0.0,0.0,0.0,0.0,0.0,0.0,0.0,0.0,0.0,0.0,0.0,0.0,0.0,0.0,0.0,0.0,0.0,0.0,0.0,0.0,0.0,0.0,0.0,0.0,0.0,0.0,0.0,0.0,0.0,0.0,0.0,0.0,0.0,0.0,0.0,0.0,0.0,0.0,0.0,0.0,0.0,0.0,0.0,0.0,0.0,0.0,0.0,0.0,0.0,0.0,0.0,0.0,0.0,0.0,0.0,0.0,0.0,0.0,0.0,0.0,0.0,0.0,0.0,0.0,0.0,0.0,0.0,0.0,0.0,0.0,0.0,0.0,0.0,0.0,0.0,0.0,0.0,0.0,0.0,0.0,0.0,0.0,0.0,0.0,0.0,0.0,0.0,0.0,0.0,0.0,0.0,0.0,0.0,0.0,0.0,0.0,0.0,0.0,0.0,0.0,0.0,0.0,0.0,0.0,0.0,0.0,0.0,0.0,0.0,0.0,0.0,0.0,0.0,0.0,0.0,0.0,0.0,0.0,0.0,0.0,0.0,0.0,0.0,0.0,0.0,0.0,0.0,0.0,0.0,0.0,0.0,0.0,0.0,0.0,0.0,0.0,0.0,0.0,0.0,0.0,0.0,0.0,0.0,0.0,0.0,0.0,0.0,0.0,0.0,0.0,0.0,0.0,0.0,0.0,0.0,0.0,0.0,0.0,0.0,0.0,0.0,0.0,0.0,0.0,0.0,0.0,0.0,0.0,0.0,0.0,0.0,0.0,0.0,0.0,0.0,0.0,0.0,0.0,0.0,0.0,0.0,0.0,0.0,0.0,0.0,0.0,0.0,0.0,0.0,0.0,0.0,0.0,0.0,0.0,0.0,0.0,0.0,0.0,0.0,0.0,0.0,0.0,0.0,0.0,0.0,0.0,0.0,0.0,0.0,0.0,0.0,0.0,0.0,0.0,0.0,0.0,0.0,0.0,0.0,0.0,0.0,0.0,0.0,0.0,0.0,0.0,0.0,0.0,0.0,0.0,0.0,0.0,0.0,0.0,0.0,0.0,0.0,0.0,0.0,0.0,0.0,0.0,0.0,0.0,0.0,0.0,0.0,0.0,0.0,0.0,0.0,0.0,0.0,0.0,0.0,0.0,0.0,0.0,0.0,0.0,0.0,0.0,0.0,0.0,0.0,0.0,0.0,0.0,0.0,0.0,0.0,0.0,0.0,0.0,0.0,0.0,0.0,0.0,0.0,0.0,0.0,0.0,0.0,0.0,0.0,0.0,0.0,0.0,0.0,0.0,0.0,0.0,0.0,0.0,0.0,0.0,0.0,0.0,0.0,0.0,0.0,0.0,0.0,0.0,0.0,0.0,0.0,0.0,0.0,0.0,0.0,0.0,0.0,0.0,0.0,0.0,0.0,0.0,0.0,0.0,0.0,0.0,0.0,0.0,0.0,0.0,0.0,0.0,0.0,0.0,0.0,0.0,0.0,0.0,0.0,0.0,0.0,0.0,0.0,0.0,0.0,0.0,0.0,0.0,0.0,0.0,0.0,0.0,0.0,0.0,0.0,0.0,0.0,0.0,0.0,0.0,0.0,0.0,0.0,0.0,0.0,0.0,0.0,0.0,0.0,0.0,0.0,0.0,0.0,0.0,0.0,0.0,0.0,0.0,0.0,0.0,0.0,0.0,0.0,0.0,0.0,0.0,0.0,0.0,0.0,0.0,0.0,0.0,0.0,0.0,0.0,0.0,0.0,0.0,0.0,0.0,0.0,0.0,0.0,0.0,0.0,0.0,0.0,0.0,0.0,0.0,0.0,0.0,0.0,0.0,0.0,0.0,0.0,0.0,0.0,0.0,0.0,0.0,0.0,0.0,0.0,0.0,0.0,0.0,0.0,0.0,0.0,0.0,0.0,0.0,0.0,0.0,0.0,0.0,0.0,0.0,0.0,0.0,0.0,0.0,0.0,0.0,0.0,0.0,0.0,0.0,0.0,0.0,0.0,0.0,0.0,0.0,0.0,0.0,0.0,0.0,0.0,0.0,0.0,0.0,0.0,0.0,0.0,0.0,0.0,0.0,0.0,0.0,0.0,0.0,0.0,0.0,0.0,0.0,0.0,0.0,0.0,0.0,0.0,0.0,0.0,0.0,0.0,0.0,0.0,0.0,0.0,0.0,0.0,0.0,0.0,0.0,0.0,0.0,0.0,0.0,0.0,0.0,0.0,0.0,0.0,0.0,0.0,0.0,0.0,0.0,0.0,0.0,0.0,0.0,0.0,0.0,0.0,0.0,0.0,0.0,0.0,0.0,0.0,0.0,0.0,0.0,0.0,0.0,0.0,0.0,0.0,0.0,0.0,0.0,0.0,0.0,0.0,0.0,0.0,0.0,0.0,0.0,0.0,0.0,0.0,0.0,0.0,0.0,0.0,0.0,0.0,0.0,0.0,0.0,0.0,0.0,0.0,0.0,0.0,0.0,0.0,0.0,0.0,0.0,0.0,0.0,0.0,0.0,0.0,0.0,0.0,0.0,0.0,0.0,0.0,0.0,0.0,0.0,0.0,0.0,0.0,0.0,0.0,0.0,0.0,0.0,0.0,0.0,0.0,0.0,0.0,0.0,0.0,0.0,0.0,0.0,0.0,0.0,0.0,0.0,0.0,0.0,0.0,0.0,0.0,0.0,0.0,0.0,0.0,0.0,0.0,0.0,0.0,0.0,0.0,0.0,0.0,0.0,0.0,0.0,0.0,0.0,0.0,0.0,0.0,0.0,0.0,0.0,0.0,0.0,0.0,0.0,0.0,0.0,0.0,0.0,0.0,0.0,0.0,0.0,0.0,0.0,0.0,0.0,0.0,0.0,0.0,0.0,0.0,0.0,0.0,0.0,0.0,0.0,0.0,0.0,0.0,0.0,0.0,0.0,0.0,0.0,0.0,0.0,0.0,0.0,0.0,0.0,0.0,0.0,0.0,0.0,0.0,0.0,0.0,0.0,0.0,0.0,0.0,0.0,0.0,0.0,0.0,0.0,0.0,0.0,0.0,0.0,0.0,0.0,0.0,0.0,0.0,0.0,0.0,0.0,0.0,0.0,0.0,0.0,0.0,0.0,0.0,0.0,0.0,0.0,0.0,0.0,0.0,0.0,0.0,0.0,0.0,0.0,0.0,0.0,0.0,0.0,0.0,0.0,0.0,0.0,0.0,0.0,0.0,0.0,0.0,0.0,0.0,0.0,0.0,0.0,0.0,0.0,0.0,0.0,0.0,0.0,0.0,0.0,0.0,0.0,0.0,0.0,0.0,0.0,0.0,0.0,0.0,0.0,0.0,0.0,0.0,0.0,0.0,0.0,0.0,0.0,0.0,0.0,0.0,0.0,0.0,0.0,0.0,0.0,0.0,0.0,0.0,0.0,0.0,0.0,0.0,0.0,0.0,0.0,0.0,0.0,0.0,0.0,0.0,0.0,0.0,0.0,0.0,0.0,0.0,0.0,0.0,0.0,0.0,0.0,0.0,0.0,0.0,0.0,0.0,0.0,0.0,0.0,0.0,0.0,0.0,0.0,0.0,0.0,0.0,0.0,0.0,0.0,0.0,0.0,0.0,0.0,0.0,0.0,0.0,0.0,0.0,0.0,0.0,0.0,0.0,0.0,0.0,0.0,0.0,0.0,0.0,0.0,0.0,0.0,0.0,0.0,0.0,0.0,0.0,0.0,0.0,0.0,0.0,0.0,0.0,0.0,0.0,0.0,0.0,0.0,0.0,0.0,0.0,0.0,0.0,0.0,0.0,0.0,0.0,0.0,0.0,0.0,0.0,0.0,0.0,0.0,0.0,0.0,0.0,0.0,0.0,0.0,0.0,0.0,0.0,0.0,0.0,0.0,0.0,0.0,0.0,0.0,0.0,0.0,0.0,0.0,0.0,0.0,0.0,0.0,0.0,0.0,0.0,0.0,0.0,0.0,0.0,0.0,0.0,0.0,0.0,0.0,0.0,0.0,0.0,0.0,0.0,0.0,0.0,0.0,0.0,0.0,0.0,0.0,1.3265,0.0,0.0,0.0,0.0,0.0,0.0,0.0,0.0,0.0,0.0,0.0,0.0,0.0,0.0,0.0,0.0,0.0,0.0,0.0,0.0,0.0,0.0,0.0,0.0,0.0,0.0,0.0,0.0,0.0,0.0,0.0,0.0,0.0,0.0,0.0,0.0,0.0,0.0,0.0,0.0,0.0,0.0,0.0,0.0,0.0,0.0,0.0,0.0,0.0,0.0,0.0,0.0,0.0,0.0,0.0,0.0,0.0,0.0,0.0,0.0,0.0,0.0,0.0,0.0,0.0,0.0,0.0,0.0,0.0,0.0,0.0,0.0,0.0,0.0,0.0,0.0,0.0,0.0,0.0,0.0,0.0,0.0,0.0,0.0,0.0,0.0,0.0,0.0,0.0,0.0,0.0,0.0,0.0,0.0,0.0,0.0,0.0,0.0,0.0,0.0,0.0,0.0,0.0,0.0,0.0,0.0,0.0,0.0,0.0,0.0,1.5731,1.4921,1.4884,1.435,1.3261,0.0,0.0,0.0,0.0,0.0,0.0,0.0,0.0,0.0,0.0,0.0,0.0,0.0,0.0,0.0,0.0,0.0,0.0,0.0,0.0,0.0,0.0,0.0,0.0,0.0,0.0,0.0,0.0,0.0,0.0,0.0,0.0,0.0,0.0,0.0,0.0,0.0,0.0,0.0,0.0,0.0,0.0,0.0,0.0,0.0,0.0,0.0,0.0,0.0,0.0,0.0,0.0,0.0,0.0,0.0,0.0,0.0,0.0,0.0,0.0,0.0,0.0,0.0,0.0,0.0,0.0,0.0,0.0,0.0,0.0,0.0,0.0,0.0,0.0,0.0,0.0,0.0,0.0,0.0,0.0,0.0,0.0,0.0,0.0,0.0,0.0,0.0,0.0,0.0,0.0,0.0,0.0,0.0,0.0,0.0,0.0,0.0,0.0,0.0,0.0,0.0,0.0,0.0,0.0,0.0,0.0,0.0,0.0,0.0,0.0,0.0,0.0,1.5399,1.4947,1.3842,0.0,0.0,0.0,0.0,0.0,0.0,0.0,0.0,0.0,0.0,0.0,0.0,0.0,0.0,0.0,0.0,0.0,0.0,0.0,0.0,0.0,0.0,0.0,0.0,0.0,0.0,0.0,0.0,0.0,0.0,0.0,0.0,0.0,0.0,0.0,0.0,0.0,0.0,0.0,0.0,0.0,0.0,0.0,0.0,0.0,0.0,0.0,0.0,0.0,0.0,0.0,0.0,0.0,0.0,0.0,0.0,0.0,0.0,0.0,0.0,0.0,0.0,0.0,0.0,0.0,0.0,0.0,0.0,0.0,0.0,0.0,0.0,0.0,0.0,0.0,0.0,0.0,0.0,0.0,0.0,0.0,0.0,0.0,0.0,0.0,0.0,0.0,0.0,0.0,0.0,0.0,0.0,0.0,0.0,0.0,0.0,0.0,0.0,0.0,0.0,0.0,0.0,0.0,0.0,0.0,0.0,0.0,0.0,0.0,0.0,1.645,1.6384,1.6861,0.0,1.558,0.0,0.0,0.0,0.0,0.0,0.0,0.0,0.0,0.0,0.0,0.0,0.0,0.0,0.0,0.0,0.0,0.0,0.0,0.0,0.0,0.0,0.0,0.0,0.0,0.0,0.0,0.0,0.0,0.0,0.0,0.0,0.0,0.0,0.0,0.0,0.0,0.0,0.0,0.0,0.0,0.0,0.0,0.0,0.0,0.0,0.0,0.0,0.0,0.0,0.0,0.0,0.0,0.0,0.0,0.0,0.0,0.0,0.0,0.0,0.0,0.0,0.0,0.0,0.0,0.0,0.0,0.0,0.0,0.0,0.0,0.0,0.0,0.0,0.0,0.0,0.0,0.0,0.0,0.0,0.0,0.0,0.0,0.0,0.0,0.0,0.0,0.0,0.0,0.0,0.0,0.0,0.0,0.0,0.0,0.0,0.0,0.0,0.0,0.0,0.0,0.0,0.0,0.0,0.0,0.0,0.0,0.0,0.0,0.0,0.0,1.7363,1.7049,1.6609,1.617,0.0,0.0,0.0,0.0,0.0,0.0,0.0,0.0,0.0,0.0,0.0,0.0,0.0,0.0,0.0,0.0,0.0,0.0,0.0,0.0,0.0,0.0,0.0,0.0,0.0,0.0,0.0,0.0,0.0,0.0,0.0,0.0,0.0,0.0,0.0,0.0,0.0,0.0,0.0,0.0,0.0,0.0,0.0,0.0,0.0,0.0,0.0,0.0,0.0,0.0,0.0,0.0,0.0,0.0,0.0,0.0,0.0,0.0,0.0,0.0,0.0,0.0,0.0,0.0,0.0,0.0,0.0,0.0,0.0,0.0,0.0,0.0,0.0,0.0,0.0,0.0,0.0,0.0,0.0,0.0,0.0,0.0,0.0,0.0,0.0,0.0,0.0,0.0,0.0,0.0,0.0,0.0,0.0,0.0,0.0,0.0,0.0,0.0,0.0,0.0,0.0,0.0,0.0,0.0,0.0,0.0,0.0,0.0,0.0,0.0,1.8028,0.0,1.7802,1.6886,1.617,1.5718,0.0,0.0,0.0,0.0,0.0,0.0,0.0,0.0,0.0,0.0,0.0,0.0,0.0,0.0,0.0,0.0,0.0,0.0,0.0,0.0,0.0,0.0,0.0,0.0,0.0,0.0,0.0,0.0,0.0,0.0,0.0,0.0,0.0,0.0,0.0,0.0,0.0,0.0,0.0,0.0,0.0,0.0,0.0,0.0,0.0,0.0,0.0,0.0,0.0,0.0,0.0,0.0,0.0,0.0,0.0,0.0,0.0,0.0,0.0,0.0,0.0,0.0,0.0,0.0,0.0,0.0,0.0,0.0,0.0,0.0,0.0,0.0,0.0,0.0,0.0,0.0,0.0,0.0,0.0,0.0,0.0,0.0,0.0,0.0,0.0,0.0,0.0,0.0,0.0,0.0,0.0,0.0,0.0,0.0,0.0,0.0,0.0,0.0,0.0,0.0,0.0,0.0,0.0,0.0,0.0,0.0,0.0,0.0,0.0,1.8957,1.8418,1.8907,1.8392,1.735,0.0,0.0,0.0,0.0,0.0,0.0,0.0,0.0,0.0,0.0,0.0,0.0,0.0,0.0,0.0,0.0,0.0,0.0,0.0,0.0,0.0,0.0,0.0,0.0,0.0,0.0,0.0,0.0,0.0,0.0,0.0,0.0,0.0,0.0,0.0,0.0,0.0,0.0,0.0,0.0,0.0,0.0,0.0,0.0,0.0,0.0,0.0,0.0,0.0,0.0,0.0,0.0,0.0,0.0,0.0,0.0,0.0,0.0,0.0,0.0,0.0,0.0,0.0,0.0,0.0,0.0,0.0,0.0,0.0,0.0,0.0,0.0,0.0,0.0,0.0,0.0,0.0,0.0,0.0,0.0,0.0,0.0,0.0,0.0,0.0,0.0,0.0,0.0,0.0,0.0,0.0,0.0,0.0,0.0,0.0,0.0,0.0,0.0,0.0,0.0,0.0,0.0,0.0,0.0,0.0,0.0,0.0,0.0,0.0,1.794,1.78,1.8631,2.0413,1.8028,1.6823,0.0,0.0,0.0,0.0,0.0,0.0,0.0,0.0,0.0,0.0,0.0,0.0,0.0,0.0,0.0,0.0,0.0,0.0,0.0,0.0,0.0,0.0,0.0,0.0,0.0,0.0,0.0,0.0,0.0,0.0,0.0,0.0,0.0,0.0,0.0,0.0,0.0,0.0,0.0,0.0,0.0,0.0,0.0,0.0,0.0,0.0,0.0,0.0,0.0,0.0,0.0,0.0,0.0,0.0,0.0,0.0,0.0,0.0,0.0,0.0,0.0,0.0,0.0,0.0,0.0,0.0,0.0,0.0,0.0,0.0,0.0,0.0,0.0,0.0,0.0,0.0,0.0,0.0,0.0,0.0,0.0,0.0,0.0,0.0,0.0,0.0,0.0,0.0,0.0,0.0,0.0,0.0,0.0,0.0,0.0,0.0,0.0,0.0,0.0,0.0,0.0,0.0,0.0,0.0,0.0,0.0,0.0,0.0,0.0,1.7576,0.0,1.9459,0.0,1.7903,1.6547,0.0,0.0,0.0,0.0,0.0,0.0,0.0,0.0,0.0,0.0,0.0,0.0,0.0,0.0,0.0,0.0,0.0,0.0,0.0,0.0,0.0,0.0,0.0,0.0,0.0,0.0,0.0,0.0,0.0,0.0,0.0,0.0,0.0,0.0,0.0,0.0,0.0,0.0,0.0,0.0,0.0,0.0,0.0,0.0,0.0,0.0,0.0,0.0,0.0,0.0,0.0,0.0,0.0,0.0,0.0,0.0,0.0,0.0,0.0,0.0,0.0,0.0,0.0,0.0,0.0,0.0,0.0,0.0,0.0,0.0,0.0,0.0,0.0,0.0,0.0,0.0,0.0,0.0,0.0,0.0,0.0,0.0,0.0,0.0,0.0,0.0,0.0,0.0,0.0,0.0,0.0,0.0,0.0,0.0,0.0,0.0,0.0,0.0,0.0,0.0,0.0,0.0,0.0,0.0,0.0,0.0,0.0,0.0,1.7603,1.9685,2.1265,2.0878,1.8392,1.8179,1.66,0.0,0.0,0.0,0.0,0.0,0.0,0.0,0.0,0.0,0.0,0.0,0.0,0.0,0.0,0.0,0.0,0.0,0.0,0.0,0.0,0.0,0.0,0.0,0.0,0.0,0.0,0.0,0.0,0.0,0.0,0.0,0.0,0.0,0.0,0.0,0.0,0.0,0.0,0.0,0.0,0.0,0.0,0.0,0.0,0.0,0.0,0.0,0.0,0.0,0.0,0.0,0.0,0.0,0.0,0.0,0.0,0.0,0.0,0.0,0.0,0.0,0.0,0.0,0.0,0.0,0.0,0.0,0.0,0.0,0.0,0.0,0.0,0.0,0.0,0.0,0.0,0.0,0.0,0.0,0.0,0.0,0.0,0.0,0.0,0.0,0.0,0.0,0.0,0.0,0.0,0.0,0.0,0.0,0.0,0.0,0.0,0.0,0.0,0.0,0.0,0.0,0.0,0.0,0.0,0.0,0.0,0.0,0.0,0.0,1.8744,1.9924,2.0727,2.0916,1.8066,1.6688,0.0,0.0,0.0,0.0,0.0,0.0,0.0,0.0,0.0,0.0,0.0,0.0,0.0,0.0,0.0,0.0,0.0,0.0,0.0,0.0,0.0,0.0,0.0,0.0,0.0,0.0,0.0,0.0,0.0,0.0,0.0,0.0,0.0,0.0,0.0,0.0,0.0,0.0,0.0,0.0,0.0,0.0,0.0,0.0,0.0,0.0,0.0,0.0,0.0,0.0,0.0,0.0,0.0,0.0,0.0,0.0,0.0,0.0,0.0,0.0,0.0,0.0,0.0,0.0,0.0,0.0,0.0,0.0,0.0,0.0,0.0,0.0,0.0,0.0,0.0,0.0,0.0,0.0,0.0,0.0,0.0,0.0,0.0,0.0,0.0,0.0,0.0,0.0,0.0,0.0,0.0,0.0,0.0,0.0,0.0,0.0,0.0,0.0,0.0,0.0,0.0,0.0,0.0,0.0,0.0,0.0,0.0,0.0,0.0,2.0451,2.1418,2.2058,2.2309,1.9007,1.7388,1.7666,0.0,0.0,0.0,0.0,0.0,0.0,0.0,0.0,0.0,0.0,0.0,0.0,0.0,0.0,0.0,0.0,0.0,0.0,0.0,0.0,0.0,0.0,0.0,0.0,0.0,0.0,0.0,0.0,0.0,0.0,0.0,0.0,0.0,0.0,0.0,0.0,0.0,0.0,0.0,0.0,0.0,0.0,0.0,0.0,0.0,0.0,0.0,0.0,0.0,0.0,0.0,0.0,0.0,0.0,0.0,0.0,0.0,0.0,0.0,0.0,0.0,0.0,0.0,0.0,0.0,0.0,0.0,0.0,0.0,0.0,0.0,0.0,0.0,0.0,0.0,0.0,0.0,0.0,0.0,0.0,0.0,0.0,0.0,0.0,0.0,0.0,0.0,0.0,0.0,0.0,0.0,0.0,0.0,0.0,0.0,0.0,0.0,0.0,0.0,0.0,0.0,0.0,0.0,0.0,0.0,0.0,0.0,0.0,2.4104,2.5209,2.4757,2.2686,2.084,1.8668,0.0,0.0,0.0,0.0,0.0,0.0,0.0,0.0,0.0,0.0,0.0,0.0,0.0,0.0,0.0,0.0,0.0,0.0,0.0,0.0,0.0,0.0,0.0,0.0,0.0,0.0,0.0,0.0,0.0,0.0,0.0,0.0,0.0,0.0,0.0,0.0,0.0,0.0,0.0,0.0,0.0,0.0,0.0,0.0,0.0,0.0,0.0,0.0,0.0,0.0,0.0,0.0,0.0,0.0,0.0,0.0,0.0,0.0,0.0,0.0,0.0,0.0,0.0,0.0,0.0,0.0,0.0,0.0,0.0,0.0,0.0,0.0,0.0,0.0,0.0,0.0,0.0,0.0,0.0,0.0,0.0,0.0,0.0,0.0,0.0,0.0,0.0,0.0,0.0,0.0,0.0,0.0,0.0,0.0,0.0,0.0,0.0,0.0,0.0,0.0,0.0,0.0,0.0,0.0,0.0,0.0,0.0,0.0,0.0,2.5833,2.7281,2.7394,2.5963,2.2774,2.0726,0.0,0.0,0.0,0.0,0.0,0.0,0.0,0.0,0.0,0.0,0.0,0.0,0.0,0.0,0.0,0.0,0.0,0.0,0.0,0.0,0.0,0.0,0.0,0.0,0.0,0.0,0.0,0.0,0.0,0.0,0.0,0.0,0.0,0.0,0.0,0.0,0.0,0.0,0.0,0.0,0.0,0.0,0.0,0.0,0.0,0.0,0.0,0.0,0.0,0.0,0.0,0.0,0.0,0.0,0.0,0.0,0.0,0.0,0.0,0.0,0.0,0.0,0.0,0.0,0.0,0.0,0.0,0.0,0.0,0.0,0.0,0.0,0.0,0.0,0.0,0.0,0.0,0.0,0.0,0.0,0.0,0.0,0.0,0.0,0.0,0.0,0.0,0.0,0.0,0.0,0.0,0.0,0.0,0.0,0.0,0.0,0.0,0.0,0.0,0.0,0.0,0.0,0.0,0.0,0.0,0.0,0.0,0.0,2.5372,2.7505,2.954,3.02,2.9301,2.5743,2.3104,0.0,0.0,0.0,0.0,0.0,0.0,0.0,0.0,0.0,0.0,0.0,0.0,0.0,0.0,0.0,0.0,0.0,0.0,0.0,0.0,0.0,0.0,0.0,0.0,0.0,0.0,0.0,0.0,0.0,0.0,0.0,0.0,0.0,0.0,0.0,0.0,0.0,0.0,0.0,0.0,0.0,0.0,0.0,0.0,0.0,0.0,0.0,0.0,0.0,0.0,0.0,0.0,0.0,0.0,0.0,0.0,0.0,0.0,0.0,0.0,0.0,0.0,0.0,0.0,0.0,0.0,0.0,0.0,0.0,0.0,0.0,0.0,0.0,0.0,0.0,0.0,0.0,0.0,0.0,0.0,0.0,0.0,0.0,0.0,0.0,0.0,0.0,0.0,0.0,0.0,0.0,0.0,0.0,0.0,0.0,0.0,0.0,0.0,0.0,0.0,0.0,0.0,0.0,0.0,0.0,0.0,0.0,0.0,2.6539,2.9101,3.1836,3.2931,3.2216,2.9091,2.5711,0.0,0.0,0.0,0.0,0.0,0.0,0.0,0.0,0.0,0.0,0.0,0.0,0.0,0.0,0.0,0.0,0.0,0.0,0.0,0.0,0.0,0.0,0.0,0.0,0.0,0.0,0.0,0.0,0.0,0.0,0.0,0.0,0.0,0.0,0.0,0.0,0.0,0.0,0.0,0.0,0.0,0.0,0.0,0.0,0.0,0.0,0.0,0.0,0.0,0.0,0.0,0.0,0.0,0.0,0.0,0.0,0.0,0.0,0.0,0.0,0.0,0.0,0.0,0.0,0.0,0.0,0.0,0.0,0.0,0.0,0.0,0.0,0.0,0.0,0.0,0.0,0.0,0.0,0.0,0.0,0.0,0.0,0.0,0.0,0.0,0.0,0.0,0.0,0.0,0.0,0.0,0.0,0.0,0.0,0.0,0.0,0.0,0.0,0.0,0.0,0.0,0.0,0.0,0.0,0.0,0.0,0.0,0.0,2.9359,3.0797,3.3455,3.4577,3.3871,3.1021,2.8158,0.0,0.0,0.0,0.0,0.0,0.0,0.0,0.0,0.0,0.0,0.0,0.0,0.0,0.0,0.0,0.0,0.0,0.0,0.0,0.0,0.0,0.0,0.0,0.0,0.0,0.0,0.0,0.0,0.0,0.0,0.0,0.0,0.0,0.0,0.0,0.0,0.0,0.0,0.0,0.0,0.0,0.0,0.0,0.0,0.0,0.0,0.0,0.0,0.8175,0.0,0.0,0.0,0.0,0.0,0.0,0.0,0.0,0.0,0.0,0.0,0.0,0.0,0.0,0.0,0.0,0.0,0.0,0.0,0.0,0.0,0.0,0.0,0.0,0.0,0.0,0.0,0.0,0.0,0.0,0.0,0.0,0.0,0.0,0.0,0.0,0.0,0.0,0.0,0.0,0.0,0.0,0.0,0.0,0.0,0.0,0.0,0.0,0.0,0.0,0.0,0.0,0.0,0.0,0.0,0.0,0.0,0.0,0.0,3.1182,3.2137,3.5021,3.6066,3.5108,3.3488,3.0643,0.0,0.0,0.0,0.0,0.0,0.0,0.0,0.0,0.0,0.0,0.0,0.0,0.0,0.0,0.0,0.0,0.0,0.0,0.0,0.0,0.0,0.0,0.0,0.0,0.0,0.0,0.0,0.0,0.0,0.0,0.0,0.0,0.0,0.0,0.0,0.0,0.0,0.0,0.0,0.0,0.0,0.0,0.0,0.0,0.0,0.0,0.0,0.0,0.0,0.0,0.0,0.0,0.0,0.0,0.0,0.0,0.0,0.0,0.0,0.0,0.0,0.0,0.0,0.0,0.0,0.0,0.0,0.0,0.0,0.0,0.0,0.0,0.0,0.0,0.0,0.0,0.0,0.0,0.0,0.0,0.0,0.0,0.0,0.0,0.0,0.0,0.0,0.0,0.0,0.0,0.0,0.0,0.0,0.0,0.0,0.0,0.0,0.0,0.0,0.0,0.0,0.0,0.0,0.0,0.0,0.0,0.0,2.9462,3.2396,3.3663,3.6533,3.7424,3.6165,3.5714,3.2715,2.6829,0.0,0.0,0.0,0.0,0.0,0.0,0.0,0.0,0.0,0.0,0.0,0.0,0.0,0.0,0.0,0.0,0.0,0.0,0.0,0.0,0.0,0.0,0.0,0.0,0.0,0.0,0.0,0.0,0.0,0.0,0.0,0.0,0.0,0.0,0.0,0.0,0.0,0.0,0.9538,1.0385,0.0,0.0,0.0,0.0,0.0,0.0,0.0,0.0,0.8027,0.0,0.0,0.0,0.0,0.0,0.0,0.0,0.0,0.0,0.0,0.0,0.0,0.0,0.0,0.0,0.0,0.0,0.0,0.0,0.0,0.0,0.0,0.0,0.0,0.0,0.0,0.0,0.0,0.0,0.0,0.0,0.0,0.0,0.0,0.0,0.0,0.0,0.0,0.0,0.0,0.0,0.0,0.0,0.0,0.0,0.0,0.0,0.0,0.0,0.0,0.0,0.0,0.0,0.0,0.0,0.0,2.872,3.0526,3.3008,3.6279,3.8165,3.8502,3.7193,3.6063,3.3214,2.8426,0.0,0.0,0.0,0.0,0.0,0.0,0.0,0.0,0.0,0.0,0.0,0.0,0.0,0.0,0.0,0.0,0.0,0.0,0.0,0.0,0.0,0.0,0.0,0.0,0.0,0.0,0.0,0.0,0.0,0.0,0.0,0.0,0.0,0.0,0.0,0.0,0.0,0.0,0.0,1.194,1.2262,0.0,0.0,0.0,0.0,0.0,0.0,0.0,0.0,0.8221,0.0,0.0,0.0,0.0,0.0,0.0,0.0,0.0,0.0,0.0,0.0,0.0,0.0,0.0,0.0,0.0,0.0,0.0,0.0,0.0,0.0,0.0,0.0,0.0,0.0,0.0,0.0,0.0,0.0,0.0,0.0,0.0,0.0,0.0,0.0,0.0,0.0,0.0,0.0,0.0,0.0,0.0,0.0,0.0,0.0,0.0,0.0,0.0,0.0,0.0,0.0,0.0,0.0,0.0,0.0,2.9329,3.2711,3.5424,3.737,3.8708,3.8745,3.7434,3.5489,3.2781,0.0,0.0,0.0,0.0,0.0,0.0,0.0,0.0,0.0,0.0,0.0,0.0,0.0,0.0,0.0,0.0,0.0,0.0,0.0,0.0,0.0,0.0,0.0,0.0,0.0,0.0,0.0,0.0,0.0,0.0,0.0,0.0,0.0,0.0,0.0,0.0,0.0,0.0,0.0,0.0,1.2841,1.2839,1.3157,0.0,0.0,0.0,0.0,0.0,0.0,1.0136,0.9244,0.0,0.0,0.0,0.0,0.0,0.0,0.0,0.0,0.0,0.0,0.0,0.0,0.0,0.0,0.0,0.0,0.0,0.0,0.0,0.0,0.0,0.0,0.0,0.0,0.0,0.0,0.0,0.0,0.0,0.0,0.0,0.0,0.0,0.0,0.0,0.0,0.0,0.0,0.0,0.0,0.0,0.0,0.0,0.0,0.0,0.0,0.0,0.0,0.0,0.0,0.0,0.0,0.0,0.0,0.0,2.9411,3.427,3.7225,3.8109,3.8943,3.8745,3.7419,3.513,3.2482,0.0,0.0,0.0,0.0,0.0,0.0,0.0,0.0,0.0,0.0,0.0,0.0,0.0,0.0,0.0,0.0,0.0,0.0,0.0,0.0,0.0,0.0,0.0,0.0,0.0,0.0,0.0,0.0,0.0,0.0,0.0,0.0,0.0,0.0,0.0,0.0,0.0,0.0,0.0,0.0,0.0,1.384,1.3726,1.2854,0.0,0.0,0.0,0.0,1.2729,1.1505,0.0,0.0,0.0,0.0,0.0,0.0,0.0,0.0,0.0,0.0,0.0,0.0,0.0,0.0,0.0,0.0,0.0,0.0,0.0,0.0,0.0,0.0,0.0,0.0,0.0,0.0,0.0,0.0,0.0,0.0,0.0,0.0,0.0,0.0,0.0,0.0,0.0,0.0,0.0,0.0,0.0,0.0,0.0,0.0,0.0,0.0,0.0,0.0,0.0,0.0,0.0,0.0,0.0,0.0,0.0,0.0,3.0362,3.3328,3.6256,3.9043,3.9337,3.8766,3.7434,3.6028,3.3215,0.0,0.0,0.0,0.0,0.0,0.0,0.0,0.0,0.0,0.0,0.0,0.0,0.0,0.0,0.0,0.0,0.0,0.0,0.0,0.0,0.0,0.0,0.0,0.0,0.0,0.0,0.0,0.0,0.0,0.0,0.0,0.0,0.0,0.0,0.0,0.0,0.0,0.0,0.0,0.0,0.0,1.6491,1.5608,1.4747,1.3227,0.0,0.0,0.0,1.517,1.3602,0.0,0.0,0.0,0.0,0.0,0.0,0.0,0.0,0.0,0.0,0.0,0.0,0.0,0.0,0.0,0.0,0.0,0.0,0.0,0.0,0.0,0.0,0.0,0.0,0.0,0.0,0.0,0.0,0.0,0.0,0.0,0.0,0.0,0.0,0.0,0.0,0.0,0.0,0.0,0.0,0.0,0.0,0.0,0.0,0.0,0.0,0.0,0.0,0.0,0.0,0.0,0.0,0.0,0.0,0.0,2.8296,3.1131,3.4801,3.7595,3.9313,3.9388,3.8781,3.7449,3.5429,3.2557,0.0,0.0,0.0,0.0,0.0,0.0,0.0,0.0,0.0,0.0,0.0,0.0,0.0,0.0,0.0,0.0,0.0,0.0,0.0,0.0,0.0,0.0,0.0,0.0,0.0,0.0,0.0,0.0,0.0,0.0,0.0,0.0,0.0,0.0,0.0,0.0,0.0,0.0,0.0,0.0,0.0,0.0,1.7873,1.6435,0.0,0.0,0.0,1.5964,1.5829,0.0,0.0,0.0,0.0,0.0,0.0,0.0,0.0,0.0,0.0,0.0,0.0,0.0,0.0,0.0,0.0,0.0,0.0,0.0,0.0,0.0,0.0,0.0,0.0,0.0,0.0,0.0,0.0,0.0,0.0,0.0,0.0,0.0,0.0,0.0,0.0,0.0,0.0,0.0,0.0,0.0,0.0,0.0,0.0,0.0,0.0,0.0,0.0,0.0,0.0,0.0,0.0,0.0,0.0,0.0,0.0,0.0,3.154,3.6222,3.8901,3.9358,3.9388,3.8766,3.7419,3.519,0.0,0.0,0.0,0.0,0.0,0.0,0.0,0.0,0.0,0.0,0.0,0.0,0.0,0.0,0.0,0.0,0.0,0.0,0.0,0.0,0.0,0.0,0.0,0.0,0.0,0.0,0.0,1.0054,0.0,0.0,0.0,0.0,0.0,0.0,0.0,0.0,0.0,0.0,0.0,0.0,0.0,0.0,1.7357,1.8982,1.7806,1.5829,0.0,0.0,1.7743,1.6458,1.5724,1.4543,0.0,0.0,0.0,0.0,0.0,0.0,0.0,0.0,0.0,0.0,0.0,0.0,0.0,0.0,0.0,0.0,0.0,0.0,0.0,0.0,0.0,0.0,0.0,0.0,0.0,0.0,0.0,0.0,0.0,0.0,0.0,0.0,0.0,0.0,0.0,0.0,0.0,0.0,0.0,0.0,0.0,0.0,0.0,0.0,0.0,0.0,0.0,0.0,0.0,0.0,0.0,0.0,0.0,0.0,0.0,3.163,3.6653,3.9343,3.9388,3.9388,3.8781,3.7434,3.6073,3.2931,0.0,0.0,0.0,0.0,0.0,0.0,0.0,0.0,0.0,0.0,0.0,0.0,0.0,0.0,0.0,0.0,0.0,0.0,0.0,0.0,0.0,0.0,0.0,0.0,0.0,0.0,0.0,0.0,0.0,0.0,0.0,0.0,0.0,0.0,0.0,0.0,0.0,0.0,0.0,0.0,0.0,1.8354,1.7891,1.8747,1.851,0.0,0.0,1.9091,1.7788,1.6995,1.571,1.3148,0.0,0.0,0.0,0.0,0.0,0.0,0.0,0.0,0.0,0.0,0.0,0.0,0.0,0.0,0.0,0.0,0.0,0.0,0.0,0.0,0.0,0.0,0.0,0.0,0.0,0.0,0.0,0.0,0.0,0.0,0.0,0.0,0.0,0.0,0.0,0.0,0.0,0.0,0.0,0.0,0.0,0.0,0.0,0.0,0.0,0.0,0.0,0.0,0.0,0.0,0.0,0.0,0.0,3.0223,3.154,3.6698,3.9388,3.9388,3.9388,3.894,3.8033,3.6372,3.3395,0.0,0.0,0.0,0.0,0.0,0.0,0.0,0.0,0.0,0.0,0.0,0.0,0.0,0.0,0.0,0.0,0.0,0.0,0.0,0.0,0.0,0.0,0.0,0.0,0.0,0.0,0.0,0.0,1.25,1.2228,1.1202,0.0,0.0,0.0,0.0,0.0,0.0,0.0,0.0,0.0,0.0,1.9226,1.8972,1.9361,0.0,0.0,1.9049,1.9528,1.9016,1.734,1.5679,1.4257,1.2777,0.0,0.0,0.0,0.0,0.0,0.0,0.0,0.0,0.0,0.0,0.0,0.0,0.0,0.0,0.0,0.0,0.0,0.0,0.0,0.0,0.0,0.0,0.0,0.0,0.0,0.0,0.0,0.0,0.0,0.0,0.0,0.0,0.0,0.0,0.0,0.0,0.0,0.0,0.0,0.0,0.0,0.0,0.0,0.0,0.0,0.0,0.0,0.0,0.0,0.0,0.0,0.0,3.0313,3.1809,3.6802,3.9388,3.9388,3.9388,3.9095,3.8377,3.6701,3.3933,0.0,0.0,0.0,0.0,0.0,0.0,0.0,0.0,0.0,0.0,0.0,0.0,0.0,0.0,0.0,0.0,0.0,0.0,0.0,0.0,0.0,0.0,0.0,0.0,0.0,0.0,0.0,0.0,1.3797,1.3274,1.1954,0.0,0.0,0.0,0.0,0.0,0.0,0.0,0.0,0.0,0.0,1.9824,2.0247,1.9944,1.9723,1.9723,1.9346,1.9106,1.9106,1.7566,1.6009,1.4975,0.0,0.0,0.0,0.0,0.0,0.0,0.0,0.0,0.0,0.0,0.0,0.0,0.0,0.0,0.0,0.0,0.0,0.0,0.0,0.0,0.0,0.0,0.0,0.0,0.0,0.0,0.0,0.0,0.0,0.0,0.0,0.0,0.0,0.0,0.0,0.0,0.0,0.0,0.0,0.0,0.0,0.0,0.0,0.0,0.0,0.0,0.0,0.0,0.0,0.0,0.0,0.0,0.0,0.0,3.2482,3.7011,3.9388,3.9388,3.9388,3.908,3.8392,3.7169,3.4577,3.0537,0.0,0.0,0.0,0.0,0.0,0.0,0.0,0.0,0.0,0.0,0.0,0.0,0.0,0.0,0.0,0.0,0.0,0.0,0.0,0.0,0.0,0.0,0.0,0.0,0.0,0.0,1.3914,1.3812,1.3319,0.0,0.0,0.0,0.0,0.0,0.0,0.0,0.0,0.0,0.0,1.9271,2.0187,2.1455,2.0543,1.9768,1.9723,1.8627,1.7788,1.7803,1.7684,1.7011,0.0,0.0,0.0,0.0,0.0,0.0,0.0,0.0,0.0,0.0,0.0,0.0,0.0,0.0,0.0,0.0,0.0,0.0,0.0,0.0,0.0,0.0,0.0,0.0,0.0,0.0,0.0,0.0,0.0,0.0,0.0,0.0,0.0,0.0,0.0,0.0,0.0,0.0,0.0,0.0,3.3215,3.4711,0.0,0.0,0.0,0.0,0.0,0.0,0.0,0.0,0.0,0.0,0.0,0.0,3.0956,3.2647,3.7041,3.9388,3.9388,3.9388,3.9095,3.8407,3.7199,3.4024,2.8738,0.0,0.0,0.0,0.0,0.0,0.0,0.0,0.0,0.0,0.0,0.0,0.0,0.0,0.0,0.0,0.0,0.0,0.0,0.0,0.0,0.0,0.0,0.0,0.0,0.0,1.5365,0.0,0.0,0.0,0.0,0.0,0.0,0.0,0.0,0.0,0.0,0.0,1.8298,1.9821,2.0976,2.1789,2.2054,2.147,2.0726,0.0,0.0,0.0,0.0,0.0,0.0,0.0,0.0,0.0,0.0,0.0,0.0,0.0,0.0,1.2876,1.1954,1.1217,1.0528,0.9845,0.0,0.0,0.0,0.0,0.0,0.0,0.0,0.0,0.0,0.0,0.0,0.0,0.0,0.0,0.0,0.0,3.3274,0.0,0.0,0.0,0.0,0.0,0.0,0.0,0.0,3.5115,3.6342,3.663,3.8093,3.7778,0.0,3.5459,3.3125,0.0,0.0,0.0,0.0,0.0,0.0,0.0,0.0,3.1629,3.329,3.73,3.9388,3.9388,3.9388,3.9095,3.8377,3.6701,3.3649,2.9101,2.6617,2.4328,0.0,0.0,0.0,0.0,0.0,0.0,0.0,0.0,0.0,0.0,0.0,0.0,0.0,0.0,0.0,0.0,0.0,0.0,0.0,0.0,0.0,0.0,0.0,1.6114,0.0,0.0,0.0,0.0,0.0,0.0,0.0,0.0,0.0,1.7428,1.8565,1.9881,2.1231,2.2128,2.2718,2.2742,0.0,0.0,0.0,0.0,0.0,0.0,0.0,1.7818,1.8012,1.6981,1.6159,1.6114,1.4857,1.4288,1.5559,0.0,0.0,1.3508,1.3193,1.2924,1.1989,1.1734,1.1603,1.1333,1.1855,1.2107,0.0,0.0,0.0,0.0,0.0,0.0,0.0,0.0,3.7778,3.7734,0.0,0.0,0.0,0.0,0.0,0.0,0.0,0.0,0.0,0.0,3.982,4.1055,4.0531,4.1145,4.11,4.0487,4.0322,3.8676,3.5429,3.046,0.0,0.0,0.0,0.0,0.0,0.0,3.2587,3.4563,3.7749,3.9388,3.9388,3.9358,3.9035,3.8272,3.5833,3.3574,3.157,2.9654,2.7415,2.4769,2.2183,0.0,0.0,0.0,0.0,0.0,0.0,0.0,0.0,0.0,0.0,0.0,0.0,0.0,0.0,0.0,0.0,0.0,0.0,0.0,0.0,1.6353,0.0,0.0,0.0,0.0,0.0,0.0,0.0,0.0,0.0,0.0,1.9061,2.0049,2.1276,2.2583,0.0,0.0,0.0,0.0,2.2682,2.0232,2.0936,2.1754,2.1739,2.0606,1.9513,1.8912,0.0,0.0,1.704,1.7309,1.7295,1.6129,1.6023,1.5888,1.5783,1.5634,1.5355,1.4395,1.3701,1.3368,1.3324,1.3314,1.3331,4.4601,0.0,0.0,0.0,0.0,4.1123,4.2297,4.4436,4.3973,4.2985,4.1624,4.0786,0.0,0.0,0.0,0.0,0.0,0.0,3.7315,3.9305,4.0756,4.1773,4.2482,4.3165,4.2895,4.1841,4.1324,4.0382,3.8901,3.6028,3.2018,2.7151,0.0,0.0,0.0,0.0,3.4158,3.531,3.7988,3.9388,3.9388,3.8945,3.8153,3.706,3.5417,3.38,3.2287,3.1212,2.9238,2.6183,2.4395,0.0,0.0,0.0,0.0,0.0,0.0,0.0,0.0,0.0,0.0,0.0,0.0,0.0,0.0,0.0,0.0,0.0,0.0,0.0,1.6981,1.6891,1.6906,0.0,0.0,0.0,0.0,0.0,0.0,0.0,0.0,0.0,2.2811,2.2832,2.3101,0.0,0.0,2.3954,2.364,2.3595,2.3325,2.2577,0.0,0.0,0.0,2.1575,2.0513,2.0797,2.0453,1.9854,1.8972,1.9001,1.8809,1.7821,1.8165,1.8015,1.6203,1.5814,1.5531,1.4836,1.451,1.4376,1.4393,1.4482,1.4472,4.9778,4.6529,4.4541,4.4197,4.4915,4.4781,4.5843,4.7668,4.7264,4.6576,4.5705,4.4777,4.2566,3.9514,3.8093,0.0,0.0,0.0,4.0187,4.1983,4.2626,4.321,4.3693,4.4122,4.3763,4.2746,4.2073,4.1602,4.1145,3.9439,3.6193,3.1614,0.0,0.0,3.046,3.3635,3.5594,3.6327,3.8347,3.9388,3.9373,3.8497,3.7509,3.654,3.5459,3.4262,3.2961,3.2527,3.1157,2.8682,2.7003,2.5,0.0,0.0,0.0,0.0,0.0,0.0,0.0,0.0,0.0,0.0,0.0,1.3136,1.6278,0.0,0.0,0.0,1.5904,1.7326,1.8745,1.876,0.0,0.0,0.0,0.0,0.0,0.0,0.0,2.5285,2.4739,2.4455,2.5285,2.5046,2.4852,2.4978,2.4993,2.4769,2.4245,0.0,2.3595,2.3595,2.3595,2.3595,2.358,2.2428,2.1545,2.1665,2.1122,2.0602,2.0183,1.9884,1.9528,1.9124,1.9348,1.9214,1.7626,1.6937,1.6248,1.5395,1.5185,1.5214,1.52,1.527,1.5228,5.3922,5.3025,4.9434,4.7878,4.7833,4.8371,4.8596,4.8596,4.8611,4.888,4.9284,4.8012,4.6352,4.4332,4.1908,0.0,0.0,4.2955,4.3768,4.4496,4.5095,4.5035,4.4407,4.4392,4.3977,4.326,4.2731,4.247,4.241,4.11,3.9544,3.7704,3.5818,3.4771,3.4668,3.5971,3.6911,3.7479,3.8766,3.9328,3.9245,3.8048,3.709,3.6417,3.5774,3.4801,3.3574,3.344,3.2807,3.1473,2.9617,2.7919,2.6391,0.0,0.0,0.0,0.0,0.0,0.0,0.0,0.0,0.0,0.0,0.0,0.0,0.0,0.0,0.0,1.845,0.0,2.0853,2.1395,0.0,0.0,0.0,1.8869,1.6803,2.0936,2.4388,2.5615,0.0,0.0,0.0,0.0,2.6437,2.5854,2.5734,2.551,2.5054,2.4185,2.3595,2.3595,2.3595,2.3595,2.358,2.3107,2.2523,2.1934,2.1261,2.0897,2.0658,2.0124,1.9735,1.9663,1.9708,1.9618,1.9603,1.8493,1.7459,1.6218,1.5918,1.5844,1.5784,1.5696,1.5551,5.4865,5.4625,5.3698,5.2725,5.1753,5.1409,5.1274,5.1274,5.1274,5.081,4.9957,4.9164,4.7698,4.5741,4.4646,4.4227,4.4377,4.4676,4.52,4.5843,4.6007,4.5723,4.5065,4.5065,4.4451,4.3334,4.314,4.3105,4.3045,4.1788,4.0905,4.0382,3.896,3.7255,3.5415,3.703,3.8003,3.8167,3.8975,3.8916,3.7928,3.7569,3.6866,3.5774,3.5102,3.4369,3.3529,3.3021,3.1911,3.0192,2.9557,2.8412,2.6547,2.3089,0.0,0.0,0.0,0.0,0.0,0.0,0.0,0.0,0.0,1.3907,1.7416,0.0,1.9944,0.0,2.0857,2.1695,2.2802,2.2173,0.0,0.0,2.1306,2.0666,2.2996,2.5279,2.6776,2.7091,2.6641,2.6566,2.727,2.736,2.73,2.7151,2.6677,2.6019,2.5129,2.42,2.3595,2.361,2.3595,2.3595,2.358,2.349,2.3146,2.2568,2.2328,2.1874,2.0853,2.0157,1.9723,1.9723,1.9723,1.9453,1.8884,1.8927,1.8702,1.755,1.6831,1.6323,1.5904,1.5536,1.5359,5.5194,5.5194,5.5194,5.4745,5.4012,5.3054,5.2456,5.2172,5.1887,5.1349,5.0584,4.9987,4.8775,4.7204,4.68,4.6471,4.6202,4.6172,4.6396,4.6756,4.677,4.6232,4.5304,4.5289,4.4616,4.3319,4.3305,4.3305,4.323,4.2028,4.1422,4.1392,4.0068,3.8656,3.736,3.8317,3.8856,3.8841,3.9215,3.8766,3.7464,3.7404,3.6656,3.5115,3.4696,3.3934,3.2632,3.2492,3.1571,2.9718,2.9499,2.894,2.7785,2.4927,2.3259,0.0,0.0,0.0,0.0,0.0,0.0,0.0,0.0,0.0,0.0,0.0,2.3176,0.0,0.0,0.0,2.5279,2.5001,2.5211,2.6249,2.4477,2.3849,2.5427,2.7814,2.934,2.934,2.8423,2.7839,2.8034,2.8049,2.7929,2.7645,2.7285,2.6836,2.6267,2.5683,2.4994,2.3841,2.3595,2.3595,2.3595,2.3595,2.349,2.3167,2.2882,2.2433,2.1695,2.0857,2.0172,1.9813,1.9723,1.9573,1.9109,1.9333,1.9333,1.8448,1.7863,1.7385,1.6757,1.6202,1.5874,5.5194,5.5194,5.5194,5.5194,5.5089,5.3847,5.2935,5.2291,5.1708,5.1379,5.1122,5.048,4.9568,4.8536,4.8356,4.7982,4.7444,4.7339,4.7309,4.7309,4.7309,4.6636,4.5439,4.5334,4.4646,4.3439,4.3334,4.3305,4.3245,4.2013,4.1422,4.1362,4.0068,3.9388,3.9388,3.9388,3.9388,3.9388,3.9313,3.8676,3.7434,3.733,3.6387,3.4623,3.4429,3.3469,3.1629,3.202,3.1497,2.9866,2.9792,2.97,2.942,2.7202,2.5758,0.0,2.3244,0.0,0.0,0.0,0.0,0.0,0.0,0.0,0.0,2.2966,2.557,2.4223,2.533,2.6587,2.7735,2.8408,2.8727,2.8697,2.8188,2.739,2.6422,2.9313,3.1496,3.1496,3.0537,2.9564,2.8831,2.8667,2.8353,2.7869,2.763,2.751,2.7555,2.745,2.6626,2.4358,2.3789,2.3595,2.3595,2.3595,2.358,2.3535,2.3176,2.2793,2.2643,2.1819,2.0906,2.0094,1.9813,1.9693,1.969,1.9693,1.9495,1.8942,1.8792,1.8523,1.7742,1.6991,1.6556,5.5194,5.5194,5.5194,5.5194,5.5134,5.4356,5.3638,5.298,5.286,5.2217,5.1184,5.048,5.0046,4.9732,4.876,4.8207,4.8072,4.7549,4.7309,4.7309,4.7309,4.689,4.6127,4.5559,4.4885,4.4122,4.3544,4.3305,4.3275,4.2013,4.1422,4.1339,4.0053,3.9388,0.0,0.0,0.0,0.0,3.8871,3.8197,3.7434,3.6911,3.5968,3.4563,3.3948,0.0,3.16,3.1611,3.1296,3.0499,3.1358,0.0,0.0,0.0,0.0,0.0,0.0,0.0,0.0,0.0,0.0,0.0,2.5188,2.2114,1.9737,2.5151,2.8289,2.7031,2.8053,2.8963,2.9202,2.9337,2.94,2.9385,2.9307,2.9101,2.8921,3.0462,3.1496,3.1496,3.1271,3.0673,2.9564,2.8936,2.8577,2.8412,2.7959,2.7615,2.7615,2.7615,2.7375,2.6791,2.5031,2.3684,2.3595,2.3625,2.3655,2.3565,2.3535,2.3236,2.2793,2.2403,2.1774,2.0951,2.0187,1.9723,1.9723,1.9723,1.9663,1.9543,1.9498,1.9136,1.7936,1.6921,1.6276,5.5194,0.0,5.5194,5.5194,0.0,0.0,5.3817,5.3159,5.2845,5.2142,5.1199,5.087,5.0495,5.0151,4.9209,4.8596,4.8252,4.7608,4.7309,4.7309,4.7309,4.6785,4.5813,4.5454,4.4781,4.3783,4.3454,4.3305,4.3245,4.2342,4.1737,4.1369,4.0397,3.9738,3.9403,3.9388,3.9388,3.9388,3.9065,3.8556,3.7898,3.727,3.6327,3.5043,0.0,0.0,0.0,0.0,0.0,0.0,0.0,0.0,0.0,0.0,0.0,3.0075,2.8764,2.827,2.8963,2.8399,2.8786,3.0514,2.9275,2.7564,2.5648,2.8637,3.0118,2.9172,2.9654,3.0178,3.0507,3.0552,3.0537,3.0537,3.0537,3.0552,3.0584,3.1092,3.1496,3.1496,3.1496,3.1107,3.0163,2.9774,2.9415,2.9101,2.8517,2.8083,2.8079,2.7809,2.76,2.754,2.5959,2.4492,2.4178,2.4096,2.3939,2.3714,2.3595,2.3475,2.3191,2.3047,2.2772,2.2233,2.0902,1.9723,1.9723,1.9723,1.9723,1.9723,1.9723,1.9543,1.8777,1.7996,1.7335,5.5194,5.5194,5.5194,5.5194,5.5149,5.4491,5.3743,5.295,0.0,0.0,0.0,5.1229,5.0883,5.0315,4.9613,4.9015,4.8401,4.7653,4.7309,4.7309,4.7309,4.6651,4.5499,4.5349,4.4661,4.3499,4.3349,4.3305,4.326,4.2671,4.2066,4.1407,4.0726,4.0083,3.9433,3.9388,3.9388,3.9388,3.9305,3.896,3.8392,3.7629,3.6701,3.5534,3.4851,3.3689,3.1994,3.2914,3.2385,3.0099,3.123,3.1838,3.1505,3.1427,3.2073,3.3448,3.2513,3.2109,3.2802,3.229,3.2106,3.2548,3.1867,3.1441,3.1478,3.1496,3.1271,3.0731,3.0687,3.0911,3.1451,3.1496,3.1496,3.1496,3.1496,3.1481,3.1481,3.1496,3.1496,3.1496,3.1496,3.1316,3.0776,3.0552,3.0328,2.9789,2.919,2.8637,2.8412,2.7929,2.7585,2.748,2.6611,2.5704,2.4978,2.4619,2.438,2.3939,2.3699,2.3595,2.3595,2.3595,2.3595,2.346,2.1724,2.0636,2.0142,1.9902,1.9783,1.9857,1.9768,1.9723,1.9678,1.9271,1.864,5.5194,5.5194,5.5194,5.5194,5.5134,5.4491,5.3488,5.2291,5.1633,5.1304,5.1229,5.1229,5.1169,5.102,4.9808,4.9269,4.909,4.7878,4.7309,0.0,4.7309,4.6905,4.6172,4.5574,4.49,4.4167,4.3574,4.3305,4.323,4.2686,4.2051,4.1407,4.0711,4.0068,3.9433,3.9388,3.9388,3.9373,3.8841,3.8497,3.8377,3.7225,3.6267,3.5519,3.4868,3.4167,3.3416,3.3488,3.3951,3.4806,3.4186,3.4202,3.507,3.4921,3.4783,3.4497,3.358,3.3401,3.4207,3.3572,3.3211,3.3261,3.2192,3.1501,3.1509,3.1496,3.1466,3.1376,3.1376,3.1391,3.1496,3.154,3.154,3.1525,3.1496,3.1496,3.1496,3.1496,3.1496,3.1496,3.1496,3.1481,3.1301,3.0853,3.0537,3.0328,2.9834,2.9097,2.8184,2.766,2.76,2.7585,2.7465,2.6782,2.5734,2.4948,2.4664,2.45,2.3977,2.3655,2.3595,2.3595,2.3595,2.3595,2.3086,2.2517,2.162,2.0423,2.0109,2.0333,2.0112,1.9723,1.9723,1.9588,1.9301,5.5194,5.5194,5.5194,5.5194,5.5119,5.4087,5.3114,5.2157,5.1513,5.1229,5.1229,5.1229,5.1229,5.1109,4.9853,4.9299,4.9254,4.7908,4.7309,4.7309,4.7309,4.6756,4.5798,4.5424,4.4751,4.3768,4.3454,4.3305,4.3275,4.303,4.2372,4.1422,4.0382,3.9709,3.9454,3.9388,3.9388,3.9409,3.911,3.8945,3.8931,3.8018,3.7195,3.6537,3.5921,3.5125,3.4166,3.4831,3.5038,3.4616,3.5356,3.5591,3.5198,3.6465,3.6813,3.5828,3.5033,3.493,3.5687,3.4976,3.4544,3.4563,3.4007,3.3648,3.3648,3.3021,3.2587,3.2602,3.2602,3.2602,3.2542,3.2243,3.2049,3.2034,3.1735,3.1496,3.1496,3.1496,3.1496,3.1496,3.1496,3.1496,3.1496,3.1227,3.1032,3.0987,3.0492,2.9714,2.8798,2.8064,2.76,2.7585,2.7585,2.7195,2.6318,2.5914,2.5435,2.4769,2.4365,2.4014,2.3714,2.3595,2.3595,2.3595,2.3595,2.3385,2.2727,2.146,2.0737,2.0513,2.0168,1.9783,1.9723,1.9723,1.957,5.5194,5.5194,5.5194,5.5014,5.4655,5.3623,5.2725,5.1947,5.1439,5.1229,5.1229,5.1229,5.1229,5.1094,4.9853,4.9299,4.912,4.7893,4.7309,4.7309,4.7309,4.6591,4.5394,4.5289,4.4616,4.3424,4.3305,4.3305,4.3305,4.3305,4.2671,4.1369,4.0053,3.9388,3.9388,3.9388,3.9388,3.9388,3.9388,3.9388,3.9358,3.8751,3.8138,3.7618,3.705,3.6244,3.5334,3.6159,3.6059,3.4887,3.6007,3.6322,3.5651,3.6988,3.7604,3.6937,3.6102,3.5878,3.6342,3.603,3.5668,3.5504,3.5489,3.5489,3.5415,3.4577,3.3799,3.3559,3.344,3.3455,3.3395,3.3036,3.2736,3.2662,3.1974,3.1511,3.1496,3.1496,3.1496,3.1496,3.1496,3.1496,3.1496,3.1496,3.1466,3.1376,3.1032,3.0552,2.9983,2.9071,2.8438,2.772,2.7585,2.742,2.6911,2.6656,2.6138,2.5143,2.4769,2.441,2.3962,2.3759,2.361,2.3595,2.3595,2.3565,2.3475,2.2613,2.1669,2.1335,2.0632,1.9929,1.9738,1.9723,1.9585,5.5194,5.5194,5.5194,5.4476,5.3488,5.3249,5.2501,5.1439,5.1182,5.1229,5.1229,5.1229,5.1229,5.105,4.9853,4.9299,4.9194,4.7893,4.7309,4.7309,4.7309,4.6591,4.5364,4.5289,4.4601,4.3424,4.3305,4.3305,4.3305,4.3245,4.2656,4.1384,4.0068,3.9388,3.9388,3.9388,3.9424,3.9409,3.9388,3.9388,3.9343,3.8736,3.8347,3.8272,3.7787,3.7451,3.7139,3.6862,3.716,3.8119,3.6608,3.6565,3.8003,3.6793,3.6353,3.7553,3.6368,3.555,3.5659,3.615,3.618,3.5587,3.5489,3.5489,3.5489,3.537,3.4771,3.3888,3.3544,3.3604,3.3499,3.344,3.341,3.335,3.2363,3.1496,3.157,3.1496,3.1496,3.1496,3.1496,3.1496,3.1496,3.1496,3.1496,3.1496,3.1391,3.1241,3.1122,3.0928,3.0058,2.8364,2.7645,2.757,2.739,2.6971,2.6596,2.6273,2.5405,2.4754,2.4425,2.3947,2.3595,2.3595,2.3595,2.3595,2.3595,2.337,2.3092,2.2239,2.138,2.0453,1.9932,1.9783,1.96,5.5194,5.5194,5.5194,5.488,5.4311,5.3533,5.289,5.2336,5.1543,5.1229,5.1229,5.1229,5.1229,5.1124,4.9853,4.9299,4.9209,4.7893,4.7309,4.7309,4.7309,4.6591,4.5394,4.5289,4.4601,4.3379,4.3305,4.3305,4.3155,4.2566,4.1908,4.1309,4.0068,3.9388,3.9388,3.9388,3.9646,4.015,3.9666,3.9646,4.003,3.9395,3.8811,3.8482,3.8678,3.8185,3.7201,3.753,3.7629,3.7057,3.7719,3.7991,3.7526,3.6243,3.6384,3.8193,3.7852,3.6877,3.5584,3.6144,3.6254,3.5534,3.5489,3.5489,3.5489,3.5489,3.525,3.4816,3.4681,3.4681,3.4622,3.4354,3.4099,3.3993,3.3469,3.296,3.2721,3.1974,3.1496,3.1496,3.1496,3.1511,3.1496,3.1496,3.1496,3.1496,3.1496,3.1496,3.1496,3.1496,3.1077,3.0001,2.8693,2.7675,2.757,2.742,2.7061,2.6632,2.6183,2.5689,2.4709,2.4051,2.361,2.3595,2.3595,2.3595,2.3595,2.3565,2.34,2.2733,2.2054,2.1096,2.0438,2.0303,2.0019,5.5194,5.5194,5.5194,5.5089,5.4805,5.3683,5.3084,5.2785,5.1708,5.1229,5.1229,5.1229,5.1109,5.081,4.9778,4.9299,4.9134,4.7908,4.7309,4.7309,4.7309,4.6696,4.5648,4.5364,4.4706,4.3693,4.3379,4.3433,4.3509,4.2338,4.1701,4.1579,4.0379,3.9604,3.9403,3.9388,3.9829,4.0554,4.0045,4.008,4.0519,4.008,3.9405,3.8832,3.9542,3.9185,3.7534,3.8544,3.8459,3.6857,3.8129,3.848,3.7618,3.7405,3.7847,3.8673,3.877,3.7966,3.6142,3.6694,3.6604,3.5657,3.5489,3.5489,3.5489,3.5489,3.5489,3.5459,3.5489,3.5459,3.5444,3.5055,3.4818,3.4773,3.4637,3.4397,3.4038,3.308,3.2691,3.2587,3.2437,3.1944,3.1824,3.1795,3.178,3.1555,3.1496,3.1496,3.1496,3.1496,3.1466,3.1451,2.9804,2.8532,2.7809,2.7555,2.7315,2.7046,2.6707,2.6168,2.5158,2.4433,2.361,2.3595,2.3595,2.3595,2.3595,2.355,2.3415,2.2838,2.2263,2.1739,2.1126,2.1021,2.0692,5.5194,5.5194,5.5194,5.485,5.4221,5.3488,5.283,5.2336,5.1528,5.1229,5.1229,5.1229,5.0823,5.024,4.9583,4.9299,4.9105,4.7893,4.7309,4.7309,4.7309,4.6935,4.6219,4.5603,4.493,4.4182,4.3544,4.3771,4.4517,4.3152,4.2485,4.2613,4.1143,4.0044,3.9478,3.9388,3.9829,4.0656,4.0622,4.069,4.0743,4.0724,4.0224,3.9566,4.0355,4.0371,3.9582,3.9724,3.9745,3.9652,3.7296,3.6999,3.9399,4.0974,4.0799,3.8984,3.8664,3.8256,3.7526,3.7925,3.76,3.5919,3.5654,3.5549,3.5684,3.5684,3.5669,3.5519,3.5594,3.5579,3.5489,3.54,3.537,3.5385,3.54,3.5355,3.534,3.5055,3.528,3.4966,3.3948,3.3051,3.2542,3.2437,3.2153,3.1765,3.154,3.1525,3.1496,3.1496,3.1496,3.1496,3.1107,3.0462,2.8289,2.7764,2.7705,2.7375,2.7001,2.6596,2.5899,2.5166,2.4358,2.361,2.3595,2.3595,2.3595,2.349,2.3325,2.3032,2.2853,2.2368,2.1784,2.1695,2.1365,5.5194,5.5194,5.5194,5.5059,5.4715,5.3668,5.3025,5.274,5.1678,5.1229,5.1229,5.1229,5.0808,5.0151,4.9568,4.909,4.8566,4.7698,4.7309,4.7309,4.7309,4.6965,4.6249,4.5618,4.496,4.4302,4.3618,4.381,4.4622,4.378,4.3088,4.2684,4.1822,4.0695,3.9637,3.9388,4.0095,4.1329,4.1013,4.1213,4.2173,4.1836,4.1113,4.0328,4.111,4.099,3.9749,4.0293,4.018,3.9204,3.7562,3.743,3.8999,4.0603,4.038,3.8348,3.9242,3.9288,3.7782,3.8054,3.7986,3.6918,3.6716,3.6731,3.6731,3.6701,3.6567,3.6237,3.6133,3.5983,3.5594,3.5489,3.5504,3.5489,3.5489,3.5489,3.5489,3.5489,3.5489,3.5295,3.4337,3.341,3.326,3.314,3.2886,3.2288,3.2123,3.1929,3.1585,3.1496,3.1496,3.1496,3.1481,3.1197,3.0477,2.8921,2.8158,2.772,2.7315,2.6986,2.6432,2.6551,2.5982,2.4283,2.3954,2.3595,2.361,2.3699,2.3475,2.3355,2.3191,2.2927,2.2443,2.2373,2.1994,5.5194,5.5194,5.5194,5.5059,5.4745,5.3668,5.3103,5.2755,5.1708,5.1229,5.1229,5.1214,5.0808,5.0151,4.9553,4.8955,4.8267,4.7608,4.7309,4.7309,4.7309,4.707,4.6561,4.5708,4.508,4.4623,4.4061,4.4282,4.5091,4.4799,4.4382,4.4018,4.3063,4.1922,4.0758,4.0377,4.101,4.2029,4.1836,4.2157,4.3108,4.2724,4.1981,4.1346,4.1691,4.1533,4.0505,4.1277,4.1148,3.983,3.8656,3.829,3.8925,4.0418,4.0603,3.9307,4.0075,4.0171,3.8777,3.8627,3.8542,3.8123,3.8048,3.8048,3.8063,3.8048,3.7644,3.703,3.6776,3.6522,3.6013,3.5833,3.5744,3.5564,3.5489,3.5489,3.5489,3.5489,3.5489,3.54,3.4801,3.4158,3.3858,3.3814,3.338,3.2647,3.2497,3.2213,3.1675,3.1496,3.1496,3.1496,3.1496,3.1481,3.1017,2.9998,2.8861,2.8308,2.7675,2.733,2.7165,2.7435,2.7046,2.5338,2.4298,2.3834,2.367,2.3819,2.3774,2.367,2.3505,2.3266,2.3056,2.3017,2.2607,5.5194,5.5194,5.5194,5.4835,5.4251,5.3503,5.2815,5.2217,5.1513,5.1229,5.1229,5.1229,5.0808,5.0166,4.9553,4.894,4.8252,4.7608,4.7309,4.7309,4.7309,4.7294,4.7145,4.5888,4.5155,4.4971,4.4879,4.5243,4.6032,4.6093,4.6175,4.611,4.4752,4.3531,4.2989,4.2139,4.2284,4.297,4.3078,4.3199,4.3306,4.3336,4.2878,4.2125,4.2125,4.2125,4.1981,4.2689,4.2624,4.1805,4.0186,3.9415,3.9713,4.1041,4.1901,4.1581,4.1199,4.0798,4.0511,3.9813,3.9418,3.9164,3.9305,3.9164,3.9119,3.9149,3.8751,3.7808,3.7434,3.7165,3.6641,3.6492,3.6222,3.5639,3.5489,3.5489,3.5489,3.5489,3.5489,3.5474,3.5295,3.5175,3.4681,3.4487,3.4038,3.3125,3.2766,3.2437,3.1705,3.1496,3.1496,3.1496,3.1496,3.1496,3.1256,3.0853,2.9879,2.8936,2.8173,2.766,2.748,2.7585,2.7585,2.6267,2.5413,2.4896,2.4403,2.4462,2.4126,2.3977,2.3797,2.361,2.3445,2.3295,2.3197,5.5194,5.5194,5.5194,5.4805,5.4147,5.3473,5.28,5.2157,5.1498,5.1229,5.1229,5.1229,5.0808,5.0197,4.9553,4.8955,4.8252,4.7623,4.7309,4.7309,4.7309,4.7309,4.7098,4.5933,4.4825,4.4163,4.455,4.5285,4.6189,4.685,4.7012,4.6469,4.5585,4.4383,4.3201,4.2414,4.241,4.3199,4.3306,4.3545,4.4138,4.4196,4.3785,4.3061,4.3456,4.3545,4.2939,4.2583,4.2583,4.2785,4.0687,3.9935,4.0995,4.1707,4.1981,4.2029,4.2347,4.1869,4.0826,4.0416,3.999,3.9553,3.9388,3.9388,3.9388,3.9388,3.9209,3.8736,3.8377,3.7823,3.7285,3.712,3.6686,3.5624,3.5489,3.5549,3.5489,3.5489,3.5489,3.5489,3.5489,3.5385,3.5235,3.516,3.4771,3.3978,3.3769,3.332,3.1959,3.1555,3.1496,3.1496,3.1496,3.1496,3.1331,3.1062,3.0417,2.9579,2.8846,2.8109,2.7884,2.7735,2.7705,2.736,2.6537,2.5908,2.5413,2.5031,2.4724,2.4276,2.4007,2.3812,2.3655,2.3505,2.3355,5.5194,5.5194,5.5194,5.4655,5.3817,5.3339,5.2665,5.1843,5.1409,5.1229,5.1261,5.1681,5.1622,5.1152,5.053,4.9922,4.9196,4.82,4.772,4.7752,4.7424,4.7495,4.7498,4.607,4.483,4.4202,4.4856,4.5814,4.6747,4.7622,4.7928,4.7443,4.6745,4.5779,4.452,4.3753,4.3603,4.3776,4.3785,4.4064,4.4485,4.4598,4.4355,4.3919,4.4006,4.4006,4.3697,4.2939,4.2724,4.2816,4.1095,4.0378,4.1028,4.128,4.1511,4.1674,4.2189,4.2173,4.0912,4.069,4.0293,3.961,3.9388,3.9388,3.9388,3.9388,3.9388,3.9298,3.9035,3.8497,3.7928,3.7778,3.7285,3.6357,3.6252,3.5998,3.5684,3.5489,3.5489,3.5489,3.5489,3.5489,3.5489,3.5474,3.522,3.4683,3.4488,3.4113,3.2557,3.1824,3.1705,3.157,3.1496,3.1481,3.1466,3.1182,3.0851,3.0208,2.9549,2.8801,2.8278,2.8184,2.8109,2.772,2.7031,2.6551,2.6072,2.5779,2.5495,2.4926,2.4321,2.4044,2.3849,2.364,2.3505,5.5194,5.5194,5.5194,5.4431,5.3294,5.3174,5.2456,5.1364,5.1229,5.1308,5.1557,5.2365,5.2841,5.2774,5.221,5.1526,5.0793,4.9405,4.8845,4.8774,4.8267,4.8069,4.8132,4.6447,4.5303,4.4993,4.5825,4.6712,4.7456,4.837,4.9001,4.874,4.8017,4.7504,4.6548,4.6051,4.5125,4.4693,4.4581,4.4542,4.4598,4.4598,4.457,4.4468,4.3931,4.3873,4.427,4.3756,4.3366,4.3216,4.1836,4.0569,3.9864,4.0239,4.0946,4.1031,4.1593,4.1609,4.1013,4.0743,4.0293,3.9553,3.9388,3.9388,3.9388,3.9388,3.9388,3.9388,3.9328,3.911,3.8571,3.8452,3.8123,3.7659,3.73,3.6731,3.5699,3.5489,3.5489,3.5489,3.5489,3.5489,3.5489,3.5489,3.5205,3.4831,3.4637,3.4262,3.3784,3.2991,3.2064,3.1929,3.2138,3.1496,3.1481,3.1421,3.1092,3.0866,3.0268,2.9639,2.8697,2.8438,2.8154,2.7794,2.7525,2.7091,2.6746,2.6447,2.6004,2.5397,2.4859,2.4388,2.4088,2.3939,2.3744,5.5194,5.5194,5.5194,5.4416,5.3264,5.3174,5.2441,5.1304,5.1229,5.1635,5.235,5.2723,5.3396,5.4031,5.3454,5.2781,5.196,5.1051,5.0818,5.0881,5.0048,4.8903,4.806,4.6951,4.6049,4.5775,4.6673,4.7356,4.7655,4.8545,4.9001,4.8968,4.8325,4.7821,4.7479,4.638,4.5669,4.5348,4.4869,4.4649,4.4666,4.4666,4.4598,4.457,4.4406,4.4406,4.4587,4.4384,4.4253,4.4196,4.3229,4.1592,3.9935,4.0808,4.1511,4.1576,4.1772,4.1901,4.156,4.108,4.0343,3.9553,3.9388,3.9388,3.9388,3.9388,3.9388,3.9388,3.9388,3.9349,3.917,3.9125,3.8955,3.8826,3.8078,3.706,3.6013,3.5489,3.5489,3.5489,3.5549,3.5549,3.5564,3.5489,3.5429,3.5235,3.5145,3.51,3.4622,3.4517,3.3753,3.3469,3.3289,3.2138,3.1496,3.1496,3.1436,3.1361,3.0972,3.0524,2.943,2.8483,2.8064,2.76,2.76,2.727,2.7121,2.6926,2.6378,2.5899,2.5555,2.5136,2.4649,2.438,2.4111,5.5194,5.5194,5.5194,5.4581,5.3623,5.3324,5.2591,5.1708,5.1319,5.185,5.2827,5.3455,5.4237,5.5166,5.4875,5.4129,5.3165,5.2282,5.1922,5.1733,5.1229,5.0073,4.8778,4.7972,4.7533,4.708,4.7671,4.8084,4.8275,4.8767,4.897,4.8951,4.8595,4.8223,4.7821,4.7158,4.6447,4.616,4.5703,4.5529,4.5546,4.55,4.5517,4.5517,4.55,4.5444,4.5111,4.4801,4.4598,4.4412,4.371,4.2537,4.1095,4.1129,4.1478,4.1445,4.1445,4.1445,4.1462,4.1247,4.0672,3.9717,3.9388,3.9388,3.9388,3.9388,3.9388,3.9388,3.9388,3.9388,3.9388,3.9388,3.9388,3.9239,3.8706,3.7943,3.7195,3.7221,3.6866,3.6477,3.6088,3.5923,3.5908,3.5699,3.5534,3.5474,3.5429,3.5429,3.537,3.5489,3.54,3.4816,3.441,3.3469,3.2467,3.2243,3.1944,3.1839,3.1391,3.1017,3.0178,2.8918,2.8289,2.7914,2.7735,2.7555,2.739,2.7225,2.6926,2.6497,2.6228,2.5839,2.5307,2.5008,2.4732,5.5265,5.5365,5.528,5.486,5.4194,5.3526,5.284,5.2229,5.1705,5.2215,5.3396,5.4379,5.5353,5.6376,5.6261,5.5616,5.4394,5.3498,5.2643,5.2353,5.2013,5.1287,5.0249,4.9592,4.9204,4.8844,4.8891,4.8926,4.9039,4.9072,4.9001,4.8984,4.8951,4.8663,4.8176,4.7885,4.753,4.6989,4.665,4.6515,4.6515,4.6515,4.6498,4.6498,4.6515,4.6295,4.5788,4.5326,4.497,4.4886,4.401,4.3509,4.2984,4.1893,4.126,4.1168,4.128,4.1249,4.1226,4.1889,4.1746,4.0709,3.9985,3.9388,3.9433,3.9634,3.9753,3.9403,3.9469,3.9508,3.9388,3.9388,3.9388,3.9358,3.9298,3.9358,3.9388,3.9388,3.8945,3.7793,3.706,3.6641,3.6417,3.6073,3.5624,3.5833,3.5714,3.5489,3.5489,3.5489,3.5489,3.5355,3.5085,3.4936,3.3963,3.311,3.2706,3.2347,3.172,3.1241,3.0748,2.9744,2.8876,2.8334,2.7929,2.769,2.7555,2.7375,2.721,2.7091,2.6767,2.6348,2.5914,2.5764,2.5525,5.5785,5.6541,5.5601,5.5039,5.468,5.3673,5.3043,5.2746,5.2607,5.3597,5.5174,5.5754,5.6454,5.7517,5.7376,5.7049,5.6015,5.5121,5.4399,5.3227,5.3144,5.3009,5.2226,5.1234,5.0476,5.025,4.9974,4.9826,4.9763,4.9323,4.9018,4.9018,4.9001,4.8934,4.8731,4.8193,4.7855,4.7597,4.7141,4.6921,4.6938,4.6938,4.6938,4.6904,4.687,4.6752,4.6616,4.6397,4.6312,4.6148,4.5635,4.5127,4.491,4.4527,4.3618,4.2623,4.2334,4.2575,4.3108,4.2963,4.3287,4.3955,4.1646,3.9388,3.9478,4.0442,4.0367,3.9858,3.9843,3.9978,3.9627,3.9433,3.9448,3.9478,3.9418,3.9388,3.9388,3.9388,3.9164,3.8796,3.7928,3.721,3.718,3.6656,3.6342,3.6237,3.5938,3.5579,3.5489,3.5489,3.5489,3.5489,3.5415,3.5205,3.4786,3.3829,3.3125,3.2662,3.2034,3.1525,3.1032,3.0688,2.9879,2.8906,2.8004,2.7809,2.76,2.7585,2.742,2.7375,2.73,2.6926,2.6572,2.6452,2.6333,5.6396,5.6943,5.6314,5.5814,5.5333,5.4417,5.3744,5.3487,5.3608,5.4598,5.5913,5.6204,5.6832,5.7881,5.7848,5.7492,5.6664,5.5649,5.4566,5.3653,5.3467,5.3467,5.3433,5.2622,5.1928,5.1546,5.1294,5.0862,5.0152,4.9712,4.9357,4.9018,4.9018,4.9001,4.9001,4.8565,4.8477,4.8409,4.8071,4.7834,4.7817,4.7817,4.7834,4.7716,4.753,4.7327,4.731,4.6938,4.7005,4.7107,4.6925,4.6561,4.6198,4.5768,4.5,4.4262,4.3146,4.3582,4.4129,4.4093,4.4362,4.6494,4.4169,4.1821,4.0699,4.1115,4.1938,4.1369,4.104,4.0696,4.0367,3.9993,3.9918,3.9813,3.9553,3.9403,3.9388,3.9388,3.9388,3.9209,3.8467,3.8033,3.7689,3.7285,3.6791,3.6567,3.6372,3.6013,3.5504,3.5504,3.5489,3.5489,3.5489,3.54,3.525,3.4532,3.3514,3.2946,3.2303,3.1839,3.1391,3.1167,3.0913,2.9804,2.8622,2.7794,2.7585,2.7585,2.769,2.754,2.745,2.733,2.7225,2.7061,2.6986,5.7198,5.7105,5.6916,5.6606,5.6074,5.5161,5.4523,5.4383,5.4677,5.5474,5.6321,5.6454,5.7131,5.7755,5.7881,5.7442,5.6478,5.553,5.4499,5.3602,5.3518,5.3518,5.3433,5.3264,5.2977,5.252,5.2215,5.1488,5.0591,5.0101,4.961,4.912,4.9018,4.9018,4.9001,4.9001,4.8917,4.8866,4.8815,4.8798,4.8815,4.8832,4.8815,4.8697,4.8376,4.8088,4.797,4.7665,4.7479,4.802,4.8058,4.775,4.716,4.6528,4.5887,4.5825,4.4607,4.4723,4.5506,4.5326,4.5685,4.7561,4.7288,4.5283,4.2811,4.3096,4.3624,4.2919,4.2132,4.1317,4.1324,4.0876,4.0576,4.0412,3.9903,3.9448,3.9388,3.9388,3.9388,3.9313,3.8975,3.8631,3.8347,3.7988,3.7404,3.6929,3.6765,3.6417,3.5923,3.5504,3.5504,3.5489,3.5489,3.5489,3.537,3.4936,3.3948,3.3469,3.2811,3.2303,3.1854,3.1466,3.1122,3.033,2.9325,2.8667,2.8259,2.8364,2.8304,2.7899,2.7735,2.7764,2.7705,2.7615,2.7495,5.8146,5.7531,5.6543,5.6534,5.6786,5.5002,5.4837,5.5726,5.5859,5.6586,5.7463,5.7574,5.7628,5.7881,5.7881,5.7154,5.6139,5.5395,5.4668,5.3687,5.3518,5.3518,5.3518,5.3501,5.3382,5.3179,5.2723,5.1894,5.1082,5.0405,4.9847,4.9204,4.9018,4.9018,4.9018,4.9018,4.9018,4.9018,4.9018,4.9018,4.9018,4.9018,4.9018,4.9001,4.8781,4.8731,4.8765,4.8697,4.8714,4.8815,4.8815,4.8731,4.848,4.8259,4.7835,4.7257,4.6667,4.6518,4.6979,4.7046,4.7553,4.845,4.8545,4.8545,4.7398,4.7226,4.6039,4.3861,4.2413,4.1535,4.1384,4.1309,4.125,4.0965,4.0307,3.9493,3.9433,3.9388,3.9388,3.9358,3.9224,3.9119,3.8871,3.8586,3.8123,3.7659,3.7419,3.6941,3.6342,3.5848,3.5489,3.5489,3.5489,3.5489,3.5459,3.4966,3.4369,3.4129,3.3559,3.3021,3.2497,3.1824,3.1212,3.0584,3.0464,3.0313,2.9909,2.946,2.8966,2.8622,2.8427,2.8248,2.8049,2.7869,2.7675,5.8934,5.8534,5.7602,5.7245,5.7175,5.6192,5.5797,5.627,5.6816,5.7372,5.7755,5.7881,5.7881,5.7881,5.7881,5.707,5.597,5.526,5.4515,5.3653,5.3518,5.3518,5.3518,5.3518,5.3518,5.3416,5.3061,5.2486,5.1758,5.1048,5.027,4.9644,4.9238,4.9018,4.9018,4.9018,4.9018,4.9018,4.9018,4.9018,4.9018,4.9018,4.9018,4.9018,4.9018,4.9018,4.9018,4.9018,4.9001,4.9001,4.9001,4.9018,4.9018,4.8987,4.8846,4.8354,4.7917,4.7868,4.808,4.7982,4.7982,4.8813,4.9018,4.9018,4.9018,4.8526,4.7489,4.4966,4.3747,4.2933,4.2509,4.2126,4.1946,4.1782,4.101,4.0232,3.9657,3.9493,3.9478,3.9493,3.9328,3.9269,3.9298,3.905,3.8781,3.8452,3.8123,3.7539,3.6851,3.6462,3.6043,3.5489,3.5489,3.5489,3.5489,3.519,3.4803,3.4578,3.4339,3.3754,3.3095,3.2437,3.175,3.1092,3.1182,3.1241,3.1122,3.0537,2.9953,2.937,2.916,2.8891,2.8438,2.8109,2.7944,5.9556,5.898,5.8387,5.7906,5.7485,5.711,5.6803,5.6784,5.7446,5.7828,5.7881,5.7881,5.7881,5.7831,5.7577,5.6934,5.5647,5.4955,5.4211,5.3636,5.3518,5.3518,5.3518,5.3518,5.3518,5.3501,5.3433,5.3078,5.2266,5.1708,5.098,5.0152,4.9441,4.9103,4.9052,4.9018,4.9018,4.9018,4.9018,4.9018,4.9018,4.9018,4.9018,4.9018,4.9018,4.9018,4.9018,4.9018,4.9018,4.9018,4.9018,4.9018,4.9035,4.9154,4.9221,4.9094,4.8357,4.8418,4.8545,4.8433,4.8321,4.894,4.9001,4.9018,4.9018,4.8798,4.7982,4.5885,4.4787,4.4387,4.3576,4.2992,4.2635,4.2515,4.2058,4.1474,4.0876,4.0449,4.0076,3.9911,3.9568,3.9403,3.9403,3.9343,3.9065,3.899,3.8676,3.8242,3.7644,3.7389,3.6866,3.5863,3.5489,3.5489,3.5489,3.5489,3.516,3.4936,3.4786,3.4457,3.3754,3.3021,3.2392,3.1765,3.1376,3.1406,3.1481,3.1421,3.0688,3.0133,2.9894,2.9532,2.9037,2.8547,2.8263,5.9683,5.7508,5.7538,5.7626,5.7698,5.6829,5.6911,5.7645,5.7792,5.7881,5.7881,5.7881,5.7881,5.7746,5.7222,5.6511,5.57,5.4938,5.4194,5.3602,5.3518,5.3518,5.3518,5.3518,5.3518,5.3518,5.3518,5.3044,5.252,5.2232,5.1454,5.0439,5.0118,4.9712,4.934,4.9357,4.9018,4.9052,4.9069,4.9052,4.9052,4.9052,4.9018,4.9018,4.9018,4.9018,4.9018,4.9018,4.9018,4.9018,4.9035,4.9018,4.9103,4.9644,4.9881,4.9763,4.9331,4.8909,4.9055,4.8815,4.8688,4.897,4.9001,4.9018,4.9018,4.894,4.8433,4.7489,4.5957,4.4983,4.4571,4.3821,4.3377,4.3174,4.2974,4.2836,4.2512,4.172,4.1302,4.033,3.9986,3.9642,3.9478,3.9454,3.9379,3.9334,3.92,3.8766,3.8452,3.8197,3.7913,3.6985,3.6058,3.5968,3.5789,3.5744,3.5519,3.531,3.516,3.504,3.4457,3.3754,3.3155,3.2557,3.2079,3.1555,3.1496,3.1346,3.1077,3.0808,3.0507,3.0073,2.9594,2.916,2.8801,5.9325,5.8179,5.7816,5.7745,5.7825,5.7335,5.7409,5.7828,5.7881,5.7881,5.7881,5.7881,5.7881,5.7729,5.712,5.641,5.5666,5.4938,5.4211,5.3636,5.3518,5.3518,5.3518,5.3518,5.3518,5.3518,5.3501,5.3416,5.2909,5.2469,5.1843,5.1403,5.093,5.0642,5.0118,5.0236,5.0287,5.0168,4.9898,4.9644,4.9526,4.9255,4.9035,4.9035,4.9052,4.9069,4.9069,4.9018,4.9018,4.9086,4.9323,4.961,4.9796,5.027,5.0727,5.0693,5.0441,5.0052,4.9678,4.9289,4.9154,4.9035,4.9035,4.9018,4.9018,4.9021,4.8675,4.7622,4.6934,4.6237,4.5769,4.5217,4.4706,4.4282,4.3699,4.3369,4.329,4.326,4.2572,4.1451,4.0449,4.0195,3.9933,3.9753,3.9619,3.9358,3.9328,3.9155,3.902,3.899,3.8676,3.8257,3.7345,3.6611,3.6342,3.6163,3.5848,3.5624,3.5444,3.5295,3.507,3.4517,3.3933,3.3275,3.2632,3.2153,3.1765,3.1421,3.1271,3.1167,3.1062,3.0629,3.0238,3.0058,2.9594,5.8913,5.8676,5.8118,5.7881,5.7881,5.7881,5.7881,5.7881,5.7881,5.7881,5.7881,5.7881,5.7881,5.7712,5.7137,5.641,5.5631,5.4938,5.4194,5.3721,5.3518,5.3518,5.3518,5.3518,5.3518,5.3518,5.3518,5.345,5.3298,5.2959,5.2553,5.2317,5.1708,5.1303,5.1185,5.1082,5.0999,5.0948,5.0591,5.0388,5.0287,4.9898,4.9695,4.961,4.956,4.956,4.9543,4.9627,4.9644,4.9763,5.0101,5.0371,5.0473,5.1048,5.1437,5.1471,5.1386,5.12,5.0676,5.0202,4.9661,4.9458,4.9171,4.9187,4.9695,4.9511,4.9386,4.8811,4.8297,4.7825,4.7249,4.6815,4.6111,4.521,4.4242,4.3729,4.329,4.3299,4.3284,4.2557,4.1615,4.0943,4.0651,4.0232,3.9903,3.9493,3.9388,3.9388,3.9388,3.9409,3.9215,3.8805,3.8446,3.7554,3.6911,3.6611,3.6267,3.6013,3.5833,3.5564,3.5355,3.516,3.4771,3.4068,3.3364,3.3424,3.3424,3.2437,3.1496,3.1361,3.1256,3.1152,3.0913,3.0731,3.0283,5.8592,5.7949,5.7898,5.7881,5.7881,5.7881,5.7881,5.7881,5.7881,5.7881,5.7881,5.7881,5.7881,5.7729,5.7222,5.6511,5.5716,5.4938,5.4296,5.3805,5.3518,5.3518,5.3518,5.3518,5.3518,5.3518,5.3518,5.3518,5.3501,5.3382,5.2892,5.2384,5.2317,5.1826,5.1606,5.1591,5.1589,5.1489,5.1251,5.115,5.1099,5.0947,5.0879,5.0913,5.0997,5.1065,5.0999,5.0862,5.0794,5.0777,5.1014,5.1133,5.1251,5.186,5.2198,5.2249,5.2249,5.2131,5.1826,5.1234,5.1031,5.0642,5.0135,4.9864,5.0947,5.1033,5.0951,5.057,4.9793,4.9557,4.8962,4.8345,4.7658,4.6845,4.5771,4.4715,4.4113,4.3354,4.3299,4.3284,4.2776,4.2059,4.1685,4.1321,4.0372,3.9946,3.9403,3.9388,3.9388,3.9388,3.9388,3.9239,3.9254,3.8566,3.7569,3.718,3.7,3.6716,3.6447,3.6043,3.5654,3.5474,3.522,3.51,3.4577,3.4861,3.4814,3.3663,3.2617,3.1824,3.1436,3.1316,3.1197,3.0987,3.0552,5.8152,5.7881,5.7881,5.7881,5.7881,5.7881,5.7881,5.7881,5.7881,5.7881,5.7881,5.7881,5.7881,5.778,5.7662,5.707,5.6359,5.5615,5.4888,5.4194,5.3805,5.3551,5.3518,5.3551,5.3518,5.3518,5.3518,5.3518,5.3518,5.3518,5.3399,5.3095,5.2976,5.2926,5.2672,5.2436,5.252,5.2401,5.2131,5.1877,5.1775,5.1403,5.1234,5.1234,5.1234,5.1234,5.1151,5.1217,5.1217,5.1369,5.1691,5.1826,5.1961,5.2604,5.2909,5.2959,5.2959,5.2959,5.2756,5.1995,5.1251,5.1166,5.0777,5.0963,5.23,5.257,5.1995,5.1443,5.0975,5.076,5.0476,5.0059,4.9574,4.8748,4.7648,4.6327,4.529,4.46,4.3457,4.3442,4.3362,4.3018,4.275,4.2533,4.1386,4.0349,3.9841,3.9388,3.9388,3.9388,3.9388,3.9388,3.9388,3.9215,3.8212,3.7928,3.7778,3.7419,3.706,3.6656,3.6207,3.5609,3.5429,3.5489,3.5489,3.534,3.5026,3.4532,3.3648,3.2557,3.1869,3.1466,3.1346,3.1227,3.0911,5.7881,5.7881,5.7881,5.7881,5.7881,5.7881,5.7881,5.7881,5.7881,5.7881,5.7881,5.7881,5.7881,5.7881,5.7848,5.7459,5.6799,5.6224,5.5615,5.5023,5.4499,5.4059,5.3907,5.3805,5.3788,5.3602,5.3518,5.3518,5.3518,5.3518,5.3467,5.345,5.3501,5.3433,5.3433,5.3518,5.3518,5.3331,5.3044,5.2655,5.257,5.2249,5.1995,5.2012,5.2046,5.2063,5.2097,5.2114,5.2047,5.2198,5.2384,5.2621,5.2841,5.3112,5.345,5.3518,5.3518,5.3518,5.3196,5.2706,5.1928,5.2063,5.2029,5.2486,5.3179,5.3501,5.2824,5.2249,5.1962,5.1861,5.1793,5.1512,5.1161,5.0375,4.9809,4.8612,4.7366,4.6419,4.475,4.3639,4.3518,4.3458,4.3715,4.3463,4.2741,4.1471,4.0416,3.9841,3.9388,3.9388,3.9388,3.9388,3.9388,3.914,3.8796,3.8646,3.8452,3.7988,3.7644,3.733,3.6866,3.6207,3.5624,3.5504,3.5489,3.5489,3.5295,3.4936,3.4113,3.3125,3.2482,3.1914,3.1466,3.1361,3.1406,5.7881,5.7881,5.7881,5.7881,5.7881,5.7881,5.7881,5.7881,5.7881,5.7881,5.7881,5.7881,5.7881,5.7881,5.7881,5.7526,5.707,5.6765,5.6325,5.575,5.5361,5.5108,5.4786,5.4515,5.4279,5.367,5.3737,5.3873,5.3518,5.367,5.3636,5.3518,5.3518,5.3518,5.3518,5.3518,5.3518,5.3501,5.3399,5.3348,5.3298,5.3162,5.3112,5.3078,5.3044,5.301,5.2993,5.2993,5.2976,5.3061,5.3129,5.3264,5.3348,5.3382,5.3518,5.3518,5.3518,5.3518,5.3467,5.3416,5.3247,5.3112,5.2926,5.3247,5.3433,5.3484,5.345,5.2892,5.3095,5.3213,5.3078,5.2756,5.2319,5.1965,5.1405,5.0902,4.9609,4.7982,4.6314,4.518,4.4228,4.3687,4.4173,4.4345,4.3867,4.2803,4.131,4.0386,3.973,3.9388,3.9388,3.9388,3.9388,3.9284,3.914,3.9239,3.9059,3.8616,3.8257,3.7988,3.7494,3.6806,3.6252,3.5744,3.5489,3.5489,3.5489,3.5429,3.4562,3.3709,3.3006,3.2392,3.1884,3.1555,3.1645,5.7881,5.7881,5.7881,5.7881,5.7881,5.7881,5.7881,5.7881,5.7881,5.7881,5.7881,5.7881,5.7881,5.7881,5.7865,5.7712,5.7492,5.69,5.6528,5.6444,5.6055,5.5649,5.5378,5.526,5.4938,5.4566,5.4549,5.4279,5.3518,5.3957,5.3839,5.3653,5.3721,5.3518,5.3518,5.3518,5.3518,5.3518,5.3501,5.3501,5.3518,5.3518,5.3518,5.3518,5.3518,5.3518,5.3518,5.3518,5.3518,5.3518,5.3518,5.3518,5.3518,5.3518,5.3518,5.3518,5.3518,5.3518,5.3518,5.3484,5.3501,5.3518,5.3518,5.3518,5.3518,5.3518,5.3518,5.3518,5.3518,5.3518,5.3348,5.3281,5.3011,5.3061,5.2739,5.2689,5.1664,4.9695,4.8047,4.7373,4.6523,4.5925,4.601,4.586,4.5349,4.4492,4.3169,4.1146,4.0089,3.9604,3.9388,3.9388,3.9388,3.9388,3.9424,3.961,3.9646,3.9284,3.8983,3.8751,3.8153,3.7533,3.69,3.6375,3.5926,3.5489,3.5733,3.5755,3.5106,3.4352,3.4015,3.3186,3.2407,3.2093,3.1989,5.7881,5.7881,5.7881,5.7881,5.7881,5.7881,5.7881,5.7881,5.7881,5.7881,5.7881,5.7881,5.7881,5.7881,5.7881,5.7881,5.7814,5.7442,5.7188,5.712,5.6748,5.641,5.6207,5.6038,5.5632,5.5327,5.5294,5.5124,5.4465,5.4769,5.4752,5.4499,5.4245,5.4431,5.4262,5.3991,5.3518,5.3518,5.3518,5.3518,5.3518,5.3518,5.3518,5.3518,5.3518,5.3518,5.3518,5.3518,5.3518,5.3534,5.3518,5.3518,5.3518,5.3534,5.3518,5.3518,5.3518,5.3636,5.3839,5.3551,5.3551,5.3518,5.3518,5.3518,5.3518,5.3518,5.3518,5.3518,5.3518,5.3518,5.3518,5.3518,5.3501,5.3484,5.345,5.3365,5.2976,5.098,5.0156,4.9489,4.8442,4.8034,4.7556,4.7406,4.6993,4.6039,4.4989,4.2937,4.0945,4.042,3.9965,3.9753,3.9709,3.9702,3.9829,4.0025,3.999,3.9864,3.9813,3.9782,3.9083,3.8495,3.7775,3.6948,3.6241,3.5847,3.6178,3.609,3.5782,3.5707,3.5718,3.4619,3.3171,3.2901,3.2898,5.7881,5.7881,5.7881,5.7881,5.7881,5.7881,5.7881,5.7881,5.7881,5.7881,5.7881,5.7881,5.7881,5.7881,5.7881,5.7881,5.7881,5.785,5.7816,5.778,5.7526,5.7222,5.6968,5.6799,5.6376,5.5987,5.5886,5.6021,5.5664,5.5497,5.548,5.553,5.5327,5.531,5.4972,5.4515,5.3991,5.4025,5.4025,5.4042,5.4076,5.389,5.3974,5.3991,5.3974,5.3957,5.3923,5.3805,5.3704,5.3619,5.3551,5.3551,5.3568,5.3585,5.3585,5.3636,5.3737,5.4143,5.4431,5.4093,5.3636,5.3602,5.3518,5.3518,5.3518,5.3518,5.3518,5.3518,5.3518,5.3518,5.3518,5.3518,5.3518,5.3501,5.3501,5.3484,5.3484,5.2739,5.2249,5.1324,4.9909,4.9098,4.8363,4.8116,4.8166,4.7424,4.6526,4.5693,4.3744,4.1929,4.1361,4.0441,4.0351,4.0141,4.0274,4.0585,4.074,4.074,4.1095,4.1037,4.0279,3.9569,3.9005,3.8081,3.6622,3.6207,3.6739,3.6905,3.6782,3.6789,3.6896,3.6158,3.4744,3.4356,3.4171,5.7881,5.7881,5.7881,5.7881,5.7881,5.7881,5.7881,5.7881,5.7881,5.7881,5.7881,5.7881,5.7881,5.7881,5.7881,5.7881,5.7881,5.7881,5.7865,5.7881,5.7881,5.7729,5.7611,5.7442,5.707,5.6884,5.6782,5.6664,5.5936,5.5749,5.5801,5.5683,5.5936,5.5869,5.5683,5.5294,5.5158,5.5023,5.4989,5.4871,5.4905,5.4888,5.4905,5.4888,5.4871,5.4871,5.4837,5.4465,5.4329,5.4262,5.3754,5.367,5.4279,5.4752,5.5056,5.5091,5.509,5.5209,5.5327,5.5192,5.4752,5.3974,5.3704,5.3518,5.3518,5.3721,5.3737,5.3805,5.3704,5.3704,5.3636,5.3602,5.3551,5.3518,5.3518,5.3518,5.3518,5.3382,5.2926,5.2536,5.115,5.0141,4.9387,4.9118,4.9085,4.8523,4.7917,4.7273,4.6281,4.4369,4.3549,4.2679,4.2085,4.2214,4.1319,4.1344,4.1526,4.1674,4.2062,4.2157,4.14,4.074,4.0243,3.9211,3.7752,3.7326,3.746,3.7562,3.7646,3.7793,3.7842,3.715,3.6524,3.6105,3.5618,5.7881,5.7881,5.7881,5.7881,5.7881,5.7881,5.7881,5.7881,5.7881,5.7881,5.7881,5.7881,5.7881,5.7881,5.7881,5.7881,5.7881,5.7881,5.7881,5.7881,5.7881,5.7848,5.7865,5.7848,5.7611,5.7526,5.7492,5.7374,5.6664,5.6562,5.663,5.6664,5.6579,5.6545,5.6596,5.663,5.6596,5.6325,5.6072,5.5818,5.5767,5.5749,5.5681,5.5784,5.5784,5.5784,5.575,5.5209,5.5091,5.4837,5.416,5.4042,5.4752,5.548,5.5647,5.558,5.5563,5.5801,5.6004,5.5784,5.5497,5.5175,5.4685,5.4854,5.4905,5.5108,5.4803,5.4566,5.4211,5.394,5.3822,5.3704,5.3602,5.3518,5.3518,5.3518,5.3518,5.3518,5.3382,5.3264,5.2435,5.1403,5.0779,5.0422,4.9968,4.9373,4.8908,4.8401,4.7556,4.6237,4.5999,4.5853,4.5129,4.4688,4.3588,4.251,4.2605,4.2855,4.3152,4.3061,4.2395,4.1788,4.1234,4.016,3.8846,3.867,3.8663,3.8531,3.8576,3.8735,3.8909,3.8564,3.8128,3.7734,3.7231,5.7881,5.7881,5.7881,5.7881,5.7881,5.7881,5.7881,5.7881,5.7881,5.7881,5.7881,5.7881,5.7881,5.7881,5.7881,5.7881,5.7881,5.7881,5.7881,5.7881,5.7881,5.7881,5.7881,5.7865,5.778,5.7831,5.7831,5.7729,5.7814,5.7611,5.7509,5.7881,5.7729,5.7577,5.7509,5.7526,5.7459,5.7323,5.6731,5.6241,5.6139,5.5969,5.585,5.6004,5.6021,5.6021,5.5987,5.5886,5.5801,5.531,5.4871,5.4617,5.5513,5.6055,5.6072,5.6072,5.6224,5.6461,5.6664,5.6494,5.6833,5.6765,5.6714,5.6562,5.6444,5.6325,5.597,5.5158,5.4718,5.438,5.4211,5.3788,5.3551,5.3518,5.3518,5.3518,5.3518,5.3518,5.3467,5.3348,5.3027,5.208,5.1471,5.1065,5.0541,5.0101,4.9647,4.9227,4.8513,4.7523,4.7622,4.8047,4.743,4.6417,4.5369,4.4397,4.3979,4.4099,4.4206,4.3902,4.3199,4.266,4.2205,4.1373,4.0625,4.0087,3.9877,3.972,3.9598,3.9808,3.994,3.9977,3.968,3.9067,3.8739,5.7881,5.7881,5.7881,5.7881,5.7881,5.7881,5.7881,5.7881,5.7881,5.7881,5.7881,5.7881,5.7881,5.7881,5.7881,5.7881,5.7881,5.7881,5.7881,5.7881,5.7881,5.7881,5.7881,5.7881,5.7881,5.7881,5.7881,5.7881,5.7881,5.7881,5.7881,5.7881,5.7881,5.7881,5.7881,5.7881,5.7865,5.7831,5.7509,5.7103,5.7137,5.7289,5.7374,5.7306,5.7273,5.7188,5.707,5.6782,5.6647,5.6325,5.5666,5.6072,5.7239,5.7306,5.7357,5.7374,5.7188,5.7306,5.734,5.7256,5.7476,5.7594,5.7526,5.7628,5.7611,5.7459,5.6917,5.5953,5.526,5.4921,5.4532,5.4025,5.3585,5.3568,5.3518,5.3518,5.3518,5.3518,5.3518,5.3399,5.3264,5.2807,5.2181,5.164,5.1116,5.0625,5.0168,4.9729,4.9156,4.8401,4.8306,4.8625,4.8719,4.7897,4.6873,4.6012,4.543,4.4917,4.4848,4.4452,4.3935,4.3634,4.327,4.3096,4.2626,4.1968,4.1304,4.0739,4.0717,4.0854,4.0544,4.0392,4.0231,3.9738,3.9706,5.7881,5.7881,5.7881,5.7881,5.7881,5.7881,5.7881,5.7881,5.7881,5.7881,5.7881,5.7881,5.7881,5.7881,5.7881,5.7881,5.7881,5.7881,5.7881,5.7881,5.7881,5.7881,5.7881,5.7881,5.7881,5.7881,5.7881,5.7881,5.7881,5.7881,5.7881,5.7881,5.7881,5.7881,5.7881,5.7881,5.7881,5.7881,5.7881,5.7881,5.7881,5.7881,5.7881,5.7881,5.7881,5.7881,5.7797,5.7476,5.7374,5.7256,5.685,5.6934,5.7628,5.7729,5.7814,5.7814,5.778,5.7881,5.7881,5.7881,5.7881,5.7881,5.7881,5.7814,5.7814,5.7645,5.7628,5.6765,5.6241,5.5869,5.5463,5.4989,5.438,5.4126,5.3754,5.3518,5.3518,5.3518,5.3518,5.3484,5.3382,5.3281,5.2706,5.2249,5.1674,5.0947,5.0507,4.9813,4.934,4.9018,4.9018,4.9018,4.9018,4.9001,4.8239,4.7353,4.6608,4.6118,4.5551,4.4929,4.4438,4.4479,4.4401,4.3972,4.3786,4.3685,4.3037,4.2139,4.1686,4.17,4.1204,4.0663,4.0493,4.0333,4.0113,5.7881,5.7881,5.7881,5.7881,5.7881,5.7881,5.7881,5.7881,5.7881,5.7881,5.7881,5.7881,5.7881,5.7881,5.7881,5.7881,5.7881,5.7881,5.7881,5.7881,5.7881,5.7881,5.7881,5.7881,5.7881,5.7881,5.7881,5.7881,5.7881,5.7881,5.7881,5.7881,5.7881,5.7881,5.7881,5.7881,5.7881,5.7881,5.7881,5.7881,5.7881,5.7881,5.7881,5.7881,5.7881,5.7881,5.7881,5.7865,5.7865,5.7814,5.7695,5.7746,5.778,5.7881,5.7881,5.7881,5.7881,5.7881,5.7881,5.7881,5.7881,5.7881,5.7881,5.7881,5.7881,5.7865,5.7831,5.7577,5.7053,5.663,5.6224,5.5733,5.5108,5.4448,5.3974,5.3518,5.3518,5.3518,5.3518,5.3518,5.3501,5.3484,5.3196,5.2739,5.2181,5.1437,5.0676,4.9898,4.9323,4.912,4.9018,4.9018,4.9018,4.8984,4.8968,4.8308,4.7331,4.6955,4.6312,4.5534,4.4891,4.4716,4.4598,4.4553,4.4412,4.4305,4.4069,4.3356,4.2976,4.2523,4.1897,4.1288,4.0882,4.0679,4.035,5.7881,5.7881,5.7881,5.7881,5.7881,5.7881,5.7881,5.7881,5.7881,5.7881,5.7881,5.7881,5.7881,5.7881,5.7881,5.7881,5.7881,5.7881,5.7881,5.7881,5.7881,5.7881,5.7881,5.7881,5.7881,5.7881,5.7881,5.7881,5.7881,5.7881,5.7881,5.7881,5.7881,5.7881,5.7881,5.7881,5.7881,5.7881,5.7881,5.7881,5.7881,5.7881,5.7881,5.7881,5.7881,5.7881,5.7881,5.7881,5.7881,5.7881,5.7881,5.7881,5.7881,5.7881,5.7881,5.7881,5.7881,5.7881,5.7881,5.7881,5.7881,5.7881,5.7881,5.7881,5.7881,5.7881,5.7831,5.7763,5.7323,5.6968,5.6562,5.6055,5.5463,5.4685,5.4076,5.3704,5.3518,5.3518,5.3518,5.3518,5.3501,5.3501,5.345,5.3078,5.2824,5.2097,5.1437,5.0591,4.9238,4.9086,4.9018,4.9018,4.9018,4.9001,4.8984,4.8528,4.78,4.7479,4.7005,4.6109,4.5331,4.4716,4.4598,4.4598,4.4598,4.4491,4.4248,4.4045,4.3707,4.3166,4.2557,4.1982,4.1542,4.1035,4.0696]}]]